[[[{"header":{"parameterUnit":"kt","parameterCategory":2,"dx":1,"dy":1,"la1":29.285339999999998,"la2":30.599998999999997,"lo1":-89.70041500000002,"lo2":-87.6738589999976,"nx":112,"ny":82,"refTime":"2022-10-07T00:00:00:Z","depth":0,"parameterNumber":1,"parameterNumberName":"U-component_of_WINDS"},"data":[5.8284,5.8362,5.8027,5.4447,5.451,5.4594,5.1659,5.2658,5.4644,5.612,5.694,5.795,5.9927,5.9638,5.9376,0.0,0.0,0.0,0.0,5.9912,6.0926,6.3474,0.0,0.0,0.0,0.0,6.561,6.6187,6.5722,0.0,7.1575,7.1238,7.1785,7.3626,7.1962,7.0088,6.8051,6.914,6.9426,6.8997,7.2636,7.4135,7.3742,7.4777,7.492,7.4313,7.3314,7.1637,6.9782,7.1388,7.1459,7.0817,7.3386,7.4741,7.5241,7.5241,7.5241,7.5241,7.5241,7.5241,7.5241,7.5241,7.5241,7.5241,7.5241,7.5241,7.5241,7.5241,7.5241,7.5241,7.5241,7.5241,7.5241,7.5241,7.4928,7.4707,7.4707,7.4707,7.4707,7.4707,7.4989,7.5241,7.5241,7.7845,7.9914,7.9914,8.0378,8.0521,7.9986,7.9521,7.7814,7.4076,7.5134,7.5923,7.5327,7.434,7.3288,7.2334,7.0361,6.9244,6.9244,6.9244,7.0197,7.2236,7.3222,7.4636,7.6543,7.7463,7.7891,7.7891,7.7891,7.7891,5.7648,5.7244,5.6644,5.3319,5.2979,5.2817,5.0333,5.1671,5.3744,5.4968,5.6312,5.7516,5.8152,5.8521,0.0,0.0,0.0,0.0,0.0,6.1121,6.2081,6.4622,6.4905,0.0,0.0,0.0,6.6282,6.6433,6.6398,6.7568,7.0378,7.0316,7.0865,7.2284,7.1186,6.9832,6.8352,6.948,6.9357,6.8087,7.2387,7.3885,7.298,7.4492,7.5241,7.5169,7.4135,7.2779,7.1388,7.1887,7.178,7.1495,7.3064,7.4313,7.5241,7.5241,7.5241,7.5241,7.5241,7.5241,7.5241,7.5241,7.5241,7.5241,7.5241,7.5241,7.5241,7.5241,7.5241,7.5241,7.5241,7.5241,7.5241,7.5241,7.5241,7.5241,7.5241,7.5241,7.5241,7.5241,7.5241,7.5241,7.5241,7.7381,7.9308,7.9843,7.9914,7.9914,7.9914,7.9914,7.8413,7.4639,7.5341,7.5696,7.4857,7.3694,7.2531,7.1545,7.0066,6.9244,6.9244,6.9244,7.0197,7.2203,7.3189,7.4636,7.651,7.7431,7.7891,7.7924,7.8417,7.891,5.7193,5.4558,5.2674,5.1288,5.0373,4.9845,4.9911,5.2048,5.4258,5.5106,5.6309,5.7251,5.7318,5.805,0.0,0.0,0.0,0.0,0.0,6.2469,6.4038,6.5537,6.5715,6.5715,6.5715,6.5715,6.5951,6.6433,6.5094,6.5178,6.7406,6.6937,6.7503,6.9603,6.931,6.9024,6.876,6.8988,6.865,6.7891,7.1159,7.273,7.2779,7.4384,7.5134,7.5241,7.5169,7.4277,7.2801,7.1245,7.153,7.2743,7.1281,7.2565,7.5241,7.5241,7.5241,7.5241,7.5241,7.5241,7.5241,7.5241,7.5241,7.5241,7.5241,7.5241,7.5241,7.5241,7.5241,7.5241,7.5241,7.5241,7.5241,7.5241,7.5241,7.5241,7.5241,7.5241,7.5241,7.5241,7.5241,7.5241,7.5241,7.6489,7.7988,7.9593,7.9843,7.9843,7.9843,7.9843,7.8666,7.5562,7.4892,7.457,7.4453,7.2657,7.1569,7.1479,7.0066,6.9244,6.9244,6.9244,7.0625,7.3551,7.3649,7.5063,7.7825,7.7891,7.8022,7.8088,7.9536,8.092,5.199,5.1068,5.1423,5.1601,5.1453,5.1587,5.2573,5.3098,5.3859,5.5817,5.5626,0.0,0.0,0.0,5.7854,5.7854,0.0,6.2552,6.2704,6.4074,6.5216,6.5644,6.5715,6.5715,6.5715,6.6064,6.6329,6.6479,6.655,6.7151,6.8492,6.8786,6.8415,6.7385,6.988,6.8988,6.4268,6.7777,6.7519,6.3557,6.6763,6.8635,6.9426,7.1102,7.31,7.5169,7.3992,7.3243,7.2872,7.2387,7.2551,7.2957,7.3671,7.4456,7.5241,7.5241,7.5241,7.5241,7.5241,7.5241,7.5241,7.5241,7.5241,7.5241,7.5241,7.5241,7.5241,7.5241,7.5241,7.5241,7.5241,7.5241,7.5241,7.5241,7.5241,7.5241,7.5241,7.5241,7.5241,7.5241,7.5241,7.5241,7.5241,7.5597,7.6382,7.7952,7.8202,7.8202,7.8202,7.8202,7.7453,7.5455,7.4481,7.4053,7.446,7.3304,7.2229,7.1569,7.0066,6.9244,6.9244,6.9244,7.0131,7.2038,7.3156,7.457,7.6378,7.7398,7.9003,8.0955,8.2146,8.3397,5.0499,4.9918,5.0945,5.1359,5.2143,5.3034,5.3821,5.4292,5.5006,5.7046,0.0,0.0,0.0,0.0,0.0,0.0,6.1499,6.3302,6.4237,6.5144,6.5715,6.5715,6.5715,6.5715,6.5715,6.5965,6.6271,6.6433,6.6642,6.6787,6.6949,6.7882,6.7613,6.5845,6.8837,6.8334,6.3842,6.664,6.6048,6.2098,6.4379,6.6199,6.7472,6.8856,7.1245,7.4206,7.3243,7.3243,7.3814,7.3136,7.3243,7.3956,7.4884,7.5241,7.5241,7.5241,7.5241,7.5241,7.5241,7.5241,7.5241,7.5241,7.5241,7.5241,7.5241,7.5241,7.5241,7.5241,7.5241,7.5241,7.5241,7.5241,7.5241,7.5241,7.5241,7.5241,7.5241,7.5241,7.5241,7.5241,7.5241,7.5241,7.5241,7.5241,7.574,7.731,7.756,7.756,7.756,7.813,7.7702,7.5455,7.4851,7.4507,7.4153,7.28,7.1736,7.1278,6.9966,6.9244,6.9244,6.9244,6.9967,7.1446,7.2686,7.4142,7.5787,7.7515,7.9532,8.1789,8.2944,8.4641,5.0781,4.9937,5.0514,5.0903,5.2398,5.3854,5.4215,0.0,5.6848,5.8639,0.0,5.9065,6.0244,0.0,0.0,6.2271,6.2623,6.3442,6.5449,6.5715,6.5715,6.5715,6.5715,6.5715,6.5715,6.5715,6.5901,6.6376,6.5965,6.5292,6.4389,6.5709,6.5984,6.4947,6.711,6.7237,6.5261,6.5409,6.4298,6.1976,6.293,6.4298,6.5979,6.7047,6.9283,7.2315,7.2529,7.3493,7.4848,7.3421,7.3778,7.5205,7.5027,7.5062,7.5241,7.5241,7.5241,7.5241,7.5241,7.5241,7.5241,7.5241,7.5241,7.5241,7.5241,7.5241,7.5241,7.5241,7.5241,7.5241,7.5241,7.5241,7.5241,7.5241,7.5241,7.5241,7.5241,7.5241,7.5241,7.5241,7.5241,7.5241,7.5241,7.5241,7.5633,7.6846,7.7167,7.7203,7.7025,7.8416,7.8309,7.5526,7.5652,7.5302,7.3799,7.2076,7.0993,7.0787,6.9864,6.9298,6.9244,6.9298,7.0098,7.1594,7.2608,7.3896,7.5449,7.7824,7.9828,8.1472,8.2831,8.5081,4.7977,4.7219,4.8059,5.0946,5.2014,5.2936,0.0,0.0,0.0,6.0002,5.9622,5.9493,6.224,6.273,6.2801,6.3121,6.4276,6.5201,6.5644,6.5715,6.5715,6.5715,6.5715,6.5715,6.5715,6.5715,6.5732,6.585,6.5732,6.5589,6.542,6.6091,6.5977,6.4943,6.7112,6.6393,6.2453,6.3647,6.2529,5.9121,5.9003,6.0284,6.2735,6.3787,6.5984,6.9069,7.0424,7.1887,7.3314,7.2993,7.3778,7.5098,7.3814,7.4099,7.5241,7.5241,7.5241,7.5241,7.5241,7.5241,7.5241,7.5241,7.5241,7.5241,7.5241,7.5241,7.5241,7.5241,7.5241,7.5241,7.5241,7.5241,7.5241,7.5241,7.5241,7.5241,7.5241,7.5241,7.5241,7.5241,7.5241,7.5241,7.5241,7.5241,7.4884,7.3921,7.4848,7.5241,7.3956,7.5134,7.5883,7.5276,7.5334,7.4929,7.376,7.3322,7.2442,7.0867,7.0544,7.0083,6.9244,7.0033,7.1002,7.2102,7.3452,7.3899,7.3428,7.7139,7.9828,8.1519,8.3423,8.5988,4.6683,4.6533,4.765,5.0171,5.2475,0.0,0.0,5.744,5.9062,6.0991,6.1137,6.1581,6.3579,6.4278,6.4538,6.4538,6.518,6.5715,6.5715,6.5715,6.5715,6.5715,6.5715,6.5715,6.5715,6.5715,6.5715,6.5715,6.5715,6.5715,6.5715,6.6505,6.6754,6.6227,6.776,6.6775,6.2813,6.3561,6.2179,5.8696,5.8226,5.9074,6.0937,6.1267,6.3393,6.6928,6.7749,6.9925,7.2872,7.203,7.2636,7.4063,7.4063,7.4527,7.5241,7.5241,7.5241,7.5241,7.5241,7.5241,7.5241,7.5241,7.5241,7.5241,7.5241,7.5241,7.5241,7.5241,7.5241,7.5241,7.5241,7.5241,7.5241,7.5241,7.5241,7.5241,7.5241,7.5241,7.5241,7.5241,7.5241,7.5241,7.5241,7.4599,7.3778,7.2993,7.3528,7.3742,7.3015,7.4242,7.5241,7.5241,7.5241,7.4989,7.4511,7.3958,7.3253,7.2297,7.1811,7.1307,7.0753,7.1229,7.1769,7.2258,7.3454,7.3662,7.2859,7.6466,7.8807,7.9974,8.2267,8.5052,4.6327,4.7149,4.8858,5.0601,5.3922,0.0,5.7111,5.8985,6.0866,6.1684,6.2381,6.3238,6.4352,6.5016,6.5522,6.5715,6.5715,6.5715,6.5715,6.5715,6.5715,6.5715,6.5715,6.5715,6.5715,6.5715,6.5715,6.5715,6.5715,6.5715,6.5715,6.6433,6.6991,6.744,6.7445,6.6287,6.3972,6.3337,6.1692,5.9089,5.858,5.8802,5.9734,5.9549,6.1287,6.4511,6.5339,6.7891,7.1459,7.1138,7.1822,7.3151,7.4301,7.5038,7.5347,7.5265,7.5241,7.5241,7.5241,7.5241,7.5241,7.5241,7.5241,7.5241,7.5241,7.5241,7.5241,7.5241,7.5241,7.5241,7.5241,7.5241,7.5241,7.5241,7.5241,7.5241,7.5241,7.5241,7.5241,7.5241,7.5241,7.5134,7.4813,7.3707,7.2694,7.203,7.2458,7.2801,7.2458,7.4063,7.5241,7.5241,7.5241,7.5241,7.5241,7.4448,7.3892,7.3694,7.2976,7.2477,7.2331,7.2477,7.2549,7.2549,7.3493,7.3637,7.3038,7.5553,7.7345,7.8395,8.0698,8.3446,4.7109,4.9319,5.2081,5.4908,5.698,0.0,5.9873,6.0399,6.0866,6.1684,6.1933,6.2516,6.4234,6.462,6.4905,6.5575,6.5715,6.5715,6.5715,6.5715,6.5715,6.5715,6.5715,6.5715,6.5715,6.5715,6.5715,6.5715,6.5715,6.5715,6.5715,6.4962,6.5402,6.7403,6.3751,6.2474,6.3935,6.1093,5.9425,5.9089,5.858,5.8395,5.8522,5.9157,5.9734,6.0372,6.411,6.6001,6.6821,7.0924,7.2996,7.3531,7.3279,7.4307,7.5879,7.5369,7.5241,7.5241,7.5241,7.5241,7.5241,7.5241,7.5241,7.5241,7.5241,7.5241,7.5241,7.5241,7.5241,7.5241,7.5241,7.5241,7.5241,7.5241,7.5241,7.5241,7.5241,7.5241,7.5241,7.5241,7.5241,7.4777,7.3386,7.3051,7.1887,6.9033,7.1031,7.2351,7.0995,7.3421,7.5241,7.5241,7.5241,7.5241,7.5241,7.5145,7.4672,7.376,7.3592,7.3184,7.2366,7.3115,7.3525,7.3525,7.4547,7.4555,7.3566,7.3939,7.5583,7.8359,7.9598,8.1841,4.9253,5.0963,5.2607,5.5566,0.0,0.0,5.9281,6.0037,6.0781,6.1057,6.1503,6.2176,6.3526,6.4174,6.4792,6.5575,6.5326,6.5052,6.5052,6.5379,6.5715,6.5715,6.5715,6.5715,6.5715,6.5715,6.5715,6.5715,6.5715,6.5715,6.5715,6.5599,6.565,6.5968,6.4493,6.3338,6.2589,6.1243,6.0084,5.9089,5.8896,5.8606,5.835,5.8651,5.9524,6.0933,6.2692,6.4804,6.7338,7.0951,7.1851,7.1041,7.1699,7.2872,7.4056,7.293,7.3671,7.5098,7.417,7.4456,7.5241,7.5241,7.5241,7.5241,7.5241,7.5241,7.5241,7.5241,7.5241,7.5241,7.5241,7.5241,7.5241,7.5241,7.5241,7.5241,7.5241,7.5241,7.5241,7.5241,7.5241,7.4706,7.3136,7.2101,7.0746,6.8372,7.0032,7.1281,7.0639,7.3279,7.5241,7.5241,7.5241,7.5241,7.5241,7.5241,7.4989,7.461,7.461,7.4385,7.4028,7.4385,7.461,7.461,7.5024,7.4989,7.461,7.461,7.5283,7.6594,7.8832,8.1092,5.093,0.0,0.0,0.0,0.0,0.0,5.961,6.0169,6.0629,6.0629,6.1131,6.1755,6.2584,6.3302,6.4019,6.4869,6.4527,6.4234,6.4504,6.4792,6.5181,6.5627,6.5522,6.5468,6.5715,6.5715,6.5715,6.5715,6.5715,6.5715,6.5715,6.6064,6.6098,6.5639,6.4826,6.3672,6.229,6.1355,6.0308,5.9089,5.9089,5.8896,5.8553,5.8369,5.9493,6.1599,6.2348,6.466,6.8033,7.031,7.0456,6.9356,7.0751,7.1772,7.2331,7.1036,7.1994,7.3778,7.2636,7.3243,7.4599,7.4599,7.4884,7.5241,7.5241,7.5241,7.5241,7.5241,7.5241,7.5241,7.5241,7.5241,7.5241,7.5241,7.5241,7.5241,7.5241,7.5241,7.5241,7.5241,7.4884,7.4063,7.2494,7.0924,6.9318,6.7677,6.8819,7.0032,7.0496,7.2922,7.4741,7.5205,7.5241,7.5241,7.5241,7.5241,7.5241,7.5241,7.5241,7.5241,7.5241,7.5241,7.5241,7.5241,7.5241,7.5241,7.5241,7.5241,7.5241,7.5276,7.7988,8.0342,0.0,0.0,0.0,5.9807,6.0531,6.0925,6.2306,6.1583,6.0629,6.0629,6.0629,6.0941,6.1722,6.1829,6.2176,6.3079,6.3208,6.3526,6.4446,6.3775,6.3898,6.5522,6.5052,6.4848,6.5627,6.5715,6.5715,6.5715,6.5715,6.5715,6.5715,6.5715,6.6259,6.7327,6.3205,6.1897,6.386,6.0757,5.9126,5.9089,5.9089,5.9089,5.9028,5.8553,5.9239,6.0988,6.3699,6.5822,6.7543,6.8629,6.9346,6.9856,7.0907,7.1354,7.1354,7.0771,7.0603,7.071,7.0639,7.1637,7.298,7.298,7.3956,7.5241,7.5241,7.5241,7.5241,7.5241,7.5241,7.5241,7.5241,7.5241,7.5241,7.5241,7.5241,7.5241,7.5241,7.5241,7.5241,7.5241,7.3992,7.2458,7.0888,6.9247,6.7552,6.6001,6.7107,6.8657,7.0353,7.1923,7.3528,7.5062,7.5241,7.5241,7.5241,7.5241,7.5241,7.5241,7.5241,7.5241,7.5241,7.5241,7.5241,7.5241,7.5241,7.5241,7.5241,7.5241,7.5241,7.5276,7.6882,7.9272,5.3922,5.5566,5.7013,5.9906,6.0629,6.0761,6.1221,6.0991,6.0629,6.0629,6.0629,6.0866,6.1684,6.1358,6.1131,6.1464,6.1966,6.2381,6.2717,6.298,6.3589,6.4792,6.4678,6.4848,6.5627,6.5715,6.5715,6.5715,6.5715,6.5715,6.5715,6.5715,6.542,6.4746,6.2634,6.1091,6.0216,5.9138,5.8747,5.9089,5.9089,5.9089,5.9089,5.892,6.0158,6.2395,6.3,6.4612,6.6876,6.7628,6.8286,6.8703,6.8291,6.8796,6.9617,6.7942,6.8676,7.0389,6.9283,6.9961,7.1495,7.2587,7.3207,7.3849,7.492,7.5241,7.5241,7.5241,7.5241,7.5241,7.5241,7.5241,7.5241,7.5241,7.5241,7.5241,7.5241,7.442,7.3671,7.3671,7.2387,7.0817,6.9176,6.8372,6.7481,6.5929,6.7035,6.8622,7.0353,7.1887,7.3493,7.5062,7.5241,7.5241,7.5241,7.5241,7.5241,7.5241,7.5241,7.5241,7.5241,7.5241,7.5241,7.5241,7.5241,7.5241,7.5241,7.5241,7.5241,7.5241,7.5776,7.7132,5.52,5.6075,5.6585,5.983,6.0629,6.0629,6.0629,6.0629,6.0629,6.0629,6.0629,6.0824,6.1318,6.0983,6.0629,6.0629,6.1057,6.1503,6.1792,6.2106,6.2817,6.4387,6.4234,6.4469,6.5575,6.5715,6.5715,6.5715,6.5715,6.5715,6.5715,6.5715,6.5002,6.3432,6.2898,6.1371,5.8737,5.834,5.8293,5.859,5.8759,5.8809,5.8809,5.9005,6.035,6.2566,6.1857,6.3082,6.5604,6.6088,6.6598,6.7007,6.6616,6.7027,6.7651,6.6228,6.7035,6.8641,6.757,6.832,6.9818,7.0817,7.1566,7.2315,7.3921,7.4384,7.4492,7.5062,7.5241,7.5241,7.5241,7.5241,7.5241,7.5241,7.5241,7.5241,7.5241,7.3992,7.2908,7.2908,7.1138,6.9318,6.8194,6.7552,6.6857,6.5858,6.6571,6.8034,7.0282,7.1423,7.285,7.4991,7.5241,7.5241,7.5241,7.5241,7.5241,7.5241,7.5241,7.5241,7.5241,7.5241,7.5241,7.5241,7.5241,7.5241,7.5241,7.5241,7.5241,7.5241,7.5241,7.5776,5.5147,5.5567,5.5765,5.9569,6.0553,6.0553,6.0629,6.0629,6.0629,6.0629,6.0629,6.0629,6.0553,6.0629,6.0629,6.0629,6.0629,6.0866,6.1684,6.1131,6.1608,6.4114,6.3651,6.3836,6.5468,6.5715,6.5715,6.5715,6.5715,6.5715,6.5715,6.5608,6.4859,6.3325,6.3619,6.2416,5.9336,5.8209,5.7724,5.7758,5.8107,5.8313,5.8341,5.8834,5.9948,6.1419,6.0511,6.1524,6.3797,6.3989,6.4395,6.5014,6.5969,6.6103,6.5732,6.5715,6.5715,6.5715,6.5715,6.6678,6.7909,6.798,6.914,7.071,7.228,7.2801,7.3064,7.4563,7.4991,7.4991,7.5098,7.5098,7.5134,7.5205,7.5241,7.5241,7.5241,7.3921,7.2708,7.2636,7.0068,6.7909,6.7909,6.6714,6.5715,6.5715,6.5715,6.6857,6.9996,7.0496,7.1709,7.4777,7.5205,7.5241,7.5241,7.5241,7.5241,7.5241,7.5241,7.5241,7.5241,7.5241,7.5241,7.5241,7.5241,7.5241,7.5241,7.5241,7.5241,7.5241,7.5241,7.5241,5.3282,5.4452,5.5648,5.863,5.9323,5.9595,6.0476,6.0629,6.0629,6.0629,6.0629,6.0366,5.9515,6.0022,6.0629,6.0629,6.0629,6.0705,6.0941,6.0748,6.1165,6.2381,6.2915,6.3589,6.4735,6.5326,6.5715,6.5715,6.5715,6.5715,6.5715,6.4609,6.3254,6.1684,6.0614,5.9131,5.7197,5.7239,5.7443,5.7724,5.7822,5.8045,5.8313,5.8462,5.8945,5.9799,6.038,6.1025,6.1683,6.2525,6.3658,6.4908,6.4771,6.5401,6.6235,6.585,6.5715,6.5715,6.5715,6.5965,6.65,6.7624,6.8301,6.8997,7.0639,7.1138,7.1245,7.1637,7.1744,7.1994,7.3172,7.3457,7.3778,7.4955,7.5241,7.5241,7.5241,7.31,7.0781,6.9533,6.7677,6.6286,6.6286,6.5965,6.5715,6.5715,6.5715,6.6429,6.8462,6.9782,7.1316,7.3279,7.4527,7.5241,7.5241,7.5241,7.5241,7.5241,7.5241,7.5241,7.5241,7.5241,7.5241,7.5241,7.5241,7.5241,7.5241,7.5241,7.5241,7.5241,7.5241,7.5241,5.0437,5.1919,5.4232,5.7976,5.8555,5.8555,6.0289,5.9865,5.9242,5.9754,5.9483,5.8885,5.8305,5.908,5.9833,5.9833,6.0289,6.0629,6.0629,6.0629,6.109,6.2279,6.2883,6.3651,6.4905,6.5468,6.5715,6.5715,6.5715,6.5394,6.4716,6.4502,6.304,6.0078,5.9829,5.8651,5.6359,5.6675,5.6896,5.7143,5.737,5.769,5.8076,5.8255,5.8462,5.8796,5.9262,5.9699,6.0131,6.0802,6.179,6.2855,6.3566,6.4316,6.5191,6.5813,6.6064,6.6064,6.6064,6.6064,6.6159,6.6767,6.7035,6.7321,6.8962,6.9461,6.9604,7.0353,7.0567,7.0746,7.1637,7.1852,7.2066,7.2957,7.3172,7.3172,7.3172,7.1816,7.0068,6.8336,6.6786,6.5715,6.5715,6.5715,6.5715,6.5715,6.5715,6.6286,6.7837,6.889,7.0317,7.2601,7.3671,7.4492,7.5169,7.5241,7.5241,7.5241,7.5241,7.5241,7.5241,7.5241,7.5241,7.5241,7.5241,7.5241,7.5241,7.5241,7.5241,7.5241,7.5241,7.5241,4.8161,4.9372,5.222,5.6922,5.7477,5.7508,5.9675,5.8638,5.7422,5.8472,5.7766,5.6898,5.6659,5.7734,5.872,5.8885,5.9754,6.0476,6.0629,6.0629,6.1238,6.2652,6.3014,6.3775,6.5181,6.5575,6.5715,6.5715,6.5715,6.5109,6.3789,6.4788,6.3432,5.9151,6.0114,5.9329,5.6359,5.6359,5.6359,5.6404,5.6808,5.7256,5.7656,5.8014,5.8197,5.8226,5.7891,5.8181,5.8882,5.9122,5.9476,6.0069,6.2087,6.3054,6.3589,6.5488,6.6298,6.6479,6.657,6.6651,6.6515,6.5965,6.5835,6.6033,6.7321,6.7695,6.807,6.9497,6.9925,6.9961,7.0175,7.0246,7.0282,7.0496,7.021,6.9925,6.9925,6.9925,6.9461,6.798,6.6643,6.5715,6.5715,6.5715,6.5715,6.5715,6.5715,6.6179,6.7517,6.7873,6.9211,7.2244,7.2801,7.3528,7.5098,7.5241,7.5241,7.5241,7.5241,7.5241,7.5241,7.5241,7.5241,7.5241,7.5241,7.5241,7.5241,7.5241,7.5241,7.5241,7.5241,7.5241,5.0424,5.0286,5.0585,5.3509,5.4992,5.6034,5.7422,5.7422,5.7161,5.7422,5.6574,5.5361,5.4178,5.5881,5.7766,5.872,5.908,5.9515,6.0553,6.0629,6.0781,6.1016,6.2313,6.3273,6.3589,6.4905,6.5715,6.5715,6.5715,6.5573,6.5323,6.4324,6.2825,6.0685,5.965,5.8223,5.6359,5.6359,5.6359,5.6359,5.6493,5.6766,5.7254,5.7294,5.7516,5.7822,5.7758,5.7658,5.7516,5.788,5.8381,5.9006,5.981,6.1466,6.3446,6.4262,6.5392,6.6524,6.7119,6.7243,6.7161,6.6561,6.6329,6.6307,6.6156,6.6108,6.6179,6.6464,6.6536,6.6821,6.8141,6.8443,6.8855,7.0246,6.8498,6.6536,6.6536,6.6536,6.6464,6.6179,6.5894,6.5715,6.5715,6.5715,6.5715,6.5715,6.5715,6.5787,6.6072,6.7249,6.8819,7.0746,7.2101,7.3528,7.5098,7.5241,7.5241,7.5241,7.5241,7.5241,7.5241,7.5241,7.5241,7.5241,7.5241,7.5241,7.5241,7.5241,7.5241,7.5241,7.5241,7.5241,4.6864,4.7207,4.823,4.9039,5.1309,5.4038,5.6601,5.6184,5.4749,5.26,5.226,5.2307,5.2307,5.3891,5.5517,5.6867,5.8105,5.908,5.9675,5.9667,5.9999,6.1072,6.1736,6.2227,6.2629,6.4501,6.5358,6.4574,6.4502,6.4145,6.3289,6.254,6.1077,5.8687,5.8651,5.7974,5.6359,5.6359,5.6359,5.6359,5.6359,5.6501,5.6724,5.6724,5.6978,5.7407,5.7407,5.7443,5.748,5.7443,5.7611,5.7953,5.8736,5.9812,6.1209,6.3682,6.4993,6.5878,6.7339,6.7855,6.7708,6.6747,6.6479,6.6376,6.585,6.5715,6.5715,6.5715,6.5715,6.5894,6.6643,6.6821,6.7035,6.7856,6.6821,6.5715,6.5715,6.5715,6.5715,6.5715,6.5715,6.5715,6.5715,6.5715,6.5715,6.5715,6.5715,6.5715,6.5715,6.6357,6.7463,6.9069,7.071,7.228,7.3885,7.4777,7.5241,7.5241,7.5241,7.5241,7.5241,7.5241,7.5241,7.5241,7.5241,7.5241,7.5241,7.5241,7.5241,7.5241,7.5241,7.5241,4.474,4.5442,4.7134,4.6811,4.8468,5.1095,5.436,5.3869,5.1705,4.8212,4.8485,4.9584,5.0462,5.1874,5.3339,5.4676,5.6955,5.8638,5.8885,5.8923,5.9644,6.1336,6.1495,6.1728,6.2335,6.4364,6.5073,6.3503,6.3396,6.2683,6.1113,6.1006,5.9757,5.6975,5.8081,5.7974,5.6359,5.6359,5.6359,5.6359,5.6359,5.6359,5.6359,5.6359,5.6589,5.6973,5.6973,5.714,5.7407,5.7137,5.6973,5.7077,5.7905,5.8437,5.9112,6.2506,6.421,6.5018,6.6997,6.7838,6.7962,6.7124,6.6659,6.6423,6.5965,6.5783,6.5715,6.5715,6.5715,6.5715,6.5715,6.5715,6.5715,6.5715,6.5715,6.5715,6.5715,6.5715,6.5715,6.5715,6.5715,6.5715,6.5715,6.5715,6.5715,6.5715,6.5715,6.5715,6.5715,6.5715,6.6322,6.7837,6.9247,7.0639,7.2244,7.3814,7.4706,7.4706,7.5027,7.5241,7.5241,7.5241,7.5241,7.5241,7.5241,7.5241,7.5241,7.5241,7.5241,7.5241,7.5241,7.5241,5.0012,4.9661,4.9355,5.0345,4.8331,4.6464,4.8128,4.9168,4.9342,4.7624,4.8447,4.9045,4.7865,4.9905,5.206,5.331,5.5608,5.768,5.872,5.9814,6.0574,6.0748,6.204,6.3002,6.3066,6.4686,6.5073,6.3503,6.3396,6.2683,6.1113,6.1006,6.0257,5.8544,5.8651,5.7974,5.6359,5.6359,5.6359,5.6359,5.6359,5.6359,5.6359,5.6359,5.6404,5.6448,5.6448,5.6457,5.6501,5.6457,5.6448,5.6448,5.6546,5.7474,5.8815,5.9661,6.1753,6.4384,6.5524,6.6632,6.7557,6.7962,6.7366,6.6515,6.6423,6.6064,6.5715,6.5715,6.5715,6.5715,6.5715,6.5715,6.5715,6.5715,6.5715,6.5715,6.5715,6.5715,6.5715,6.5715,6.5715,6.5715,6.5715,6.5715,6.5715,6.5715,6.5715,6.5715,6.5715,6.5715,6.6322,6.7837,6.8158,6.8962,7.0639,7.2208,7.31,7.31,7.4456,7.5241,7.5241,7.5241,7.5241,7.5241,7.5241,7.5241,7.5241,7.5241,7.5241,7.5241,7.5241,7.5241,4.4311,4.5796,4.7428,4.6295,4.6955,4.7669,4.7171,4.5925,4.4818,4.4945,4.6621,4.7865,4.7332,4.8828,5.0617,5.2032,5.3727,5.5486,5.7563,5.8067,5.8858,6.0454,6.0912,6.122,6.1706,6.3733,6.4135,6.2098,6.1969,6.1291,5.9722,5.8758,5.7974,5.7331,5.7331,5.6965,5.6359,5.6359,5.6359,5.6359,5.6359,5.6359,5.6359,5.6359,5.6359,5.6359,5.6359,5.6359,5.6359,5.6359,5.6359,5.6359,5.6359,5.6751,5.7448,5.8969,6.0261,6.1721,6.4324,6.5536,6.6085,6.6917,6.6834,6.6423,6.6078,6.585,6.5715,6.5715,6.5715,6.5715,6.5715,6.5715,6.5715,6.5715,6.5715,6.5715,6.5715,6.5715,6.5715,6.5715,6.5715,6.5715,6.5715,6.5715,6.5715,6.5715,6.5715,6.5715,6.5715,6.5715,6.5929,6.6571,6.7445,6.8301,6.8997,7.0531,7.1852,7.2872,7.3457,7.3814,7.3814,7.3814,7.4242,7.5205,7.5241,7.5241,7.5241,7.5241,7.5241,7.5241,7.5241,7.5241,4.2245,4.4129,4.6368,4.4602,4.5614,4.6879,4.6731,4.3801,4.1813,4.4062,4.5559,4.6542,4.6542,4.7728,4.9262,5.0672,5.225,5.4148,5.6779,5.7252,5.8194,6.0421,6.0457,6.0619,6.1465,6.3332,6.3579,6.1207,6.1006,6.015,5.8116,5.701,5.6359,5.6359,5.6359,5.6359,5.6359,5.6359,5.6359,5.6359,5.6359,5.6359,5.6359,5.6359,5.6359,5.6359,5.6359,5.6359,5.6359,5.6359,5.6359,5.6359,5.6359,5.6359,5.6556,5.8038,5.8849,5.9661,6.237,6.3796,6.4619,6.57,6.6162,6.6223,6.6015,6.5799,6.5715,6.5715,6.5715,6.5715,6.5715,6.5715,6.5715,6.5715,6.5715,6.5715,6.5715,6.5715,6.5715,6.5715,6.5715,6.5715,6.5715,6.5715,6.5715,6.5715,6.5715,6.5715,6.5715,6.5715,6.5715,6.5715,6.6714,6.7356,6.7356,6.8855,7.0282,7.1352,7.1923,7.2173,7.2173,7.2601,7.3386,7.4492,7.4991,7.5241,7.5241,7.5241,7.5241,7.5241,7.5241,7.5241,4.7166,4.7119,4.735,4.7842,4.4603,4.2197,4.5887,4.3059,4.1151,4.6124,4.597,4.4976,4.4976,4.6199,4.7754,4.9153,5.1513,5.4148,5.6779,5.8105,5.9323,6.0553,6.1358,6.2176,6.3045,6.3958,6.3579,6.1207,6.1006,5.9686,5.6537,5.6359,5.6359,5.6359,5.6359,5.6359,5.6359,5.6359,5.6359,5.6359,5.6359,5.6359,5.6359,5.6359,5.6359,5.6359,5.6359,5.6359,5.6359,5.6359,5.6359,5.6359,5.6359,5.6359,5.6359,5.6404,5.7403,5.878,5.933,6.1242,6.3573,6.46,6.5264,6.5835,6.6329,6.6078,6.5715,6.5715,6.5715,6.5715,6.5715,6.5715,6.5715,6.5715,6.5715,6.5715,6.5715,6.5715,6.5715,6.5715,6.5715,6.5715,6.5715,6.5715,6.5715,6.5715,6.5715,6.5715,6.5715,6.5715,6.5715,6.5715,6.5715,6.5715,6.5715,6.7178,6.8051,6.8051,6.9675,7.0567,7.0567,7.2066,7.2908,7.2944,7.442,7.5241,7.5241,7.5241,7.5241,7.5241,7.5241,7.5241,4.4733,4.5918,4.6897,4.6064,4.4214,4.343,4.68,4.6047,4.5043,4.6755,4.6574,4.5549,4.3677,4.3989,4.4896,4.5987,4.8642,5.1761,5.5182,5.6862,5.844,6.0443,6.0899,6.0991,6.0821,6.15,6.1045,5.8818,5.9126,5.8544,5.6466,5.6359,5.6359,5.6359,5.6359,5.6359,5.6359,5.6359,5.6359,5.6359,5.6359,5.6359,5.6359,5.6359,5.6359,5.6359,5.6359,5.6359,5.6359,5.6359,5.6359,5.6359,5.6359,5.6359,5.6359,5.6359,5.6644,5.726,5.8523,5.948,6.0554,6.3058,6.3992,6.4375,6.5578,6.5835,6.5715,6.5715,6.5715,6.5715,6.5715,6.5715,6.5715,6.5715,6.5715,6.5715,6.5715,6.5715,6.5715,6.5715,6.5715,6.5715,6.5715,6.5715,6.5715,6.5715,6.5715,6.5715,6.5715,6.5715,6.5715,6.5715,6.5715,6.5715,6.5715,6.6143,6.6893,6.7944,6.7535,6.7713,6.8819,6.9318,7.0639,7.2872,7.335,7.4135,7.5241,7.5241,7.5241,7.5241,7.5241,7.5241,4.633,4.7803,4.8845,4.6866,4.4972,4.431,4.7152,4.6244,4.5307,4.7166,4.6734,4.5441,4.3803,4.3772,4.4114,4.461,4.7625,5.1108,5.4502,5.618,5.8021,6.0366,6.0169,5.975,5.9707,5.9886,5.9342,5.7664,5.8283,5.8045,5.643,5.6359,5.6359,5.6359,5.6359,5.6359,5.6359,5.6359,5.6359,5.6359,5.6359,5.6359,5.6359,5.6359,5.6359,5.6359,5.6359,5.6359,5.6359,5.6359,5.6359,5.6359,5.6359,5.6359,5.6359,5.6359,5.6359,5.6501,5.751,5.8223,5.9008,6.1006,6.2005,6.279,6.436,6.4823,6.4966,6.5537,6.5715,6.5715,6.5715,6.5715,6.5715,6.5715,6.5715,6.5715,6.5715,6.5715,6.5715,6.5715,6.5715,6.5715,6.5715,6.5715,6.5715,6.5715,6.5715,6.5715,6.5715,6.5715,6.5715,6.5715,6.5715,6.5715,6.5715,6.5715,6.6108,6.7107,6.625,6.6143,6.7142,6.7695,6.8997,7.0995,7.1673,7.2743,7.4349,7.4349,7.4634,7.5241,7.5241,7.5241,5.0955,5.1841,5.226,4.9475,4.6989,4.5713,4.7522,4.5002,4.3492,4.7751,4.6854,4.5247,4.5155,4.4947,4.4659,4.4586,4.8166,5.1991,5.474,5.6515,5.8273,6.053,5.961,5.9022,5.9538,5.9038,5.8374,5.749,5.8128,5.7902,5.643,5.6359,5.6359,5.6359,5.6359,5.6359,5.6359,5.6359,5.6359,5.6359,5.6359,5.6359,5.6359,5.6359,5.6359,5.6359,5.6359,5.6359,5.6359,5.6359,5.6359,5.6359,5.6359,5.6359,5.6359,5.6359,5.6359,5.6359,5.6359,5.7331,5.8544,5.8651,5.9686,6.1149,6.2754,6.3218,6.3539,6.5109,6.5537,6.5537,6.5537,6.5608,6.5715,6.5715,6.5715,6.5715,6.5715,6.5715,6.5715,6.5715,6.5715,6.5715,6.5715,6.5715,6.5715,6.5715,6.5715,6.5715,6.5715,6.5715,6.5715,6.5715,6.5715,6.5715,6.5715,6.5715,6.5715,6.5715,6.5715,6.5715,6.5715,6.7107,6.7909,6.8016,6.9568,7.1138,7.2708,7.2708,7.3457,7.492,7.5027,7.5003,5.1493,5.137,5.0896,4.9344,5.17,5.422,5.3321,5.1682,5.0401,5.0754,4.979,4.8198,4.5682,4.408,4.3165,4.3356,4.7737,5.2482,5.6125,5.8758,6.0767,6.2102,6.1977,6.1045,5.895,5.8623,5.8022,5.6761,5.6808,5.6751,5.6359,5.6359,5.6359,5.6359,5.6359,5.6359,5.6359,5.6359,5.6359,5.6359,5.6359,5.6359,5.6359,5.6359,5.6359,5.6359,5.6359,5.6359,5.6359,5.6359,5.6359,5.6359,5.6359,5.6359,5.6359,5.6359,5.6359,5.6359,5.6359,5.6573,5.7072,5.833,5.8972,5.9543,6.1113,6.1577,6.1898,6.3468,6.3931,6.3931,6.3931,6.4823,6.5715,6.5715,6.5715,6.5715,6.5715,6.5715,6.5715,6.5715,6.5715,6.5715,6.5715,6.5715,6.5715,6.5715,6.5715,6.5715,6.5715,6.5715,6.5715,6.5715,6.5715,6.5715,6.5715,6.5715,6.5715,6.5715,6.5715,6.5715,6.5715,6.6072,6.6821,6.798,6.8408,6.9461,7.1102,7.1102,7.1281,7.1673,7.285,7.3054,5.3871,5.4116,5.395,5.204,5.4067,5.5977,5.381,5.251,5.1717,5.1309,5.0202,4.8987,4.7949,4.644,4.5584,4.652,4.9745,5.3037,5.5831,5.7959,6.0167,6.2495,6.1583,6.0202,5.8689,5.8592,5.7747,5.5513,5.6639,5.7153,5.6395,5.6359,5.6359,5.6359,5.6359,5.6359,5.6359,5.6359,5.6359,5.6359,5.6359,5.6359,5.6359,5.6359,5.6359,5.6359,5.6359,5.6359,5.6359,5.6359,5.6359,5.6359,5.6359,5.6359,5.6359,5.6359,5.6359,5.6359,5.6359,5.6359,5.6501,5.7367,5.7652,5.7938,5.9472,5.9971,6.0292,6.1862,6.1791,6.1398,6.2112,6.3468,6.4645,6.4645,6.518,6.5715,6.5715,6.5715,6.5715,6.5715,6.5715,6.5715,6.5715,6.5715,6.5715,6.5715,6.5715,6.5715,6.5715,6.5715,6.5715,6.5715,6.5715,6.5715,6.5715,6.5715,6.5715,6.5715,6.5715,6.5715,6.5715,6.5715,6.6108,6.6964,6.7,6.7586,6.8845,6.9223,6.9579,6.9966,7.1274,7.1514,5.6725,5.7938,5.8672,5.6504,5.6275,5.5947,5.355,5.2279,5.1605,5.1505,5.0354,4.9732,5.1071,5.0128,4.9616,5.1438,5.2365,5.3451,5.5451,5.6882,5.8999,6.2364,6.0629,5.9084,5.8887,5.8995,5.791,5.5122,5.7252,5.8045,5.643,5.6359,5.6359,5.6359,5.6359,5.6359,5.6359,5.6359,5.6359,5.6359,5.6359,5.6359,5.6359,5.6359,5.6359,5.6359,5.6359,5.6359,5.6359,5.6359,5.6359,5.6359,5.6359,5.6359,5.6359,5.6359,5.6359,5.6359,5.6359,5.6359,5.6359,5.6359,5.6359,5.6608,5.7974,5.8366,5.8651,5.9936,5.9543,5.9008,6.0328,6.1827,6.304,6.304,6.4038,6.5073,6.5287,6.5358,6.5394,6.5644,6.5715,6.5715,6.5715,6.5715,6.5715,6.5715,6.5715,6.5715,6.5715,6.5715,6.5715,6.5715,6.5715,6.5715,6.5715,6.5715,6.5715,6.5715,6.5715,6.5715,6.5715,6.5715,6.5715,6.5715,6.5715,6.6,6.6528,6.7181,6.7761,6.8336,6.9447,6.9914,5.8334,5.9827,6.1494,6.2052,6.2012,6.1488,6.0036,5.8564,5.6819,5.4642,5.4188,5.4093,5.406,5.3019,5.2684,5.415,5.2885,5.3345,5.7986,5.9805,6.1114,6.2593,6.2372,6.1616,6.0432,6.0416,5.9748,5.7972,5.8347,5.8045,5.643,5.6359,5.6359,5.6359,5.6359,5.6359,5.6359,5.6359,5.6359,5.6359,5.6359,5.6359,5.6359,5.6359,5.6359,5.6359,5.6359,5.6359,5.6359,5.6359,5.6359,5.6359,5.6359,5.6359,5.6359,5.6359,5.6359,5.6359,5.6359,5.6359,5.6359,5.6359,5.6359,5.6395,5.6644,5.6715,5.6751,5.7046,5.7867,5.8758,5.9008,6.0221,6.1363,6.1363,6.1577,6.2112,6.3468,6.3753,6.411,6.5465,6.5715,6.5715,6.5715,6.5715,6.5715,6.5715,6.5715,6.5715,6.5715,6.5715,6.5715,6.5715,6.5715,6.5715,6.5715,6.5715,6.5715,6.5715,6.5715,6.5715,6.5715,6.5715,6.5715,6.5715,6.5715,6.5468,6.4913,6.5029,6.4723,6.4125,6.6357,6.6951,6.0307,6.1544,6.2852,6.3404,6.3696,6.359,6.2706,6.0689,5.8722,5.7573,5.6177,5.5486,5.6577,5.6634,5.6897,5.8088,5.7814,5.7845,5.9113,5.9683,6.0668,6.2542,6.2076,6.1353,6.0695,6.1532,6.115,5.8753,6.0229,6.0542,5.8972,5.8901,5.8509,5.7652,5.7652,5.7652,5.7652,5.6832,5.6359,5.6359,5.6359,5.6359,5.6359,5.6359,5.6359,5.6359,5.6359,5.6359,5.6359,5.6359,5.6359,5.6359,5.6359,5.6359,5.6359,5.6359,5.6359,5.6359,5.6359,5.6359,5.6359,5.6359,5.6359,5.6359,5.6359,5.6359,5.6359,5.6359,5.6858,5.7438,5.7438,5.8616,5.9757,5.9757,6.0399,6.122,6.1934,6.2112,6.2576,6.4145,6.4431,6.4716,6.5537,6.5715,6.5715,6.5715,6.5715,6.5715,6.5715,6.5715,6.5715,6.5715,6.5715,6.5715,6.5715,6.4869,6.4527,6.5052,6.4585,6.4757,6.5627,6.5271,6.5271,6.5715,6.5271,6.4678,6.3775,6.3775,6.3336,6.2483,6.4125,6.4914,6.2458,0.0,6.3561,6.3753,6.4498,6.4911,0.0,6.2172,6.055,5.9806,5.7968,5.6917,5.821,5.9419,6.0395,6.0841,6.1471,6.1213,5.9449,5.9023,5.9838,6.249,6.1484,6.0761,6.109,6.2169,6.1818,5.9363,6.1633,6.2481,6.1113,6.1006,6.0471,5.9294,5.9258,5.9079,5.8723,5.7153,5.6359,5.6359,5.6359,5.6359,5.6359,5.6359,5.6359,5.6359,5.6359,5.6359,5.6359,5.6359,5.6359,5.6359,5.6359,5.6359,5.6359,5.6359,5.6359,5.6359,5.6359,5.6359,5.6359,5.6359,5.6359,5.6359,5.6359,5.6359,5.6359,5.6359,5.6359,5.6359,5.6359,5.7296,5.8188,5.8188,5.9079,6.0043,6.0399,6.0471,6.0935,6.254,6.2825,6.3218,6.4395,6.4895,6.518,6.518,6.5465,6.5715,6.5715,6.5715,6.5715,6.5715,6.5522,6.5415,6.5415,6.4019,6.3463,6.4174,6.3589,6.3836,6.5361,6.4848,6.4905,6.568,6.4905,6.4174,6.3463,6.3079,6.2415,6.1541,6.2483,6.3273,0.0,6.4145,6.3549,6.4296,6.5789,6.6584,6.4723,6.4721,0.0,6.0722,6.0221,6.0065,5.8718,6.0252,6.1441,6.0771,6.0421,5.995,5.9095,5.8867,5.9838,6.249,6.1484,6.1155,6.2549,6.2232,6.1601,6.0744,6.1719,6.1886,6.1077,6.1006,6.097,6.0863,6.0863,6.0185,5.8723,5.7153,5.6359,5.6359,5.6359,5.6359,5.6359,5.6359,5.6359,5.6359,5.6359,5.6359,5.6359,5.6359,5.6359,5.6359,5.6359,5.6359,5.6359,5.6359,5.6359,5.6359,5.6359,5.6359,5.6359,5.6359,5.6359,5.6359,5.6359,5.6359,5.6359,5.6359,5.6359,5.6359,5.6359,5.643,5.6537,5.6537,5.6608,5.7072,5.8544,5.8865,5.9329,6.0899,6.1184,6.122,6.1327,6.2576,6.3575,6.3575,6.4788,6.5715,6.5715,6.5715,6.5715,6.5715,6.5052,6.462,6.462,6.3713,6.3208,6.3273,6.3208,6.3589,6.4562,6.4562,6.4905,6.568,6.4905,6.4504,6.4446,6.2717,6.1503,6.0748,6.1541,6.1933,6.3729,6.3813,6.4173,6.4459,6.5962,6.7152,6.6229,6.5743,6.4994,6.3347,6.1805,6.0652,5.9974,6.1419,6.2515,6.2089,6.2774,6.2892,6.1499,6.1326,6.1355,6.1484,6.0958,6.0859,6.1385,6.2162,6.2544,6.2319,6.3592,6.4278,6.3967,6.3931,6.3468,6.254,6.1541,6.0257,5.8723,5.7153,5.6359,5.6359,5.6359,5.6359,5.6359,5.6359,5.6359,5.6359,5.6359,5.6359,0.0,5.6359,5.6359,5.6359,5.6359,5.6359,5.6359,5.6359,5.6359,5.6359,5.6359,5.6359,5.6359,5.6359,5.6359,5.6359,5.6359,5.6359,5.6359,5.6359,5.6359,5.6359,5.6359,5.6359,5.6359,5.6359,5.6359,5.6501,5.7153,5.726,5.7724,5.9294,5.9579,5.9864,6.0863,6.1505,6.2255,6.3218,6.3896,6.4609,6.5573,6.5715,6.5715,6.5715,6.4996,6.4079,6.298,6.2106,6.1789,6.2347,6.1826,6.2244,6.3651,6.311,6.3238,6.4139,6.3836,6.34,6.2849,6.2176,6.143,6.0629,6.0941,6.1358,6.1206,6.1572,6.216,6.2769,6.4428,6.5947,6.6099,6.578,6.5365,6.5178,6.3262,6.1465,6.1074,6.1994,6.2618,6.2188,6.334,6.3734,6.2276,6.2076,6.1714,6.0761,6.1024,6.1122,6.0662,6.1896,6.2883,6.3144,6.4527,6.5468,6.568,6.5715,6.5002,6.3432,6.1363,5.9793,5.8723,5.7153,5.6359,5.6359,5.6359,5.6359,5.6359,5.6359,5.6359,5.6359,5.6359,5.6359,5.6359,5.6359,5.6359,5.6359,5.6359,5.6359,5.6359,5.6359,5.6359,5.6359,5.6359,5.6359,5.6359,5.6359,5.6359,5.6359,5.6359,5.6359,5.6359,5.6359,5.6359,5.6359,5.6359,5.6359,5.6359,5.6359,5.6359,5.6359,5.6359,5.6359,5.6644,5.7759,5.7974,5.8295,5.9401,5.9971,6.0649,6.1755,6.2326,6.3218,6.4788,6.4966,6.504,6.529,6.4585,6.3111,6.0653,6.0202,6.0205,6.0729,6.0677,6.1279,6.2684,6.2108,6.2245,6.3144,6.2849,6.2449,6.1792,6.1541,6.1172,6.0629,6.0629,6.1173,5.7298,5.7211,5.7014,5.8957,6.1017,6.2833,6.3896,6.4738,6.5462,6.5979,6.4539,6.2889,6.1961,6.1865,6.1541,6.0748,6.1318,6.1541,6.0748,6.0629,6.0629,6.0629,6.1879,6.2175,6.0794,6.1358,6.2176,6.3079,6.4054,6.4848,6.5663,6.568,6.4966,6.3396,6.0328,5.8723,5.8687,5.7153,5.6359,5.6359,5.6359,5.6359,5.6359,5.6359,5.6359,5.6359,5.6359,5.6359,5.6359,5.6359,5.6359,5.6359,5.6359,5.6359,5.6359,5.6359,5.6359,5.6359,5.6359,5.6359,5.6359,5.6359,5.6359,5.6359,5.6359,5.6359,5.6359,5.6359,5.6359,5.6359,5.6359,5.6359,5.6359,5.6359,5.6359,5.6359,5.6359,5.6359,5.6359,5.6359,5.6359,5.6359,5.6359,5.7688,5.8687,5.8723,6.0007,6.1577,6.3132,6.331,6.3621,6.4409,6.3679,6.1617,5.7851,5.8143,5.8492,5.8492,5.9807,6.095,6.1725,6.1725,6.2211,6.3075,6.2211,6.1725,6.1759,6.0983,6.0629,6.0629,6.0629,6.1385,5.4096,5.4311,5.5063,5.6855,5.8941,6.1161,6.3604,6.4686,6.5333,6.5959,6.4524,6.2938,6.197,6.2334,6.2483,6.1613,6.2717,6.3174,6.1684,6.1469,6.1245,6.0705,6.0991,6.1329,6.1464,6.1172,6.1575,6.3079,6.4527,6.5433,6.568,6.4645,6.2861,6.0185,5.9187,5.8188,5.7082,5.6573,5.6359,5.6359,5.6359,5.6359,5.6359,5.6359,5.6359,5.6359,5.6359,5.6359,5.6359,5.6359,5.6359,5.6359,5.6359,5.6359,5.6359,5.6359,5.6359,5.6359,5.6359,5.6359,5.6359,5.6359,5.6359,5.6359,5.6359,5.6359,5.6359,5.6359,5.6359,5.6359,5.6359,5.6359,5.6359,5.6359,5.6359,5.6359,5.6359,5.6359,5.6359,5.6359,5.6359,5.6359,5.6359,5.632,5.6814,5.8415,5.8239,5.8626,6.0793,6.0556,6.036,6.0546,5.9796,5.8494,5.6881,5.693,5.698,5.698,5.7374,5.7716,5.7935,5.7968,5.8076,5.8391,5.8146,5.8465,5.9492,5.9265,5.9643,6.0629,6.0629,6.0859,5.1235,5.1694,5.2862,5.486,5.6413,5.846,6.2344,6.335,6.4092,6.6231,6.4986,6.328,6.2459,6.2244,6.1903,6.0985,6.1795,6.2245,6.1565,6.1091,6.1083,6.1613,6.1016,6.0941,6.1722,6.1358,6.1718,6.3079,6.4757,6.543,6.4823,6.2718,6.0935,5.9686,5.8437,5.7331,5.6359,5.6359,5.6359,5.6359,5.6359,5.6359,5.6359,5.6359,5.6359,5.6359,5.6359,5.6359,5.6359,5.6359,5.6359,5.6359,5.6359,5.6359,5.6359,5.6359,5.6359,5.6359,5.6359,5.6359,5.6359,5.6359,5.6359,5.6359,5.6359,5.6359,5.6359,5.6359,5.6359,5.6359,5.6359,5.6359,5.6359,5.6359,5.6359,5.6359,5.6359,5.6359,5.6359,5.6359,5.6359,5.6359,5.6359,5.5977,5.6072,5.7171,5.6596,5.6643,5.8408,5.8246,5.8047,5.833,5.6535,5.5121,5.4615,5.5106,5.5434,5.5434,5.5993,5.6393,5.6393,5.6393,5.6393,5.6393,5.6393,5.6782,5.7637,5.7637,5.8098,5.8952,5.9544,5.9807,4.8568,4.9203,5.0334,5.2797,5.3518,5.5051,6.0512,6.1349,6.2219,6.6566,6.5591,6.379,6.3255,6.1735,6.0353,5.9706,5.9573,5.9838,6.0841,6.0269,6.055,6.2743,6.1718,6.1016,6.1722,6.1792,6.2245,6.3208,6.4559,6.4807,6.3468,6.0542,5.9508,6.0756,5.8081,5.6644,5.6832,5.6644,5.6573,5.6573,5.6573,5.6501,5.6359,5.6359,5.6359,5.6359,5.6359,5.6359,5.6359,5.6359,5.6359,5.6359,5.6359,5.6359,5.6359,5.6359,5.6359,5.6359,5.6359,5.6359,5.6359,5.6359,5.6359,5.6359,5.6359,5.6359,5.6359,5.6359,5.6359,5.6359,5.6359,5.6359,5.6359,5.6359,5.6359,5.6359,5.6278,5.6278,5.6233,5.6187,5.6187,5.6187,5.6187,5.6141,5.5836,5.5194,5.5007,5.5236,5.6108,5.6166,5.6329,5.6977,5.3926,5.1883,5.1883,5.31,5.3821,5.3821,5.5171,5.5998,5.5998,5.5998,5.5998,5.5998,5.5998,5.5993,5.6125,5.6125,5.6261,5.6459,5.7703,5.8328,4.5211,4.5845,4.7211,4.9577,5.0362,5.2426,5.9547,6.0785,6.1774,6.646,6.5606,6.3784,6.3282,6.1325,6.001,6.0466,6.0216,6.0372,6.173,6.1695,6.177,6.2075,6.1826,6.1613,6.1792,6.1792,6.2516,6.4114,6.3439,6.3107,6.3346,6.1577,6.0114,5.9222,5.8544,5.8794,6.0007,5.883,5.8223,5.8223,5.8223,5.7581,5.6359,5.6359,5.6359,5.6359,5.6359,5.6359,5.6359,5.6359,5.6359,5.6359,5.6359,5.6359,5.6359,5.6359,5.6359,5.6359,5.6359,5.6359,5.6359,5.6359,5.6359,5.6359,5.6359,5.6359,5.6359,5.6359,5.6359,5.6359,5.6359,5.6359,5.6359,5.6359,5.6359,5.6233,5.5609,5.5477,5.5329,5.4819,5.4714,5.4714,5.4714,5.4193,5.388,5.4358,5.3363,5.2897,5.3718,5.3299,5.293,5.3067,5.2376,5.1883,5.1883,5.2179,5.2377,5.2377,5.2672,5.2837,5.2837,5.2837,5.2837,5.2837,5.2837,5.3396,5.4579,5.4579,5.5171,5.6393,5.6651,5.6815,4.4575,4.4684,4.5416,4.7922,4.8344,4.968,5.5439,5.6752,5.8292,6.3632,6.3494,6.2547,6.3091,6.123,5.9666,5.9734,5.8927,5.9076,6.1358,6.1301,6.1602,6.2963,6.2381,6.1792,6.1792,6.1792,6.2381,6.3775,6.2836,6.2537,6.3346,6.1898,6.0649,5.9864,5.9079,5.9079,5.99,5.9115,5.9079,5.9829,5.9829,5.9401,5.8616,5.8616,5.8223,5.751,5.751,5.7082,5.6359,5.6359,5.6359,5.6359,5.6359,5.6359,5.6359,5.6359,5.6359,5.6359,5.6359,5.6359,5.6359,5.6359,5.6359,5.6359,5.6359,5.6359,5.6359,5.6359,5.6359,5.6359,5.6359,5.6359,5.6359,5.6359,5.6105,5.5706,5.5294,5.4956,5.4626,5.4283,5.4228,5.4228,5.4228,5.3892,5.3629,5.3629,5.3013,5.2458,5.2458,5.2174,5.1883,5.1883,5.1883,5.1883,5.1883,5.1883,5.1883,5.1883,5.1883,5.1883,5.1883,5.1883,5.1883,5.1883,5.1883,5.2278,5.3034,5.3034,5.3429,5.4218,5.4941,5.5237,4.4019,4.3671,4.406,4.6494,4.6882,4.7668,5.1416,5.271,5.4625,5.9778,6.0733,6.0979,6.2147,6.0462,5.889,5.8959,5.7242,5.7234,6.0539,6.0491,6.1032,6.357,6.2572,6.1658,6.1579,6.1863,6.2313,6.3144,6.2078,6.1727,6.2526,6.1077,6.0471,6.1006,5.9757,5.9365,5.99,5.965,6.015,6.1434,6.1434,6.1291,6.1006,6.0756,5.9936,5.8687,5.8437,5.7581,5.6359,5.6359,5.6359,5.6359,5.6359,5.6359,5.6359,5.6359,5.6359,5.6359,5.6359,5.6359,5.6359,5.6359,5.6359,5.6359,5.6359,5.6359,5.6359,5.6359,5.6359,5.6323,5.6233,5.6187,5.6105,5.6013,5.5512,5.5042,5.5042,5.452,5.4005,5.3892,5.3801,5.3801,5.3801,5.3801,5.3571,5.2952,5.2891,5.2645,5.2014,5.1883,5.1883,5.1883,5.1883,5.1883,5.1883,5.1883,5.1883,5.1883,5.1883,5.1883,5.1883,5.1883,5.1883,5.1883,5.1883,5.1883,5.1883,5.1883,5.1883,5.1916,5.3396,5.3887,3.9584,4.0308,4.2008,4.3659,4.5546,4.8034,5.1865,5.3199,5.4218,5.6479,5.889,6.033,5.9306,5.7415,5.6942,6.0013,5.7245,5.6178,6.0435,6.0923,6.1004,6.1254,6.1137,6.0946,6.0833,6.2106,6.3079,6.3144,6.0071,5.852,5.9282,5.7867,5.8259,6.0935,6.0828,6.2005,6.4752,6.3432,6.2897,6.3075,6.3075,6.2362,6.097,5.965,5.8901,5.8651,5.7296,5.6537,5.6359,5.6359,5.6359,5.6359,5.6359,5.6359,5.6359,5.6359,5.6359,5.6359,5.6359,5.6359,5.6359,5.6359,5.6359,5.6359,5.6359,5.6359,5.6359,5.6359,5.6359,5.6233,5.5526,5.5343,5.5194,5.4661,5.4446,5.4392,5.4392,5.3744,5.3013,5.2365,5.2238,5.2238,5.2238,5.2238,5.2174,5.2078,5.2078,5.2014,5.1883,5.1883,5.1883,5.1883,5.1883,5.1883,5.1883,5.1883,5.1883,5.1883,5.1883,5.1883,5.1883,5.1883,5.1883,5.1883,5.1883,5.1883,5.1883,5.1883,5.1883,5.1916,5.3396,5.3396,3.7363,3.7343,3.7996,3.9421,4.155,4.3663,4.5414,4.7688,5.0075,5.2631,5.5879,5.8406,5.9077,5.7121,5.5936,5.7405,5.4325,5.2839,5.6084,5.6888,5.7408,5.8219,5.9518,5.9904,5.8852,6.0682,6.1716,6.1345,5.9384,5.8709,5.9971,5.8544,5.8723,6.0935,6.1006,6.1684,6.3075,6.2397,6.2504,6.3361,6.2469,6.1684,6.1006,6.122,6.0364,5.8723,5.8901,5.8009,5.6359,5.6359,5.6359,5.6359,5.6359,5.6359,5.6359,5.6359,5.6359,5.6359,5.6359,5.6359,5.6359,5.6359,5.6359,5.6359,5.6359,5.6359,5.6359,5.6359,5.6059,5.5622,5.5294,5.494,5.4573,5.4283,5.3892,5.3571,5.3571,5.2952,5.2302,5.1949,5.1883,5.1883,5.1883,5.1883,5.1883,5.1883,5.1883,5.1883,5.1883,5.1883,5.1883,5.1883,5.1883,5.1883,5.1883,5.1883,5.1883,5.1883,5.1883,5.1883,5.1883,5.1883,5.1883,5.1883,5.1883,5.1883,5.1883,5.2705,5.3133,5.3166,5.4645,5.5007,3.5954,3.4988,3.4384,3.5323,3.7732,3.9825,3.9755,4.2536,4.5712,4.7641,5.1751,5.5288,5.6312,5.531,5.4405,5.469,5.1688,5.0266,5.2707,5.3511,5.4209,5.5301,5.6964,5.7573,5.6581,5.8618,5.9401,5.7909,5.7609,5.8009,5.9187,5.8544,5.883,6.0399,6.0435,6.0614,6.1006,6.1398,6.2219,6.3361,6.1755,6.1006,6.1042,6.1827,6.0935,5.8758,5.9508,5.8544,5.6359,5.6359,5.6359,5.6359,5.6359,5.6359,5.6359,5.6359,5.6359,5.6359,5.6359,5.6359,5.6359,5.6359,5.6359,5.6359,5.6359,5.6359,5.6359,5.6359,5.5801,5.5194,5.4956,5.4466,5.3892,5.3687,5.3193,5.2769,5.2769,5.2302,5.1883,5.1883,5.1883,5.1883,5.1883,5.1883,5.1883,5.1883,5.1883,5.1883,5.1883,5.1883,5.1883,5.1883,5.1883,5.1883,5.1883,5.1883,5.1883,5.1883,5.1883,5.1883,5.1883,5.1883,5.1883,5.1883,5.2245,5.2442,5.2442,5.3922,5.4645,5.4678,5.6191,5.6684,3.5245,3.3476,3.2309,3.1852,3.5281,3.8635,3.8333,4.0427,4.2209,4.1019,4.6255,5.0408,4.8244,4.9757,5.1746,5.3141,5.0912,4.9943,5.2674,5.3085,5.3058,5.2889,5.2994,5.3288,5.3954,5.6269,5.6166,5.2389,5.3478,5.4299,5.437,5.5762,5.7224,5.8794,5.883,5.9543,6.1006,6.254,6.3325,6.3361,6.1755,6.1006,6.097,5.9579,5.8865,5.8651,5.726,5.6501,5.6359,5.6359,5.6359,5.6359,5.6359,5.6359,5.6359,5.6359,5.6359,5.6359,5.6359,5.6359,5.6359,5.6359,5.6359,5.6359,5.6359,5.6359,5.6359,5.6359,5.5801,5.5093,5.4412,5.3687,5.2919,5.2174,5.2014,5.1949,5.1949,5.1949,5.1883,5.1883,5.1883,5.1883,5.1883,5.1883,5.1883,5.1883,5.1883,5.1883,5.1883,5.1883,5.1883,5.1883,5.1883,5.1883,5.1883,5.1883,5.1883,5.1883,5.1883,5.1883,5.1883,5.1883,5.1883,5.1883,5.3264,5.3887,5.392,5.55,5.6223,5.6256,5.7736,5.767,3.261,2.9525,2.6565,2.5773,2.7483,2.9712,3.1371,3.4708,3.762,3.8021,4.3145,4.7235,4.6389,4.8068,4.9355,4.8963,4.8059,4.736,4.7331,4.8042,4.87,4.9128,5.0522,5.1494,5.1723,5.1312,5.0637,4.965,5.1008,5.2103,5.2551,5.3086,5.4121,5.5655,5.6689,5.7974,5.9508,6.1077,6.1363,6.0364,5.8794,5.8045,5.8081,5.8509,5.8188,5.726,5.7688,5.7331,5.6359,5.6359,5.6359,5.6359,5.6359,5.6359,5.6359,5.6359,5.6359,5.6359,5.6359,5.6359,5.6359,5.6359,5.6359,5.6359,5.6359,5.6359,5.6359,5.6359,5.5512,5.452,5.4283,5.3279,5.2238,5.1949,5.1883,5.1883,5.1883,5.1883,5.1883,5.1883,5.1883,5.1883,5.1883,5.1883,5.1883,5.1883,5.1883,5.1883,5.1883,5.1883,5.1883,5.1883,5.1883,5.1883,5.1883,5.1883,5.1883,5.1883,5.1883,5.1883,5.1883,5.1883,5.1883,5.1883,5.333,5.4018,5.4018,5.6552,5.7736,5.7769,5.9215,5.961,3.2143,2.8579,2.4924,2.26,2.3235,2.4703,2.6084,2.9621,3.282,3.3762,3.8646,4.2591,4.2074,4.4255,4.5848,4.4856,4.5237,4.5397,4.449,4.5427,4.63,4.6501,4.7894,4.8808,4.8694,4.7238,4.6782,4.7943,4.901,4.9878,5.0585,5.1089,5.1955,5.3229,5.4798,5.6083,5.7117,5.9222,5.9472,5.7902,5.7438,5.6858,5.6395,5.7438,5.7367,5.6395,5.7474,5.7331,5.6359,5.6359,5.6359,5.6359,5.6359,5.6359,5.6359,5.6359,5.6359,5.6359,5.6359,5.6359,5.6359,5.6359,5.6359,5.6359,5.6359,5.6359,5.6278,5.6059,5.5128,5.4173,5.3915,5.2891,5.1883,5.1883,5.1883,5.1883,5.1883,5.1883,5.1883,5.1883,5.1883,5.1883,5.1883,5.1883,5.1883,5.1883,5.1883,5.1883,5.1883,5.1883,5.1883,5.1883,5.1883,5.1883,5.1883,5.1883,5.1883,5.1883,5.1883,5.1883,5.1883,5.1883,5.1883,5.1883,5.3823,5.4843,5.4843,5.7802,5.8985,5.8558,5.9972,6.0399,3.4045,3.0947,2.7766,2.2819,2.3273,2.4454,2.3129,2.5597,2.8091,2.8091,3.2655,3.6205,3.4681,3.8178,4.1199,4.1149,4.2771,4.4219,4.479,4.5787,4.6107,4.5321,4.5151,4.5142,4.5136,4.4501,4.4973,4.7049,4.7264,4.7643,4.8255,4.9782,5.0928,5.1582,5.3122,5.3906,5.3942,5.7046,5.7831,5.6288,5.7902,5.7831,5.6359,5.6359,5.6359,5.6359,5.6404,5.6404,5.6404,5.6404,5.6404,5.6404,5.6404,5.6359,5.6359,5.6359,5.6404,5.6404,5.6404,5.6359,5.6359,5.6359,5.6359,5.6359,5.6359,5.6359,5.6233,5.5393,5.4732,5.4061,5.3279,5.2458,5.1883,5.1883,5.1883,5.1883,5.1883,5.1883,5.1883,5.1883,5.1883,5.1883,5.1883,5.1883,5.1883,5.1883,5.1883,5.1883,5.1883,5.1883,5.1883,5.1883,5.1883,5.1883,5.1883,5.1883,5.1883,5.1883,5.1883,5.1883,5.1883,5.1883,5.185,5.1818,5.4744,5.6256,5.6191,5.915,5.9765,5.8418,5.983,5.9765,3.6364,3.227,2.8236,2.705,2.5475,2.4439,2.523,2.5506,2.5709,2.5828,2.7646,2.9628,3.0925,3.4169,3.7173,3.8669,4.0799,4.2636,4.4132,4.5014,4.6031,4.7478,4.6723,4.59,4.5436,4.4321,4.4456,4.6495,4.6096,4.5822,4.6004,4.731,4.8452,4.9297,5.0172,5.1195,5.2337,5.4335,5.5119,5.4691,5.6297,5.6751,5.6359,5.6359,5.6359,5.6404,5.6802,5.6932,5.6932,5.6932,5.6932,5.6891,5.6501,5.6359,5.6359,5.6359,5.6632,5.6891,5.6501,5.6359,5.6359,5.6359,5.6359,5.6359,5.6359,5.6359,5.6233,5.5393,5.4732,5.4061,5.3279,5.2458,5.1883,5.1883,5.1883,5.1883,5.1883,5.1883,5.1883,5.1883,5.1883,5.1883,5.1883,5.1883,5.1883,5.1883,5.1883,5.1883,5.1883,5.1883,5.1883,5.1883,5.1883,5.1883,5.1883,5.1883,5.1883,5.1883,5.1883,5.1883,5.1883,5.1883,5.139,5.0371,5.3231,5.3808,5.2177,5.5981,5.6768,5.4769,5.6864,5.7659,3.6628,3.3601,3.031,2.9444,2.7175,2.5293,2.6007,2.5436,2.4853,2.4743,2.5372,2.652,2.8262,3.0237,3.2645,3.5841,3.848,4.0753,4.2649,4.3928,4.511,4.6228,4.6199,4.6155,4.6393,4.4562,4.4087,4.5912,4.4989,4.448,4.4701,4.5645,4.6559,4.7387,4.871,4.9768,5.0696,5.2301,5.305,5.305,5.3978,5.4763,5.5405,5.5405,5.5893,5.6724,5.7179,5.7406,5.7369,5.7215,5.7173,5.7094,5.6589,5.6501,5.6495,5.4992,5.4619,5.4865,5.4528,5.4442,5.4549,5.5191,5.5405,5.5548,5.6145,5.6359,5.6141,5.5093,5.452,5.4005,5.2891,5.2238,5.1883,5.1883,5.1883,5.1883,5.1883,5.1883,5.1883,5.1883,5.1883,5.1883,5.1883,5.1883,5.1883,5.1883,5.1883,5.1883,5.1883,5.1883,5.1981,5.2365,5.2428,5.2521,5.283,5.2583,5.2428,5.2428,5.2045,5.162,5.1029,5.0996,5.0634,4.9779,5.2015,5.2596,5.1431,5.4477,5.4752,5.2454,5.491,5.559,3.5512,3.4721,3.3402,3.1422,2.9296,2.7503,0.0,2.5816,2.5055,2.4523,2.4893,2.5533,2.6286,2.6637,2.814,3.2542,3.5582,3.8215,4.0534,4.2596,4.3656,4.3269,4.4399,4.5789,4.7226,4.4926,4.3933,4.5397,4.419,4.3679,4.4233,4.4804,4.545,4.6173,4.8022,4.9051,4.9129,5.066,5.1445,5.1445,5.1623,5.2444,5.3764,5.3764,5.481,5.663,5.6969,5.7175,5.7208,5.686,5.6747,5.6671,5.6137,5.6227,5.6268,5.29,5.1735,5.1776,5.173,5.173,5.1944,5.33,5.3764,5.4013,5.5352,5.5841,5.5682,5.4258,5.398,5.3744,5.2302,5.1883,5.1883,5.1883,5.1883,5.1883,5.1883,5.1883,5.1883,5.1883,5.1883,5.1883,5.1883,5.1883,5.1949,5.2114,5.2146,5.2146,5.2146,5.1982,5.2174,5.3013,5.3073,5.3396,5.4173,5.3571,5.316,5.304,5.2262,5.1222,4.9845,4.9615,4.9454,4.9391,5.0866,5.1778,5.2015,5.3623,5.3169,5.077,5.3316,5.329,0.0,0.0,0.0,0.0,0.0,0.0,0.0,2.8596,2.5824,2.4438,2.3358,2.3016,2.411,2.3984,2.5081,2.9107,3.0821,3.3314,3.8327,4.0724,4.2037,4.2245,4.3135,4.4301,4.5756,4.4375,4.3933,4.5365,4.4556,4.4331,4.5138,4.514,4.5706,4.6994,4.6795,4.699,4.7485,4.9019,4.9804,4.9843,5.1088,5.1873,5.2158,5.2158,5.2586,5.3262,5.3299,5.371,5.425,5.4202,5.4173,5.4115,5.3371,5.3335,5.3535,5.2198,5.1904,5.2102,5.1821,5.173,5.1766,5.2051,5.2158,5.2111,5.1891,5.2626,5.3288,5.197,5.2399,5.3073,5.211,5.1883,5.1883,5.1883,5.1883,5.1883,5.1883,5.1883,5.1883,5.1883,5.1883,5.1883,5.1883,5.1883,5.2278,5.3494,5.3659,5.3659,5.3659,5.2607,5.2174,5.3013,5.3073,5.3396,5.4173,5.4117,5.3778,5.3133,5.1843,5.0688,4.9779,4.8661,4.7666,4.6814,4.9007,4.9463,4.7987,5.0486,5.049,4.8149,4.9787,4.9837,0.0,0.0,0.0,0.0,0.0,0.0,0.0,0.0,0.0,0.0,0.0,2.3631,2.3994,0.0,2.2343,2.5648,2.7536,3.0216,3.4955,3.8341,4.0379,4.0588,4.1832,4.3144,4.4326,4.3347,4.2951,4.3647,4.332,4.3261,4.3694,4.3612,4.4197,4.5646,4.4901,4.52,4.653,4.7349,4.7894,4.8198,4.8983,4.9768,5.0517,5.0718,5.1453,5.2599,5.2792,5.3251,5.382,5.382,5.3686,5.3232,5.1103,5.0263,5.0162,4.9573,4.9497,4.9649,4.9684,4.9533,4.9522,5.0505,5.0715,5.0579,5.0699,5.1222,5.1535,5.0238,5.0369,5.0768,4.9962,4.9746,4.9746,4.9746,4.9746,4.9746,4.9746,5.0305,5.0831,5.0831,5.139,5.1883,5.1883,5.2142,5.2654,5.3818,5.4711,5.4941,5.4117,5.3429,5.2865,5.2539,5.2483,5.2929,5.4023,5.4157,5.4138,5.4145,5.2401,5.0549,4.8584,4.7601,4.6772,4.6301,4.7872,4.8071,4.6817,4.8938,4.8787,4.6663,4.7889,4.8193,0.0,0.0,0.0,0.0,0.0,0.0,0.0,0.0,0.0,0.0,0.0,0.0,0.0,0.0,0.0,2.2713,2.5013,2.7709,3.133,3.5618,3.8594,3.9226,4.09,4.2259,4.3017,4.2221,4.16,4.1503,4.147,4.1665,4.2088,4.2054,4.2655,4.4082,4.3222,4.3676,4.5675,4.5675,4.6129,4.7021,4.7021,0.0,4.8915,4.9325,5.0421,5.2031,5.2671,5.3289,5.3765,5.4102,5.3763,5.277,4.9616,4.791,4.7172,4.6739,4.6771,4.7095,4.7415,4.7492,4.7774,4.9325,4.9825,4.9867,5.0038,5.0312,0.0,4.8616,4.8316,4.8382,4.7814,4.7636,4.7636,4.7636,4.7636,4.7636,4.7636,4.853,4.945,4.9713,5.0539,5.1326,5.185,5.2177,5.2778,5.3999,5.5447,5.5944,5.4642,5.4215,5.366,5.263,5.2449,5.2909,5.4142,5.3864,5.3973,5.4914,5.2612,4.9771,4.6542,4.5714,4.5464,4.5583,4.6654,4.7241,4.7408,4.8755,4.8436,4.6441,4.5612,4.5755,0.0,0.0,0.0,0.0,0.0,0.0,0.0,0.0,0.0,0.0,0.0,0.0,0.0,0.0,0.0,0.0,2.2834,2.5013,2.8244,3.2397,3.6139,3.8946,4.0889,4.2009,4.2111,4.1198,4.0333,3.9599,3.9567,4.0512,4.2583,4.2241,0.0,0.0,0.0,4.2765,4.4169,4.4134,4.5147,4.7021,4.7021,4.7128,4.7344,4.7702,4.8196,4.8802,5.0617,5.1601,5.212,5.3616,5.3333,5.1685,4.9835,4.7801,4.5804,4.5192,4.5844,4.7021,4.7095,0.0,0.0,4.9346,5.0343,5.0953,4.8523,4.8698,4.9156,4.6566,4.6765,4.7755,4.7636,4.7636,4.7636,4.7636,4.7636,4.7636,4.7636,4.7768,4.8234,4.9516,4.9173,4.9296,5.1523,5.1616,5.206,5.4198,5.5805,5.6606,5.6185,5.4908,5.4258,5.4796,5.4324,0.0,5.4999,5.3175,5.258,5.407,5.0645,4.7072,4.3581,4.2155,4.1795,4.2486,4.4535,4.6803,4.9416,5.0636,5.0346,4.8464,4.0778,3.9336,0.0,0.0,0.0,0.0,0.0,0.0,0.0,0.0,0.0,0.0,0.0,0.0,0.0,0.0,0.0,0.0,2.3469,2.4653,2.7074,3.1725,3.5843,3.8565,4.0624,4.179,4.1675,4.0235,3.8563,3.6695,3.6597,3.6977,3.7934,3.8751,4.0033,4.1945,4.1134,4.1807,4.401,4.4056,4.4429,4.5109,4.5109,4.5297,4.5701,4.6079,4.7468,4.9638,5.0691,5.1341,5.1784,5.2457,5.1784,5.0229,0.0,0.0,0.0,0.0,4.6486,4.7095,4.7548,4.7982,4.8388,4.8625,4.8995,4.9103,4.7747,4.7174,4.6794,4.579,4.5308,4.5143,4.5143,4.5143,4.5143,4.5143,4.5768,4.636,4.636,4.7017,4.7653,4.7808,4.7522,0.0,4.8768,4.9188,5.0272,5.3181,5.6158,5.7667,5.6746,5.6617,5.6116,5.4711,5.3921,5.3705,5.4481,5.3208,0.0,0.0,0.0,4.9142,4.6804,4.5483,0.0,0.0,0.0,4.3231,4.3795,4.2897,0.0,0.0,4.1091,4.0253,0.0,0.0,0.0,0.0,0.0,0.0,0.0,0.0,0.0,0.0,0.0,0.0,0.0,0.0,0.0,0.0,2.496,2.5879,2.7946,3.2118,3.5592,3.7436,4.0492,4.1752,4.0014,3.8403,3.6332,3.3497,3.3003,3.2908,3.3147,3.5268,3.7234,3.8973,3.9294,4.0636,4.3193,4.346,4.3792,4.4366,4.4366,4.4713,4.5344,4.5849,4.748,4.9968,5.089,5.1475,5.1781,5.2307,5.1484,4.993,5.01,4.884,4.6921,4.6916,4.6328,4.5744,4.7256,4.7993,4.8332,4.8731,4.8872,4.8748,4.7729,4.6925,4.6198,4.5602,4.5012,4.4453,4.4058,4.4389,4.4719,4.4354,4.5501,4.6644,4.6644,4.7308,4.7722,4.6868,4.5691,4.4809,4.5062,4.5835,4.7609,5.0927,5.5116,5.7588,5.6852,5.7829,5.7505,5.4936,5.4158,5.388,5.4058,5.2764,5.2324,5.3371,5.1124,4.9525,4.8926,4.7262,4.6422,4.6453,4.3908,4.1869,0.0,0.0,0.0,0.0,0.0,0.0,0.0,0.0,0.0,0.0,0.0,0.0,0.0,0.0,0.0,0.0,0.0,0.0,0.0,0.0,0.0,0.0,0.0,0.0,3.1496,3.3441,3.4744,3.5078,4.0298,4.1772,3.646,3.5322,3.3595,3.0348,2.8979,2.8698,2.9464,3.2786,3.4964,3.5525,3.7386,3.9187,4.092,4.1671,4.336,4.5984,4.5984,4.634,4.6987,4.776,4.815,4.8426,5.0839,5.1862,5.2033,5.3819,5.3466,5.1597,4.9489,4.6625,4.3918,4.5945,4.4587,4.2243,4.5532,4.8066,4.9966,5.0352,5.1214,5.1632,4.8818,4.8651,4.8883,4.6222,4.6425,4.7208,4.5768,4.6989,4.8265,4.6882,4.8131,4.9614,4.9614,4.9153,4.8484,4.76,4.3607,4.0494,4.0768,4.1718,4.3614,4.7406,5.2057,0.0,5.6661,5.7829,5.7933,5.6426,5.626,5.5719,5.4352,5.1323,5.0125,5.1695,4.7485,4.5771,4.7581,4.4876,4.3529,4.4044,4.5413,4.4897,4.2454,0.0,0.0,0.0,0.0,0.0,0.0,0.0,0.0,0.0,0.0,0.0,0.0,0.0,0.0,0.0,0.0,0.0,0.0,0.0,0.0,0.0,0.0,0.0,0.0,3.2135,3.3985,3.4204,3.6925,3.7664,3.4747,3.4773,3.3005,2.8367,2.891,2.8908,2.7754,3.0169,3.2369,3.3892,3.5874,3.8055,4.0582,4.1485,4.2433,4.3234,4.3674,4.4224,4.4893,4.5557,4.7271,4.9822,5.0728,5.1366,5.1837,5.2521,5.1651,4.9694,4.8064,4.6035,4.4053,4.3866,4.309,4.2339,4.3907,4.6098,4.8292,4.9124,4.9456,4.9214,4.7205,4.6212,4.5464,4.3713,4.3545,4.3772,4.3319,4.4444,4.5581,4.5076,4.6597,4.8054,4.8054,4.794,4.7257,4.5444,4.1652,3.8818,3.9248,4.0399,4.1927,4.4272,4.9862,5.4598,5.6695,5.8725,5.9393,5.7984,5.7334,5.6233,5.428,5.2612,5.1236,5.0232,4.8928,4.8025,4.765,4.7178,4.694,4.7141,4.8008,4.4719,3.7153,0.0,0.0,0.0,0.0,0.0,0.0,0.0,0.0,0.0,0.0,0.0,0.0,0.0,0.0,0.0,0.0,0.0,0.0,0.0,0.0,0.0,0.0,0.0,0.0,0.0,0.0,3.5533,3.7212,0.0,3.4562,3.371,3.1625,2.725,2.7387,2.7159,2.5892,2.7656,2.9598,3.1432,3.3867,3.6137,3.8321,4.0117,4.1254,4.1649,4.2454,4.3451,4.4616,4.516,4.6981,4.9749,5.0008,5.0362,5.0702,5.0183,4.8798,4.6886,4.5206,4.326,4.1318,4.1259,4.0845,4.0583,4.2518,4.4654,4.6556,4.7137,4.6583,4.5576,4.4893,4.346,4.1925,4.129,4.1782,4.2479,4.2479,4.4242,4.5986,4.5617,4.7308,4.908,4.9227,4.8132,4.6604,4.4818,4.1925,3.9218,3.7712,3.8222,3.946,4.1196,4.6993,5.2432,5.5987,5.892,6.0235,5.9082,5.8207,5.6874,5.4669,5.3352,5.1784,4.9678,4.9431,4.8711,4.7279,4.7757,4.7537,4.6457,4.6694,4.3263,0.0,0.0,0.0,0.0,0.0,0.0,0.0,0.0,0.0,0.0,0.0,0.0,0.0,0.0,0.0,0.0,0.0,0.0,0.0,0.0,0.0,0.0,0.0,0.0,0.0,0.0,0.0,3.8271,4.0263,0.0,0.0,0.0,0.0,2.7071,2.4866,2.3763,2.4002,2.5388,2.6822,2.8264,3.1391,3.3479,3.4448,3.7594,3.9835,4.1318,4.2371,4.3897,4.5872,4.6364,4.7167,4.8087,4.87,4.8961,4.8836,4.7083,4.5356,4.3545,4.1218,3.8486,3.6189,3.819,3.786,3.6965,4.1243,4.3714,4.4921,4.469,4.3154,4.1494,4.2181,4.0567,0.0,0.0,4.0942,4.2907,4.2952,4.6053,4.8919,4.7992,4.9986,5.2175,5.2577,4.9634,4.659,4.5534,4.383,4.0926,3.5834,0.0,3.6244,3.804,4.3413,4.9044,5.4352,5.8323,6.0453,5.9775,5.897,5.7533,5.5334,5.339,5.1562,4.9969,4.8934,4.7793,4.6494,4.6513,4.5131,4.2088,4.1798,0.0,0.0,0.0,0.0,0.0,0.0,0.0,0.0,0.0,0.0,0.0,0.0,0.0,0.0,0.0,0.0,0.0,0.0,0.0,0.0,0.0,0.0,0.0,0.0,0.0,0.0,3.2362,3.2783,3.2805,3.2856,3.2154,0.0,0.0,0.0,0.0,0.0,0.0,2.6291,2.5944,2.6084,2.6794,2.9186,3.1164,3.2559,3.5669,3.8113,3.9802,4.118,4.2118,4.2835,4.518,4.6274,4.6399,4.7801,4.853,4.8492,4.5826,4.3592,4.1663,3.9218,3.7067,3.5338,3.4949,3.452,3.4623,3.8345,4.1042,4.2886,4.3509,4.3489,4.2846,4.0633,0.0,0.0,0.0,0.0,3.7158,3.7798,4.0728,4.3714,4.4481,4.6882,4.9034,4.9355,4.8592,4.6909,4.3761,3.9386,3.5324,3.2738,3.2695,0.0,3.3938,4.0947,4.7563,5.1751,5.7208,6.064,6.0569,5.8262,5.6112,5.4442,5.3063,5.1161,4.8542,4.9711,4.9333,4.6713,4.5711,4.3623,4.0208,0.0,0.0,0.0,0.0,0.0,0.0,0.0,0.0,0.0,0.0,0.0,0.0,0.0,0.0,0.0,0.0,0.0,0.0,0.0,0.0,0.0,0.0,0.0,0.0,0.0,0.0,0.0,3.3203,3.3541,3.3569,3.2305,3.1297,0.0,0.0,0.0,0.0,0.0,0.0,0.0,0.0,0.0,2.6587,2.8041,2.9087,2.9714,3.3391,3.5711,3.6686,3.909,4.0896,4.2279,4.3919,4.5446,4.6857,4.7822,4.7608,4.6448,4.4031,4.1091,3.7937,0.0,0.0,0.0,0.0,3.2356,3.2679,3.5939,3.8189,3.9719,3.9829,0.0,0.0,0.0,0.0,0.0,0.0,0.0,3.4735,3.5925,3.8802,4.185,4.3705,4.5048,4.6239,4.7381,4.5942,4.3713,4.1241,3.7886,3.4537,3.1697,3.1242,0.0,0.0,0.0,4.5844,4.9948,5.6722,6.1076,6.0887,5.9017,5.7157,5.5521,5.4349,5.2476,4.9529,5.0828,4.964,4.488,4.3318,4.0588,0.0,0.0,0.0,0.0,0.0,0.0,0.0,0.0,0.0,0.0,0.0,0.0,0.0,0.0,0.0,0.0,0.0,0.0,0.0,0.0,0.0,0.0,0.0,0.0,0.0,0.0,0.0,0.0,0.0,3.7657,3.6669,0.0,0.0,0.0,0.0,0.0,0.0,0.0,0.0,0.0,0.0,0.0,0.0,0.0,2.7766,2.7426,3.1233,3.307,3.3016,3.6332,3.9161,4.1592,4.196,4.4049,4.7274,4.705,0.0,4.3391,4.1698,0.0,0.0,0.0,0.0,0.0,0.0,0.0,0.0,0.0,0.0,0.0,0.0,0.0,0.0,0.0,0.0,0.0,0.0,0.0,0.0,0.0,0.0,4.1117,4.2865,4.328,4.3663,4.5171,4.2094,3.8725,3.7917,3.7152,3.5386,0.0,0.0,0.0,0.0,0.0,0.0,4.8031,5.5791,6.0822,6.0579,5.985,5.8632,5.6946,5.6128,5.435,5.12,5.1598,4.8942,4.2145,4.0504,0.0,0.0,0.0,0.0,0.0,0.0,0.0,0.0,0.0,0.0,0.0,0.0,0.0,0.0,0.0,0.0,0.0,0.0,0.0,0.0,0.0,0.0,0.0,0.0,0.0,0.0,0.0,0.0,0.0,0.0,0.0,0.0,0.0,0.0,0.0,0.0,0.0,0.0,0.0,0.0,0.0,0.0,0.0,0.0,0.0,0.0,0.0,0.0,0.0,0.0,3.2887,3.381,3.4378,3.6754,3.9515,4.236,4.107,4.0395,4.0166,3.8552,0.0,0.0,0.0,0.0,0.0,0.0,0.0,0.0,0.0,0.0,0.0,0.0,0.0,0.0,0.0,0.0,0.0,0.0,0.0,0.0,0.0,0.0,3.6337,3.5241,3.8282,4.0926,3.8936,0.0,0.0,0.0,0.0,0.0,0.0,0.0,0.0,0.0,0.0,0.0,4.4068,5.1456,5.7033,5.889,5.7542,5.6118,5.5175,5.5766,5.4289,4.9692,4.9886,4.7227,0.0,0.0,0.0,0.0,0.0,0.0,0.0,0.0,0.0,0.0,0.0,0.0,0.0,0.0,0.0,0.0,0.0,0.0,0.0,0.0,0.0,0.0,0.0,0.0,0.0,0.0,0.0,0.0,0.0,0.0,0.0,0.0,0.0,0.0,0.0,0.0,0.0,0.0,0.0,0.0,0.0,0.0,0.0,0.0,0.0,0.0,0.0,0.0,0.0,0.0,0.0,0.0,0.0,0.0,0.0,0.0,0.0,0.0,3.8298,3.7257,0.0,0.0,0.0,0.0,0.0,0.0,0.0,0.0,0.0,0.0,0.0,0.0,0.0,0.0,0.0,0.0,0.0,0.0,0.0,0.0,0.0,0.0,0.0,0.0,0.0,0.0,0.0,0.0,0.0,0.0,0.0,0.0,0.0,0.0,0.0,0.0,0.0,0.0,0.0,0.0,4.2532,4.9828,5.5109,5.6235,5.6461,5.6107,5.5107,5.5837,5.4009,4.8421,4.8401,0.0,0.0,0.0,0.0,0.0,0.0,0.0,0.0,0.0,0.0,0.0,0.0,0.0,0.0,0.0,0.0,0.0,0.0,0.0,0.0,0.0,0.0,0.0,0.0,0.0,0.0,0.0,0.0,0.0,0.0,0.0,0.0,0.0,0.0,0.0,0.0,0.0,0.0,0.0,0.0,0.0,0.0,0.0,0.0,0.0,0.0,0.0,0.0,0.0,0.0,0.0,0.0,0.0,0.0,0.0,0.0,0.0,0.0,0.0,3.6221,3.4985,0.0,0.0,0.0,0.0,0.0,0.0,0.0,0.0,0.0,0.0,0.0,0.0,0.0,0.0,0.0,0.0,0.0,0.0,0.0,0.0,0.0,0.0,0.0,0.0,0.0,0.0,0.0,0.0,0.0,0.0,0.0,0.0,0.0,0.0,0.0,0.0,0.0,0.0,0.0,0.0,4.1717,4.8346,5.3077,5.3859,5.5619,5.6422,5.5515,5.6084,5.3829,4.7607,4.6698,0.0,0.0,0.0,0.0,0.0,0.0,0.0,0.0,0.0,0.0,0.0,0.0,0.0,0.0,0.0,0.0,0.0,0.0,0.0,0.0,0.0,0.0,0.0,0.0,0.0,0.0,0.0,0.0,0.0,0.0,0.0,0.0,0.0,0.0,0.0,0.0,0.0,0.0,0.0,0.0,0.0,0.0,0.0,0.0,0.0,0.0,0.0,0.0,0.0,0.0,0.0,0.0,0.0,0.0,0.0,0.0,0.0,0.0,0.0,0.0,0.0,0.0,0.0,0.0,0.0,0.0,0.0,0.0,0.0,0.0,0.0,0.0,0.0,0.0,0.0,0.0,0.0,0.0,0.0,0.0,0.0,0.0,0.0,0.0,0.0,0.0,0.0,0.0,0.0,0.0,0.0,0.0,0.0,0.0,0.0,0.0,0.0,0.0,0.0,0.0,0.0,4.0576,4.5192,4.9362,5.2631,5.4556,5.5581,5.5596,5.6379,5.4142,4.7646,0.0,0.0,0.0,0.0,0.0,0.0,0.0,0.0,0.0,0.0,0.0,0.0,0.0,0.0,0.0,0.0,0.0,0.0,0.0,0.0,0.0,0.0,0.0,0.0,0.0,0.0,0.0,0.0,0.0,0.0,0.0,0.0,0.0,0.0,0.0,0.0,0.0,0.0,0.0,0.0,0.0,0.0,0.0,0.0,0.0,0.0,0.0,0.0,0.0,0.0,0.0,0.0,0.0,0.0,0.0,0.0,0.0,0.0,0.0,0.0,0.0,0.0,0.0,0.0,0.0,0.0,0.0,0.0,0.0,0.0,0.0,0.0,0.0,0.0,0.0,0.0,0.0,0.0,0.0,0.0,0.0,0.0,0.0,0.0,0.0,0.0,0.0,0.0,0.0,0.0,0.0,0.0,0.0,0.0,0.0,0.0,0.0,0.0,0.0,0.0,0.0,0.0,3.9274,4.3415,4.7043,4.9657,5.2393,5.3739,5.3092,5.4585,5.1916,4.3318,0.0,0.0,0.0,0.0,0.0,0.0,0.0,0.0,0.0,0.0,0.0,0.0,0.0,0.0,0.0,0.0,0.0,0.0,0.0,0.0,0.0,0.0,0.0,0.0,0.0,0.0,0.0,0.0,0.0,0.0,0.0,0.0,0.0,0.0,0.0,0.0,0.0,0.0,0.0,0.0,0.0,0.0,0.0,0.0,0.0,0.0,0.0,0.0,0.0,0.0,0.0,0.0,0.0,0.0,0.0,0.0,0.0,0.0,0.0,0.0,0.0,0.0,0.0,0.0,0.0,0.0,0.0,0.0,0.0,0.0,0.0,0.0,0.0,0.0,0.0,0.0,0.0,0.0,0.0,0.0,0.0,0.0,0.0,0.0,0.0,0.0,0.0,0.0,0.0,0.0,0.0,0.0,0.0,0.0,0.0,0.0,0.0,0.0,0.0,0.0,0.0,0.0,3.8742,4.2628,4.5911,4.805,5.0727,5.2237,5.2091,5.3133,5.0038,4.1154,0.0,0.0,0.0,0.0,0.0,0.0,0.0,0.0,0.0,0.0,0.0,0.0,0.0,0.0,0.0,0.0,0.0,0.0,0.0,0.0,0.0,0.0,0.0,0.0,0.0,0.0,0.0,0.0,0.0,0.0,0.0,0.0,0.0,0.0,0.0,0.0,0.0,0.0,0.0,0.0,0.0,0.0,0.0,0.0,0.0,0.0,0.0,0.0,0.0,0.0,0.0,0.0,0.0,0.0,0.0,0.0,0.0,0.0,0.0,0.0,0.0,0.0,0.0,0.0,0.0,0.0,0.0,0.0,0.0,0.0,0.0,0.0,0.0,0.0,0.0,0.0,0.0,0.0,0.0,0.0,0.0,0.0,0.0,0.0,0.0,0.0,0.0,0.0,0.0,0.0,0.0,0.0,0.0,0.0,0.0,0.0,0.0,0.0,0.0,0.0,0.0,0.0,3.9356,4.2938,4.6088,4.8723,4.9922,5.1462,5.3649,5.2635,4.9217,0.0,0.0,0.0,0.0,0.0,0.0,0.0,0.0,0.0,0.0,0.0,0.0,0.0,0.0,0.0,0.0,0.0,0.0,0.0,0.0,0.0,0.0,0.0,0.0,0.0,0.0,0.0,0.0,0.0,0.0,0.0,0.0,0.0,0.0,0.0,0.0,0.0,0.0,0.0,0.0,0.0,0.0,0.0,0.0,0.0,0.0,0.0,0.0,0.0,0.0,0.0,0.0,0.0,0.0,0.0,0.0,0.0,0.0,0.0,0.0,0.0,0.0,0.0,0.0,0.0,0.0,0.0,0.0,0.0,0.0,0.0,0.0,0.0,0.0,0.0,0.0,0.0,0.0,0.0,0.0,0.0,0.0,0.0,0.0,0.0,0.0,0.0,0.0,0.0,0.0,0.0,0.0,0.0,0.0,0.0,0.0,0.0,0.0,0.0,0.0,0.0,0.0,0.0,3.8012,4.1131,4.4048,4.6834,4.9279,5.073,5.0921,5.1588,4.8785,4.1137,0.0,0.0,0.0,0.0,0.0,0.0,0.0,0.0,0.0,0.0,0.0,0.0,0.0,0.0,0.0,0.0,0.0,0.0,0.0,0.0,0.0,0.0,0.0,0.0,0.0,0.0,0.0,0.0,0.0,0.0,0.0,0.0,0.0,0.0,0.0,0.0,0.0,0.0,0.0,0.0,0.0,0.0,0.0,0.0,0.0,0.0,0.0,0.0,0.0,0.0,0.0,0.0,0.0,0.0,0.0,0.0,0.0,0.0,0.0,0.0,0.0,0.0,0.0,0.0,0.0,0.0,0.0,0.0,0.0,0.0,0.0,0.0,0.0,0.0,0.0,0.0,0.0,0.0,0.0,0.0,0.0,0.0,0.0,0.0,0.0,0.0,0.0,0.0,0.0,0.0,0.0,0.0,0.0,0.0,0.0,0.0,0.0,0.0,0.0,0.0,0.0,0.0,0.0,4.0278,4.3079,4.5981,4.8392,4.9711,4.9529,5.0446,4.8074,4.1099,0.0,0.0,0.0,0.0,0.0,0.0,0.0,0.0,0.0,0.0,0.0,0.0,0.0,0.0,0.0,0.0,0.0,0.0,0.0,0.0,0.0,0.0,0.0,0.0,0.0,0.0,0.0,0.0,0.0,0.0,0.0,0.0,0.0,0.0,0.0,0.0,0.0,0.0,0.0,0.0,0.0,0.0,0.0,0.0,0.0,0.0,0.0,0.0,0.0,0.0,0.0,0.0,0.0,0.0,0.0,0.0,0.0,0.0,0.0,0.0,0.0,0.0,0.0,0.0,0.0,0.0,0.0,0.0,0.0,0.0,0.0,0.0,0.0,0.0,0.0,0.0,0.0,0.0,0.0,0.0,0.0,0.0,0.0,0.0,0.0,0.0,0.0,0.0,0.0,0.0,0.0,0.0,0.0,0.0,0.0,0.0,0.0,0.0,0.0,0.0,0.0,0.0,0.0,3.9982,4.2751,4.5588,4.7195,4.8377,4.9129,4.9194,4.7125,4.2303,4.0482,0.0,0.0,0.0,0.0,0.0,0.0,0.0,0.0,0.0,0.0,0.0,0.0,0.0,0.0,0.0,0.0,0.0,0.0,0.0,0.0,0.0,0.0,0.0,0.0,0.0,0.0,0.0,0.0,0.0,0.0,0.0,0.0,0.0,0.0,0.0,0.0,0.0,0.0,0.0,0.0,0.0,0.0,0.0,0.0,0.0,0.0,0.0,0.0,0.0,0.0,0.0,0.0,0.0,0.0,0.0,0.0,0.0,0.0,0.0,0.0,0.0,0.0,0.0,0.0,0.0,0.0,0.0,0.0,0.0,0.0,0.0,0.0,0.0,0.0,0.0,0.0,0.0,0.0,0.0,0.0,0.0,0.0,0.0,0.0,0.0,0.0,0.0,0.0,0.0,0.0,0.0,0.0,0.0,0.0,0.0,0.0,0.0,0.0,0.0,0.0,0.0,0.0,3.7002,3.9445,4.171,4.4754,4.6871,4.7514,4.7394,4.5791,4.2233,4.0239,0.0,0.0,0.0,0.0,0.0,0.0,0.0,0.0,0.0,0.0,0.0,0.0,0.0,0.0,0.0,0.0,0.0,0.0,0.0,0.0,0.0,0.0,0.0,0.0,0.0,0.0,0.0,0.0,0.0,0.0,0.0,0.0,0.0,0.0,0.0,0.0,0.0,0.0,0.0,0.0,0.0,0.0,0.0,0.0,0.0,0.0,0.0,0.0,0.0,0.0,0.0,0.0,0.0,0.0,0.0,0.0,0.0,0.0,0.0,0.0,0.0,0.0,0.0,0.0,0.0,0.0,0.0,0.0,0.0,0.0,0.0,0.0,0.0,0.0,0.0,0.0,0.0,0.0,0.0,0.0,0.0,0.0,0.0,0.0,0.0,0.0,0.0,0.0,0.0,0.0,0.0,0.0,0.0,0.0,0.0,0.0,0.0,0.0,0.0,0.0,0.0,0.0,3.3973,3.7102,4.0693,4.343,4.5187,4.5747,4.5601,4.4424,4.1853,4.0072,0.0,0.0,0.0,0.0,0.0,0.0,0.0,0.0,0.0,0.0,0.0,0.0,0.0,0.0,0.0,0.0,0.0,0.0,0.0,0.0,0.0,0.0,0.0,0.0,0.0,0.0,0.0,0.0,0.0,0.0,0.0,0.0,0.0,0.0,0.0,0.0,0.0,0.0,0.0,0.0,0.0,0.0,0.0,0.0,0.0,0.0,0.0,0.0,0.0,0.0,0.0,0.0,0.0,0.0,0.0,0.0,0.0,0.0,0.0,0.0,0.0,0.0,0.0,0.0,0.0,0.0,0.0,0.0,0.0,0.0,0.0,0.0,0.0,0.0,0.0,0.0,0.0,0.0,0.0,0.0,0.0,0.0,0.0,0.0,0.0,0.0,0.0,0.0,0.0,0.0,0.0,0.0,0.0,0.0,0.0,0.0,0.0,0.0,0.0,0.0,0.0,0.0,0.0,3.5258,4.0551,4.2672,4.3762,4.3887,4.3814,4.3058,4.1496,0.0,0.0,0.0,0.0,0.0,0.0,0.0,0.0,0.0,0.0,0.0,0.0,0.0,0.0,0.0,0.0,0.0,0.0,0.0,0.0,0.0,0.0,0.0,0.0,0.0,0.0,0.0,0.0,0.0,0.0,0.0,0.0,0.0,0.0,0.0,0.0,0.0,0.0,0.0,0.0,0.0,0.0,0.0,0.0,0.0,0.0,0.0,0.0,0.0,0.0,0.0,0.0,0.0,0.0,0.0,0.0,0.0,0.0,0.0,0.0,0.0,0.0,0.0,0.0,0.0,0.0,0.0,0.0,0.0,0.0,0.0,0.0,0.0,0.0,0.0,0.0,0.0,0.0,0.0,0.0,0.0,0.0,0.0,0.0,0.0,0.0,0.0,0.0,0.0,0.0,0.0,0.0,0.0,0.0,0.0,0.0,0.0,0.0,0.0,0.0,0.0,0.0,0.0,0.0,3.3407,3.8393,4.1741,4.3098,4.194,4.1921,4.1829,4.1419,0.0,0.0,0.0,0.0,0.0,0.0,0.0,0.0,0.0,0.0,0.0,0.0,0.0,0.0]}],[{"header":{"parameterUnit":"kt","parameterCategory":2,"dx":1,"dy":1,"la1":29.285339999999998,"la2":30.599998999999997,"lo1":-89.70041500000002,"lo2":-87.6738589999976,"nx":112,"ny":82,"refTime":"2022-10-07T00:00:00:Z","depth":0,"parameterNumber":2,"parameterNumberName":"V-component_of_WINDS"},"data":[3.5021,3.0868,2.6751,2.7444,2.8074,2.8571,2.8341,2.8889,2.9208,2.8595,2.9326,2.9686,2.8423,2.7336,2.5971,0.0,0.0,0.0,0.0,2.3902,2.5237,2.613,0.0,0.0,0.0,0.0,2.1794,2.1985,1.9937,0.0,2.0355,2.0427,2.1264,2.3038,2.3382,2.3962,2.4937,2.5165,2.5269,2.5113,2.6437,2.6983,2.684,2.7217,2.7269,2.7048,2.6684,2.6074,2.5399,2.5983,2.6009,2.5775,2.671,2.7204,2.7385,2.7385,2.7385,2.7385,2.7385,2.7385,2.7385,2.7385,2.7385,2.7385,2.7385,2.7385,2.7385,2.7385,2.7385,2.7385,2.7385,2.7385,2.7385,2.7385,2.8014,2.8491,2.8491,2.8491,2.8491,2.8491,2.7851,2.7385,2.7385,2.8333,2.9086,2.9086,2.9255,2.9307,2.9112,2.993,3.0456,3.0494,3.4439,3.8061,4.0687,4.1846,4.2313,4.1762,4.0623,3.9978,3.9978,3.9978,4.0528,4.1705,4.2275,4.3091,4.4192,4.4724,4.497,4.497,4.497,4.497,3.179,2.9482,2.7018,2.6729,2.7726,2.8677,2.8767,2.879,2.8878,2.892,2.9627,2.9782,2.852,2.7756,0.0,0.0,0.0,0.0,0.0,2.3309,2.4611,2.5618,2.573,0.0,0.0,0.0,2.1696,2.1106,1.9668,1.8897,1.8693,1.95,2.0488,2.1583,2.1934,2.269,2.387,2.4094,2.4561,2.495,2.6347,2.6892,2.6382,2.7113,2.7385,2.7359,2.6983,2.6489,2.5983,2.6165,2.6126,2.6022,2.6593,2.7048,2.7385,2.7385,2.7385,2.7385,2.7385,2.7385,2.7385,2.7385,2.7385,2.7385,2.7385,2.7385,2.7385,2.7385,2.7385,2.7385,2.7385,2.7385,2.7385,2.7385,2.7385,2.7385,2.7385,2.7385,2.7385,2.7385,2.7385,2.7385,2.7385,2.8164,2.8866,2.906,2.9086,2.9086,2.9086,2.9086,2.9317,2.9401,3.2955,3.6105,3.7731,4.043,4.1876,4.1307,4.0452,3.9978,3.9978,3.9978,4.0528,4.1686,4.2256,4.3091,4.4173,4.4705,4.497,4.4989,4.5274,4.4872,2.5464,2.5296,2.5549,2.6699,2.7922,2.8778,2.8816,3.005,3.0697,2.9146,2.9469,2.9962,2.9997,2.847,0.0,0.0,0.0,0.0,0.0,2.2737,2.3308,2.3853,2.3918,2.3918,2.3918,2.3918,2.3031,2.1106,2.068,1.9771,1.7904,1.9986,2.0477,1.865,2.053,2.1598,2.168,2.1587,2.2638,2.471,2.5724,2.6292,2.6489,2.7074,2.7346,2.7385,2.7359,2.7035,2.6318,2.5931,2.6035,2.6476,2.5944,2.6412,2.7385,2.7385,2.7385,2.7385,2.7385,2.7385,2.7385,2.7385,2.7385,2.7385,2.7385,2.7385,2.7385,2.7385,2.7385,2.7385,2.7385,2.7385,2.7385,2.7385,2.7385,2.7385,2.7385,2.7385,2.7385,2.7385,2.7385,2.7385,2.7385,2.784,2.8385,2.897,2.906,2.906,2.906,2.906,2.8632,2.7502,3.1597,3.4575,3.4916,3.8836,4.1113,4.1269,4.0452,3.9978,3.9978,3.9978,4.0775,4.2465,4.2522,4.3338,4.4932,4.497,4.4819,4.4857,4.5689,4.4624,2.3148,2.477,2.6769,2.8603,2.9408,2.9784,3.0506,2.9584,2.8337,2.7073,2.6681,0.0,0.0,0.0,2.4707,2.4707,0.0,2.3387,2.2977,2.3321,2.3737,2.3892,2.3918,2.3918,2.3918,2.2587,2.1552,2.0961,1.9555,1.9255,2.0614,1.9887,1.9941,2.0602,2.0203,1.9457,1.8428,1.9275,2.016,2.1112,2.2177,2.3633,2.5269,2.5879,2.6606,2.7359,2.6931,2.6658,2.6343,2.6347,2.6227,2.6554,2.6814,2.71,2.7385,2.7385,2.7385,2.7385,2.7385,2.7385,2.7385,2.7385,2.7385,2.7385,2.7385,2.7385,2.7385,2.7385,2.7385,2.7385,2.7385,2.7385,2.7385,2.7385,2.7385,2.7385,2.7385,2.7385,2.7385,2.7385,2.7385,2.7385,2.7385,2.7515,2.7801,2.8372,2.8463,2.8463,2.8463,2.8463,2.819,2.7463,2.9903,3.2584,3.4721,3.735,3.9626,4.1113,4.0452,3.9978,3.9978,3.9978,4.049,4.1591,4.2237,4.3053,4.4097,4.4686,4.4244,4.3044,4.1405,4.0676,2.2484,2.4617,2.6945,2.8177,2.9501,3.0619,3.123,3.0405,2.9093,2.7057,0.0,0.0,0.0,0.0,0.0,0.0,2.4225,2.3983,2.3539,2.3711,2.3918,2.3918,2.3918,2.3918,2.3918,2.2875,2.1853,2.1106,2.0693,2.0738,2.1109,2.0269,1.9707,1.9661,1.8284,1.7038,1.6066,1.677,1.7543,1.8542,2.0299,2.1829,2.3397,2.4722,2.5931,2.7009,2.6658,2.6658,2.6866,2.6619,2.6658,2.6918,2.7256,2.7385,2.7385,2.7385,2.7385,2.7385,2.7385,2.7385,2.7385,2.7385,2.7385,2.7385,2.7385,2.7385,2.7385,2.7385,2.7385,2.7385,2.7385,2.7385,2.7385,2.7385,2.7385,2.7385,2.7385,2.7385,2.7385,2.7385,2.7385,2.7385,2.7385,2.7385,2.7567,2.8139,2.8229,2.8229,2.8229,2.8437,2.8281,2.7463,2.9485,3.1435,3.3015,3.5901,3.8143,3.9307,3.9786,3.9978,3.9978,3.9978,4.0395,4.125,4.0915,4.1734,4.3755,4.2306,4.1181,4.0334,3.934,3.8573,2.2875,2.4491,2.6296,2.6781,2.9045,3.1249,3.1459,0.0,3.1511,2.8126,0.0,2.6762,2.48,0.0,0.0,2.5159,2.5301,2.499,2.3983,2.3918,2.3918,2.3918,2.3918,2.3918,2.3918,2.3918,2.3175,2.1407,2.2875,2.2961,2.0766,2.0876,1.9859,1.7251,1.5802,1.4906,1.417,1.4202,1.4992,1.6606,1.894,2.0427,2.1279,2.3578,2.5217,2.6321,2.6399,2.6749,2.7243,2.6723,2.6853,2.7372,2.7307,2.732,2.7385,2.7385,2.7385,2.7385,2.7385,2.7385,2.7385,2.7385,2.7385,2.7385,2.7385,2.7385,2.7385,2.7385,2.7385,2.7385,2.7385,2.7385,2.7385,2.7385,2.7385,2.7385,2.7385,2.7385,2.7385,2.7385,2.7385,2.7385,2.7385,2.7385,2.7528,2.797,2.8087,2.81,2.8035,2.8541,2.8502,2.7489,2.9419,3.0807,3.0569,3.3993,3.6368,3.6849,3.8726,3.9808,3.9978,3.9808,3.9862,4.03,3.8606,3.9498,4.3123,3.9014,3.7224,3.7559,3.7967,3.7215,2.34,2.4319,2.5419,2.8531,2.9728,3.0562,0.0,0.0,0.0,2.8619,2.7644,2.6644,2.3892,2.3454,2.348,2.36,2.3872,2.4216,2.3892,2.3918,2.3918,2.3918,2.3918,2.3918,2.3918,2.3918,2.3762,2.3319,2.3762,2.371,2.3167,2.1793,2.0014,1.7705,1.5958,1.3961,1.1575,1.1796,1.258,1.3785,1.5672,1.7714,2.0082,2.2432,2.4179,2.5139,2.5632,2.6165,2.6684,2.6567,2.6853,2.7333,2.6866,2.697,2.7385,2.7385,2.7385,2.7385,2.7385,2.7385,2.7385,2.7385,2.7385,2.7385,2.7385,2.7385,2.7385,2.7385,2.7385,2.7385,2.7385,2.7385,2.7385,2.7385,2.7385,2.7385,2.7385,2.7385,2.7385,2.7385,2.7385,2.7385,2.7385,2.7385,2.7256,2.6905,2.7243,2.7385,2.6918,2.7346,2.7619,2.7398,2.7792,2.8762,3.0364,3.1312,3.3205,3.6695,3.7312,3.825,3.9978,3.8421,3.6765,3.5167,3.5429,3.6845,3.9248,3.7832,3.7224,3.7365,3.3917,3.2578,2.4691,2.5529,2.6413,2.882,3.0297,0.0,0.0,3.3163,3.3076,3.0742,2.9325,2.774,2.5365,2.4192,2.349,2.349,2.3724,2.3918,2.3918,2.3918,2.3918,2.3918,2.3918,2.3918,2.3918,2.3918,2.3918,2.3918,2.3918,2.3918,2.3918,2.1129,1.8984,1.7901,1.5177,1.2829,1.1076,1.1208,1.1384,1.1808,1.3443,1.5553,1.805,2.0055,2.2293,2.436,2.4659,2.5451,2.6343,2.6217,2.6437,2.6957,2.6957,2.7126,2.7385,2.7385,2.7385,2.7385,2.7385,2.7385,2.7385,2.7385,2.7385,2.7385,2.7385,2.7385,2.7385,2.7385,2.7385,2.7385,2.7385,2.7385,2.7385,2.7385,2.7385,2.7385,2.7385,2.7385,2.7385,2.7385,2.7385,2.7385,2.7385,2.7152,2.6853,2.6567,2.6762,2.684,2.6395,2.7022,2.7385,2.7385,2.7385,2.7851,2.8789,2.9881,3.1472,3.3521,3.4637,3.5747,3.6832,3.5902,3.4811,3.3694,3.3089,3.4545,3.813,3.4445,3.3451,3.4774,3.1786,3.0956,2.6211,2.7221,2.8208,2.9215,3.1132,0.0,3.2973,3.4055,3.4437,3.2626,3.1102,2.9321,2.6985,2.5447,2.4335,2.3918,2.3918,2.3918,2.3918,2.3918,2.3918,2.3918,2.3918,2.3918,2.3918,2.3918,2.3918,2.3918,2.3918,2.3918,2.3918,2.0469,1.8421,1.807,1.449,1.2136,1.128,1.1168,1.0878,1.0552,1.2185,1.3981,1.5727,1.7922,2.0358,2.3003,2.362,2.471,2.6009,2.5892,2.5787,2.5904,2.686,2.6941,2.6867,2.7208,2.7385,2.7385,2.7385,2.7385,2.7385,2.7385,2.7385,2.7385,2.7385,2.7385,2.7385,2.7385,2.7385,2.7385,2.7385,2.7385,2.7385,2.7385,2.7385,2.7385,2.7385,2.7385,2.7385,2.7385,2.7385,2.7346,2.723,2.6827,2.6279,2.6217,2.6373,2.6318,2.6373,2.6957,2.7385,2.7385,2.7385,2.7385,2.7385,2.8951,3.0042,3.0525,3.211,3.3221,3.3537,3.3221,3.3063,3.3063,3.1007,3.2209,3.6615,3.1295,2.9884,3.2272,3.0574,3.0372,2.7062,2.8474,3.0069,3.1701,3.2897,0.0,3.4568,3.4871,3.4437,3.2626,3.2069,3.083,2.7266,2.6437,2.573,2.4192,2.3918,2.3918,2.3918,2.3918,2.3918,2.3918,2.3918,2.3918,2.3918,2.3918,2.3918,2.3918,2.3918,2.3918,2.3918,2.1578,1.9684,1.8061,1.5158,1.2852,1.1273,1.0772,1.0612,1.0552,1.2185,1.3214,1.3511,1.7243,1.9121,1.9616,2.2545,2.4022,2.4321,2.5814,2.5313,2.3714,2.577,2.5586,2.4472,2.669,2.7385,2.7385,2.7385,2.7385,2.7385,2.7385,2.7385,2.7385,2.7385,2.7385,2.7385,2.7385,2.7385,2.7385,2.7385,2.7385,2.7385,2.7385,2.7385,2.7385,2.7385,2.7385,2.7385,2.7385,2.7385,2.7217,2.671,2.6408,2.6165,2.5126,2.5853,2.6334,2.584,2.6723,2.7385,2.7385,2.7385,2.7385,2.7385,2.7536,2.8477,3.0364,3.0671,3.1632,3.3553,3.1791,3.0832,3.0832,2.8803,2.8993,3.1417,3.0627,3.0922,3.2257,3.0157,2.9788,2.8436,2.9423,3.0373,3.2081,0.0,0.0,3.4226,3.4663,3.4739,3.4019,3.3047,3.151,2.8783,2.7406,2.6013,2.4192,2.475,2.5461,2.5461,2.4607,2.3918,2.3918,2.3918,2.3918,2.3918,2.3918,2.3918,2.3918,2.3918,2.3918,2.3918,2.1949,1.9915,1.7985,1.5483,1.3174,1.1036,1.0799,1.0594,1.0552,1.1182,1.2057,1.307,1.4759,1.6928,1.9358,2.0824,2.2631,2.4343,2.3053,2.2482,2.2399,2.3817,2.4737,2.55,2.6184,2.6814,2.7333,2.6996,2.71,2.7385,2.7385,2.7385,2.7385,2.7385,2.7385,2.7385,2.7385,2.7385,2.7385,2.7385,2.7385,2.7385,2.7385,2.7385,2.7385,2.7385,2.7385,2.7385,2.7385,2.7385,2.7191,2.6619,2.6243,2.5749,2.5054,2.549,2.5944,2.571,2.6671,2.7385,2.7385,2.7385,2.7385,2.7385,2.7385,2.7851,2.864,2.864,2.9114,2.9909,2.9114,2.864,2.864,2.7864,2.7851,2.864,2.864,2.8898,2.9402,2.9278,2.9515,2.9404,0.0,0.0,0.0,0.0,0.0,3.4416,3.4739,3.5004,3.5004,3.3886,3.2491,3.0693,2.9183,2.767,2.5716,2.6563,2.7266,2.6718,2.6013,2.5021,2.4049,2.4335,2.4478,2.3918,2.3918,2.3918,2.3918,2.3918,2.3918,2.3918,2.2587,2.0524,1.7895,1.5563,1.3244,1.0983,1.0819,1.0634,1.0552,1.0552,1.1182,1.2312,1.2807,1.4833,1.7954,1.8765,2.0542,2.2929,2.1161,2.0536,2.1039,2.2308,2.384,2.5259,2.5504,2.6204,2.6853,2.6437,2.6658,2.7152,2.7152,2.7256,2.7385,2.7385,2.7385,2.7385,2.7385,2.7385,2.7385,2.7385,2.7385,2.7385,2.7385,2.7385,2.7385,2.7385,2.7385,2.7385,2.7385,2.7256,2.6957,2.6386,2.5814,2.523,2.4633,2.5048,2.549,2.5658,2.6541,2.7204,2.7372,2.7385,2.7385,2.7385,2.7385,2.7385,2.7385,2.7385,2.7385,2.7385,2.7385,2.7385,2.7385,2.7385,2.7385,2.7385,2.7385,2.7385,2.7398,2.8385,2.9242,0.0,0.0,0.0,3.453,3.4947,3.5175,3.5972,3.5555,3.5004,3.5004,3.5004,3.4304,3.2473,3.2186,3.151,2.975,2.9475,2.8783,2.6859,2.8228,2.7949,2.4335,2.5461,2.5872,2.4049,2.3918,2.3918,2.3918,2.3918,2.3918,2.3918,2.3918,2.2009,1.8198,1.532,1.3016,1.126,1.0713,1.0559,1.0552,1.0552,1.0552,1.0674,1.2312,1.3269,1.38,1.6474,1.7945,1.8414,2.0818,2.0541,1.8881,2.1678,2.2669,2.2669,2.4888,2.5697,2.5736,2.571,2.6074,2.6382,2.6382,2.6918,2.7385,2.7385,2.7385,2.7385,2.7385,2.7385,2.7385,2.7385,2.7385,2.7385,2.7385,2.7385,2.7385,2.7385,2.7385,2.7385,2.7385,2.6931,2.6373,2.5801,2.5204,2.4754,2.4022,2.4425,2.5159,2.5606,2.6178,2.6762,2.732,2.7385,2.7385,2.7385,2.7385,2.7385,2.7385,2.7385,2.7385,2.7385,2.7385,2.7385,2.7385,2.7385,2.7385,2.7385,2.7385,2.7385,2.7398,2.7983,2.8853,3.1132,3.2081,3.2916,3.4587,3.5004,3.508,3.5346,3.5213,3.5004,3.5004,3.5004,3.4437,3.2626,3.3315,3.3886,3.3199,3.2086,3.1102,3.042,2.9871,2.8645,2.6013,2.6296,2.5872,2.4049,2.3918,2.3918,2.3918,2.3918,2.3918,2.3918,2.3918,2.3167,2.1507,1.9,1.5942,1.2525,1.2301,1.1552,1.0552,1.0552,1.0552,1.0552,1.1053,1.2239,1.4118,1.6293,1.596,1.4062,1.7805,1.8138,1.6653,2.0229,2.1691,2.2117,2.3893,2.4996,2.5619,2.5217,2.5464,2.6022,2.624,2.6645,2.6879,2.7269,2.7385,2.7385,2.7385,2.7385,2.7385,2.7385,2.7385,2.7385,2.7385,2.7385,2.7385,2.7385,2.7087,2.6814,2.6814,2.6347,2.5775,2.5178,2.5054,2.4728,2.3996,2.4399,2.5146,2.5606,2.6165,2.6749,2.732,2.7385,2.7385,2.7385,2.7385,2.7385,2.7385,2.7385,2.7385,2.7385,2.7385,2.7385,2.7385,2.7385,2.7385,2.7385,2.7385,2.7385,2.7385,2.758,2.8074,3.2031,3.2866,3.3497,3.4717,3.5004,3.5004,3.5004,3.5004,3.5004,3.5004,3.5004,3.4588,3.3467,3.4152,3.5004,3.5004,3.4019,3.3047,3.2339,3.1815,3.0299,2.7,2.7266,2.6704,2.4192,2.3918,2.3918,2.3918,2.3918,2.3918,2.3918,2.3918,2.3659,2.3087,2.1046,1.8325,1.519,1.4276,1.3324,1.232,1.1688,1.1431,1.1431,1.0803,1.1458,1.3156,1.571,1.4854,1.1863,1.6784,1.7689,1.6396,1.9733,2.1617,2.2636,2.3615,2.4399,2.4983,2.4594,2.4866,2.5412,2.5775,2.6048,2.6321,2.6905,2.7074,2.7113,2.732,2.7385,2.7385,2.7385,2.7385,2.7385,2.7385,2.7385,2.7385,2.7385,2.6931,2.6356,2.6356,2.5892,2.523,2.4989,2.4754,2.4334,2.397,2.423,2.4762,2.558,2.5996,2.6515,2.7294,2.7385,2.7385,2.7385,2.7385,2.7385,2.7385,2.7385,2.7385,2.7385,2.7385,2.7385,2.7385,2.7385,2.7385,2.7385,2.7385,2.7385,2.7385,2.7385,2.758,3.2646,3.3719,3.4846,3.5089,3.5136,3.5136,3.5004,3.5004,3.5004,3.5004,3.5004,3.5004,3.5136,3.5004,3.5004,3.5004,3.5004,3.4437,3.2626,3.3886,3.293,2.7546,2.8506,2.8089,2.4478,2.3918,2.3918,2.3918,2.3918,2.3918,2.3918,2.3879,2.3607,2.3048,2.1286,1.983,1.8994,1.6829,1.5602,1.5476,1.395,1.3061,1.2934,1.1303,1.0705,1.1106,1.4667,1.4345,1.1824,1.7595,1.9075,1.7877,2.0169,2.2118,2.3762,2.3918,2.3918,2.3918,2.3918,2.4269,2.4885,2.4911,2.5165,2.5736,2.6308,2.6318,2.6593,2.7139,2.7294,2.7294,2.7333,2.7333,2.7346,2.7372,2.7385,2.7385,2.7385,2.6905,2.6463,2.6437,2.5503,2.4885,2.4885,2.4282,2.3918,2.3918,2.3918,2.4334,2.5477,2.5658,2.61,2.7217,2.7372,2.7385,2.7385,2.7385,2.7385,2.7385,2.7385,2.7385,2.7385,2.7385,2.7385,2.7385,2.7385,2.7385,2.7385,2.7385,2.7385,2.7385,2.7385,2.7385,3.5267,3.6728,3.7535,3.6993,3.6889,3.652,3.5269,3.5004,3.5004,3.5004,3.5004,3.5381,3.665,3.5887,3.5004,3.5004,3.5004,3.4872,3.4304,3.4721,3.3904,3.1102,3.0009,2.8645,2.6155,2.475,2.3918,2.3918,2.3918,2.3918,2.3918,2.3516,2.3022,2.2451,2.1613,2.0794,2.0114,1.8322,1.6743,1.5602,1.5088,1.4204,1.3061,1.256,1.1725,1.0679,1.3386,1.3808,1.3111,1.6461,1.7654,1.7544,1.9803,2.1092,2.1841,2.3319,2.3918,2.3918,2.3918,2.4009,2.4204,2.478,2.5028,2.5113,2.571,2.5892,2.5931,2.6074,2.6113,2.6204,2.6632,2.6736,2.6853,2.7282,2.7385,2.7385,2.7385,2.6606,2.5762,2.5308,2.4633,2.4126,2.4126,2.4009,2.3918,2.3918,2.3918,2.4178,2.4918,2.5399,2.5957,2.6671,2.7126,2.7385,2.7385,2.7385,2.7385,2.7385,2.7385,2.7385,2.7385,2.7385,2.7385,2.7385,2.7385,2.7385,2.7385,2.7385,2.7385,2.7385,2.7385,2.7385,3.7663,3.948,4.013,3.8011,3.8026,3.8026,3.5513,3.6149,3.7018,3.626,3.663,3.7514,3.8408,3.7277,3.6129,3.6129,3.5513,3.5004,3.5004,3.5004,3.4037,3.1391,3.0162,2.8506,2.573,2.4478,2.3918,2.3918,2.3918,2.3802,2.3555,2.3477,2.2945,2.1867,2.1776,2.1347,2.0652,1.9653,1.8762,1.7743,1.6994,1.5728,1.4077,1.3316,1.256,1.1695,1.3682,1.3645,1.237,1.6292,1.7426,1.7136,2.0348,2.1832,2.1971,2.2501,2.2587,2.2587,2.2587,2.2587,2.278,2.4136,2.4399,2.4503,2.51,2.5282,2.5334,2.5606,2.5684,2.5749,2.6074,2.6152,2.623,2.6554,2.6632,2.6632,2.6632,2.6139,2.5503,2.5041,2.4308,2.3918,2.3918,2.3918,2.3918,2.3918,2.3918,2.4126,2.4859,2.5074,2.5593,2.6424,2.6814,2.7113,2.7359,2.7385,2.7385,2.7385,2.7385,2.7385,2.7385,2.7385,2.7385,2.7385,2.7385,2.7385,2.7385,2.7385,2.7385,2.7385,2.7385,2.7385,3.9701,4.1981,4.2476,3.9305,3.9503,3.9524,3.639,3.7898,3.965,3.8154,3.9147,4.0398,4.0602,3.9126,3.777,3.7514,3.626,3.5269,3.5004,3.5004,3.3771,3.0727,2.9888,2.8228,2.5021,2.4192,2.3918,2.3918,2.3918,2.3698,2.3217,2.3581,2.3087,2.1529,2.188,2.1594,2.0652,2.0652,2.0652,2.0529,1.9146,1.7505,1.5854,1.433,1.357,1.3443,1.4972,1.3968,1.1846,1.6535,1.79,1.7367,2.1076,2.2794,2.2988,2.1437,2.0904,2.0961,2.067,2.0536,2.0972,2.2875,2.3475,2.3708,2.4503,2.4806,2.4775,2.5295,2.5451,2.5464,2.5542,2.5567,2.558,2.5658,2.5554,2.5451,2.5451,2.5451,2.5282,2.4911,2.4256,2.3918,2.3918,2.3918,2.3918,2.3918,2.3918,2.4087,2.4741,2.4872,2.5191,2.6295,2.6318,2.6762,2.7333,2.7385,2.7385,2.7385,2.7385,2.7385,2.7385,2.7385,2.7385,2.7385,2.7385,2.7385,2.7385,2.7385,2.7385,2.7385,2.7385,2.7385,4.0832,4.3713,4.4754,4.3718,4.2771,4.1652,3.965,3.965,4.0025,3.965,4.0915,4.248,4.3677,4.1539,3.9147,3.777,3.7277,3.665,3.5136,3.5004,3.4739,3.4171,3.1408,2.9337,2.8645,2.573,2.3918,2.3918,2.3918,2.3866,2.3776,2.3412,2.2867,2.2088,2.1711,2.1192,2.0652,2.0652,2.0652,2.0652,2.0283,1.927,1.7641,1.738,1.6492,1.5088,1.5476,1.599,1.6764,1.6324,1.7849,2.0462,1.9867,2.1015,2.2936,2.1035,2.0618,2.0816,1.9088,1.8648,1.8941,2.0827,2.1552,2.1865,2.359,2.4061,2.4087,2.4191,2.4217,2.4321,2.4801,2.5081,2.5061,2.5567,2.4931,2.4217,2.4217,2.4217,2.4191,2.4087,2.3983,2.3918,2.3918,2.3918,2.3918,2.3918,2.3918,2.3944,2.4048,2.4477,2.5048,2.5749,2.6243,2.6762,2.7333,2.7385,2.7385,2.7385,2.7385,2.7385,2.7385,2.7385,2.7385,2.7385,2.7385,2.7385,2.7385,2.7385,2.7385,2.7385,2.7385,2.7385,3.7444,4.1582,4.4975,4.5331,4.5196,4.4151,4.0747,4.1385,4.2774,4.3747,4.503,4.6074,4.6074,4.4031,4.2025,4.0376,3.8641,3.7277,3.639,3.5147,3.4119,3.3679,3.078,2.8522,2.7721,2.5408,2.3789,2.3503,2.3477,2.3347,2.3035,2.2763,2.223,2.136,2.1347,2.1101,2.0652,2.0652,2.0652,2.0652,2.0652,2.0147,1.9393,1.9393,1.8513,1.6869,1.6869,1.6879,1.6754,1.6879,1.8027,1.9672,2.0081,2.1034,2.1976,1.947,1.879,1.8735,1.7102,1.6604,1.7038,2.0089,2.0961,2.1407,2.3319,2.3918,2.3918,2.3918,2.3918,2.3983,2.4256,2.4321,2.4399,2.4697,2.4321,2.3918,2.3918,2.3918,2.3918,2.3918,2.3918,2.3918,2.3918,2.3918,2.3918,2.3918,2.3918,2.3918,2.3918,2.4152,2.4555,2.5139,2.5736,2.6308,2.6892,2.7217,2.7385,2.7385,2.7385,2.7385,2.7385,2.7385,2.7385,2.7385,2.7385,2.7385,2.7385,2.7385,2.7385,2.7385,2.7385,2.7385,3.3867,3.8983,4.4146,4.5801,4.6601,4.6007,4.2471,4.3817,4.6351,4.8003,4.891,4.9153,4.8307,4.6503,4.4757,4.3297,4.0252,3.7898,3.7514,3.558,3.3745,3.2957,3.0326,2.7969,2.6781,2.503,2.3685,2.3113,2.3074,2.2815,2.2243,2.2204,2.175,2.0737,2.114,2.1101,2.0652,2.0652,2.0652,2.0652,2.0652,2.0652,2.0652,2.0652,1.99,1.8649,1.8649,1.7879,1.6733,1.8015,1.8649,1.8821,2.0505,2.1269,2.1078,1.8367,1.7506,1.7574,1.5621,1.535,1.616,1.8931,2.038,2.1262,2.2875,2.3619,2.3918,2.3918,2.3918,2.3918,2.3918,2.3918,2.3918,2.3918,2.3918,2.3918,2.3918,2.3918,2.3918,2.3918,2.3918,2.3918,2.3918,2.3918,2.3918,2.3918,2.3918,2.3918,2.3918,2.3918,2.4139,2.4859,2.5204,2.571,2.6295,2.6866,2.7191,2.7191,2.7307,2.7385,2.7385,2.7385,2.7385,2.7385,2.7385,2.7385,2.7385,2.7385,2.7385,2.7385,2.7385,2.7385,3.3259,3.7934,4.2527,4.5931,4.647,4.6261,4.668,4.7898,4.9342,5.0847,5.0169,4.9691,5.0882,4.8828,4.6466,4.4732,4.1904,3.9273,3.777,3.594,3.4796,3.4721,3.1611,2.9378,2.9241,2.5971,2.3685,2.3113,2.3074,2.2815,2.2243,2.2204,2.1932,2.1308,2.1347,2.1101,2.0652,2.0652,2.0652,2.0652,2.0652,2.0652,2.0652,2.0652,2.0529,2.0406,2.0406,2.027,2.0147,2.027,2.0406,2.0406,2.0581,2.0919,2.1117,1.9098,1.9027,1.9377,1.558,1.5843,1.7629,1.616,1.8051,2.0972,2.1262,2.2587,2.3918,2.3918,2.3918,2.3918,2.3918,2.3918,2.3918,2.3918,2.3918,2.3918,2.3918,2.3918,2.3918,2.3918,2.3918,2.3918,2.3918,2.3918,2.3918,2.3918,2.3918,2.3918,2.3918,2.3918,2.4139,2.4859,2.4976,2.51,2.571,2.6282,2.6606,2.6606,2.71,2.7385,2.7385,2.7385,2.7385,2.7385,2.7385,2.7385,2.7385,2.7385,2.7385,2.7385,2.7385,2.7385,2.5454,3.089,3.6229,3.8503,4.1178,4.3681,4.5156,4.653,4.8272,5.1024,5.1102,5.0882,5.1429,4.9905,4.8034,4.644,4.4289,4.2002,3.9377,3.7171,3.554,3.5079,3.2217,3.0025,2.9102,2.6889,2.478,2.2755,2.2555,2.2308,2.1737,2.1386,2.1101,2.0867,2.0867,2.0874,2.0652,2.0652,2.0652,2.0652,2.0652,2.0652,2.0652,2.0652,2.0652,2.0652,2.0652,2.0652,2.0652,2.0652,2.0652,2.0652,2.0652,2.0796,2.0768,1.9018,1.8711,1.887,1.6635,1.6644,1.7553,1.8401,1.9797,2.1262,2.243,2.3319,2.3918,2.3918,2.3918,2.3918,2.3918,2.3918,2.3918,2.3918,2.3918,2.3918,2.3918,2.3918,2.3918,2.3918,2.3918,2.3918,2.3918,2.3918,2.3918,2.3918,2.3918,2.3918,2.3918,2.3918,2.3996,2.423,2.4715,2.5028,2.5113,2.5671,2.6152,2.6343,2.6736,2.6866,2.6866,2.6866,2.7022,2.7372,2.7385,2.7385,2.7385,2.7385,2.7385,2.7385,2.7385,2.7385,2.0948,2.5994,3.1128,3.361,3.6938,4.0572,4.3577,4.4572,4.6032,5.0687,5.195,5.2145,5.2145,5.0958,4.9477,4.8086,4.6024,4.3653,4.05,3.8074,3.6187,3.506,3.2826,3.072,2.8989,2.7537,2.5365,2.2429,2.2204,2.1893,2.1153,2.075,2.0652,2.0652,2.0652,2.0652,2.0652,2.0652,2.0652,2.0652,2.0652,2.0652,2.0652,2.0652,2.0652,2.0652,2.0652,2.0652,2.0652,2.0652,2.0652,2.0652,2.0652,2.0652,2.0445,1.9419,1.9263,1.9098,1.7884,1.8143,1.8988,1.9617,2.0702,2.1997,2.2731,2.3462,2.3918,2.3918,2.3918,2.3918,2.3918,2.3918,2.3918,2.3918,2.3918,2.3918,2.3918,2.3918,2.3918,2.3918,2.3918,2.3918,2.3918,2.3918,2.3918,2.3918,2.3918,2.3918,2.3918,2.3918,2.3918,2.3918,2.4282,2.4516,2.4516,2.5061,2.558,2.597,2.6178,2.6269,2.6269,2.6424,2.671,2.7113,2.7294,2.7385,2.7385,2.7385,2.7385,2.7385,2.7385,2.7385,2.2371,2.4922,2.8451,3.3344,3.5162,3.7333,4.2978,4.2685,4.3175,5.0116,5.265,5.3601,5.3601,5.2449,5.0986,4.9584,4.6791,4.3653,4.05,3.8641,3.6889,3.5136,3.3315,3.151,2.9734,2.781,2.5365,2.2429,2.2204,2.1724,2.0718,2.0652,2.0652,2.0652,2.0652,2.0652,2.0652,2.0652,2.0652,2.0652,2.0652,2.0652,2.0652,2.0652,2.0652,2.0652,2.0652,2.0652,2.0652,2.0652,2.0652,2.0652,2.0652,2.0652,2.0652,2.0529,2.0893,2.1104,1.9135,2.0491,2.2356,1.8371,2.0265,2.3475,2.1552,2.243,2.3918,2.3918,2.3918,2.3918,2.3918,2.3918,2.3918,2.3918,2.3918,2.3918,2.3918,2.3918,2.3918,2.3918,2.3918,2.3918,2.3918,2.3918,2.3918,2.3918,2.3918,2.3918,2.3918,2.3918,2.3918,2.3918,2.3918,2.3918,2.3918,2.4451,2.4937,2.4937,2.536,2.5684,2.5684,2.623,2.6356,2.6369,2.7087,2.7385,2.7385,2.7385,2.7385,2.7385,2.7385,2.7385,1.8988,2.1902,2.4935,2.8228,3.0246,3.2578,3.6729,3.779,3.9501,4.5151,4.8019,5.0588,5.4178,5.2891,5.142,5.1978,4.9715,4.6402,4.2152,4.0186,3.8133,3.5249,3.4455,3.3115,3.0656,2.9005,2.6702,2.3466,2.2253,2.1308,2.0691,2.0652,2.0652,2.0652,2.0652,2.0652,2.0652,2.0652,2.0652,2.0652,2.0652,2.0652,2.0652,2.0652,2.0652,2.0652,2.0652,2.0652,2.0652,2.0652,2.0652,2.0652,2.0652,2.0652,2.0652,2.0652,2.0757,2.0841,2.058,2.1063,2.1891,2.1405,2.2191,2.3272,2.3062,2.3475,2.3918,2.3918,2.3918,2.3918,2.3918,2.3918,2.3918,2.3918,2.3918,2.3918,2.3918,2.3918,2.3918,2.3918,2.3918,2.3918,2.3918,2.3918,2.3918,2.3918,2.3918,2.3918,2.3918,2.3918,2.3918,2.3918,2.3918,2.3918,2.3918,2.4074,2.4347,2.4898,2.4581,2.4646,2.5048,2.523,2.571,2.6343,2.6697,2.6983,2.7385,2.7385,2.7385,2.7385,2.7385,2.7385,1.8601,2.0786,2.2907,2.5314,2.6358,2.7957,3.2406,3.3753,3.5557,4.0821,4.3963,4.7055,5.1061,5.1935,5.2341,5.3164,5.152,4.8288,4.2966,4.1005,3.8768,3.5381,3.4739,3.3633,3.1082,2.9209,2.6887,2.3885,2.2227,2.1127,2.0678,2.0652,2.0652,2.0652,2.0652,2.0652,2.0652,2.0652,2.0652,2.0652,2.0652,2.0652,2.0652,2.0652,2.0652,2.0652,2.0652,2.0652,2.0652,2.0652,2.0652,2.0652,2.0652,2.0652,2.0652,2.0652,2.0652,2.0705,2.0932,2.1192,2.1477,2.2204,2.2568,2.2854,2.3425,2.3594,2.3646,2.3853,2.3918,2.3918,2.3918,2.3918,2.3918,2.3918,2.3918,2.3918,2.3918,2.3918,2.3918,2.3918,2.3918,2.3918,2.3918,2.3918,2.3918,2.3918,2.3918,2.3918,2.3918,2.3918,2.3918,2.3918,2.3918,2.3918,2.3918,2.3918,2.4061,2.4425,2.4113,2.4074,2.4438,2.4806,2.5113,2.584,2.6087,2.6476,2.7061,2.7061,2.7165,2.7385,2.7385,2.7385,2.0329,2.1077,2.2049,2.4398,2.3684,2.3924,2.9839,3.0641,3.1599,3.6806,4.0194,4.2938,4.5155,4.97,5.3223,5.3135,5.2106,4.9123,4.3154,4.1061,3.8937,3.5477,3.4416,3.3223,3.1324,2.8955,2.6449,2.4107,2.2313,2.1075,2.0678,2.0652,2.0652,2.0652,2.0652,2.0652,2.0652,2.0652,2.0652,2.0652,2.0652,2.0652,2.0652,2.0652,2.0652,2.0652,2.0652,2.0652,2.0652,2.0652,2.0652,2.0652,2.0652,2.0652,2.0652,2.0652,2.0652,2.0652,2.0652,2.0867,2.1308,2.1347,2.1724,2.2256,2.2841,2.3009,2.3126,2.3698,2.3853,2.3853,2.3853,2.3879,2.3918,2.3918,2.3918,2.3918,2.3918,2.3918,2.3918,2.3918,2.3918,2.3918,2.3918,2.3918,2.3918,2.3918,2.3918,2.3918,2.3918,2.3918,2.3918,2.3918,2.3918,2.3918,2.3918,2.3918,2.3918,2.3918,2.3918,2.3918,2.3918,2.4425,2.4885,2.4924,2.5321,2.5892,2.6463,2.6463,2.6736,2.7269,2.7307,2.7484,1.9252,2.0106,2.1473,2.3272,2.3971,2.4852,2.7315,2.8061,2.8953,3.1255,3.4864,3.8511,4.186,4.6047,4.9656,5.1441,5.1416,4.9155,4.385,4.2495,4.0603,3.6399,3.5783,3.489,3.3352,2.987,2.7211,2.5868,2.2664,2.0796,2.0652,2.0652,2.0652,2.0652,2.0652,2.0652,2.0652,2.0652,2.0652,2.0652,2.0652,2.0652,2.0652,2.0652,2.0652,2.0652,2.0652,2.0652,2.0652,2.0652,2.0652,2.0652,2.0652,2.0652,2.0652,2.0652,2.0652,2.0652,2.0652,2.0731,2.0914,2.123,2.1464,2.1672,2.2243,2.2412,2.2529,2.31,2.3269,2.3269,2.3269,2.3594,2.3918,2.3918,2.3918,2.3918,2.3918,2.3918,2.3918,2.3918,2.3918,2.3918,2.3918,2.3918,2.3918,2.3918,2.3918,2.3918,2.3918,2.3918,2.3918,2.3918,2.3918,2.3918,2.3918,2.3918,2.3918,2.3918,2.3918,2.3918,2.3918,2.4048,2.4321,2.4911,2.5068,2.5282,2.5879,2.5879,2.5944,2.6087,2.6515,2.7496,1.9607,2.0368,2.1116,2.129,2.1026,2.1348,2.3537,2.4208,2.5085,2.7714,3.1066,3.462,3.797,4.1815,4.5584,4.8808,4.9745,4.8387,4.3424,4.211,4.0202,3.6629,3.5555,3.4758,3.3884,3.0015,2.7082,2.6034,2.2883,2.0802,2.0665,2.0652,2.0652,2.0652,2.0652,2.0652,2.0652,2.0652,2.0652,2.0652,2.0652,2.0652,2.0652,2.0652,2.0652,2.0652,2.0652,2.0652,2.0652,2.0652,2.0652,2.0652,2.0652,2.0652,2.0652,2.0652,2.0652,2.0652,2.0652,2.0652,2.0705,2.088,2.0984,2.1088,2.1646,2.1828,2.1945,2.2516,2.249,2.2347,2.2607,2.31,2.3529,2.3529,2.3724,2.3918,2.3918,2.3918,2.3918,2.3918,2.3918,2.3918,2.3918,2.3918,2.3918,2.3918,2.3918,2.3918,2.3918,2.3918,2.3918,2.3918,2.3918,2.3918,2.3918,2.3918,2.3918,2.3918,2.3918,2.3918,2.3918,2.3918,2.4061,2.4373,2.4386,2.5101,2.66,2.5709,2.5842,2.6858,2.6294,2.6738,2.0646,2.1088,2.1066,1.8496,1.7205,1.7238,1.949,2.0593,2.2038,2.526,2.8344,3.153,3.461,3.7946,4.1633,4.5509,4.715,4.6669,4.2549,4.1138,3.9422,3.6552,3.5004,3.4112,3.3998,3.006,2.7004,2.5704,2.2986,2.1127,2.0678,2.0652,2.0652,2.0652,2.0652,2.0652,2.0652,2.0652,2.0652,2.0652,2.0652,2.0652,2.0652,2.0652,2.0652,2.0652,2.0652,2.0652,2.0652,2.0652,2.0652,2.0652,2.0652,2.0652,2.0652,2.0652,2.0652,2.0652,2.0652,2.0652,2.0652,2.0652,2.0652,2.0744,2.1101,2.1243,2.1347,2.1815,2.1672,2.1477,2.1958,2.2503,2.2945,2.2945,2.3308,2.3685,2.3763,2.3789,2.3802,2.3892,2.3918,2.3918,2.3918,2.3918,2.3918,2.3918,2.3918,2.3918,2.3918,2.3918,2.3918,2.3918,2.3918,2.3918,2.3918,2.3918,2.3918,2.3918,2.3918,2.3918,2.3918,2.3918,2.3918,2.3918,2.3918,2.5005,2.7387,2.5957,2.6351,2.848,2.6832,2.614,2.0657,2.1333,2.0576,1.4754,1.6616,1.924,1.6932,1.988,2.3245,2.3335,2.6429,3.0449,3.4275,3.6269,3.8453,4.2307,4.3401,4.3198,4.1552,4.1876,4.0835,3.6687,3.601,3.5574,3.489,3.095,2.8179,2.7496,2.3722,2.1127,2.0678,2.0652,2.0652,2.0652,2.0652,2.0652,2.0652,2.0652,2.0652,2.0652,2.0652,2.0652,2.0652,2.0652,2.0652,2.0652,2.0652,2.0652,2.0652,2.0652,2.0652,2.0652,2.0652,2.0652,2.0652,2.0652,2.0652,2.0652,2.0652,2.0652,2.0652,2.0652,2.0652,2.0665,2.0757,2.0783,2.0796,2.0763,2.1062,2.1386,2.1477,2.1919,2.2334,2.2334,2.2412,2.2607,2.31,2.3204,2.3334,2.3827,2.3918,2.3918,2.3918,2.3918,2.3918,2.3918,2.3918,2.3918,2.3918,2.3918,2.3918,2.3918,2.3918,2.3918,2.3918,2.3918,2.3918,2.3918,2.3918,2.3918,2.3918,2.3918,2.3918,2.3918,2.3918,2.4803,2.6722,2.6439,2.7473,2.9392,2.7996,2.8247,2.0765,1.8669,1.6108,1.3044,1.3684,1.4681,1.3043,1.7546,2.2248,2.3407,2.6495,3.0126,3.366,3.3861,3.5037,3.9551,3.9549,3.957,4.1008,4.0446,3.9023,3.6473,3.584,3.5422,3.5042,3.1352,2.8677,2.771,2.4334,2.2036,2.1464,2.1438,2.1295,2.0984,2.0984,2.0984,2.0984,2.0685,2.0652,2.0652,2.0652,2.0652,2.0652,2.0652,2.0652,2.0652,2.0652,2.0652,2.0652,2.0652,2.0652,2.0652,2.0652,2.0652,2.0652,2.0652,2.0652,2.0652,2.0652,2.0652,2.0652,2.0652,2.0652,2.0652,2.0652,2.0652,2.0652,2.0652,2.0835,2.0906,2.0906,2.1334,2.175,2.175,2.1984,2.2282,2.2542,2.2607,2.2776,2.3347,2.3451,2.3555,2.3853,2.3918,2.3918,2.3918,2.3918,2.3918,2.3918,2.3918,2.3918,2.3918,2.3918,2.3918,2.3918,2.5716,2.6563,2.5461,2.6422,2.5999,2.4049,2.4892,2.4892,2.3918,2.4892,2.6296,2.8228,2.8228,2.9199,3.0983,2.9392,2.8563,2.0444,0.0,1.1637,0.9813,0.8634,0.8402,0.0,1.507,2.0407,2.386,2.6877,2.9945,3.327,3.243,3.2621,3.7101,3.6571,3.6781,3.991,3.8697,3.721,3.6261,3.5498,3.508,3.527,3.2191,2.9486,2.7839,2.5215,2.3361,2.2243,2.2204,2.201,2.1581,2.1568,2.1503,2.1373,2.0802,2.0652,2.0652,2.0652,2.0652,2.0652,2.0652,2.0652,2.0652,2.0652,2.0652,2.0652,2.0652,2.0652,2.0652,2.0652,2.0652,2.0652,2.0652,2.0652,2.0652,2.0652,2.0652,2.0652,2.0652,2.0652,2.0652,2.0652,2.0652,2.0652,2.0652,2.0652,2.0652,2.0652,2.0854,2.1179,2.1179,2.1503,2.1854,2.1984,2.201,2.2178,2.2763,2.2867,2.3009,2.3438,2.362,2.3724,2.3724,2.3827,2.3918,2.3918,2.3918,2.3918,2.3918,2.4335,2.462,2.462,2.767,2.8922,2.7406,2.8645,2.8089,2.4763,2.5872,2.573,2.3905,2.573,2.7406,2.8922,2.975,3.1119,3.2894,3.0983,2.9337,0.0,1.4809,0.9639,0.2667,0.0861,0.2471,0.8952,1.3609,0.0,2.3919,2.697,2.9621,3.3221,3.2885,3.2841,3.491,3.506,3.549,3.7466,3.7683,3.721,3.6261,3.5498,3.5308,3.5931,3.3614,3.1049,2.8649,2.6676,2.469,2.223,2.2204,2.2191,2.2152,2.2152,2.1906,2.1373,2.0802,2.0652,2.0652,2.0652,2.0652,2.0652,2.0652,2.0652,2.0652,2.0652,2.0652,2.0652,2.0652,2.0652,2.0652,2.0652,2.0652,2.0652,2.0652,2.0652,2.0652,2.0652,2.0652,2.0652,2.0652,2.0652,2.0652,2.0652,2.0652,2.0652,2.0652,2.0652,2.0652,2.0652,2.0678,2.0718,2.0718,2.0744,2.0914,2.1308,2.1425,2.1594,2.2165,2.2269,2.2282,2.2321,2.2776,2.3139,2.3139,2.3581,2.3918,2.3918,2.3918,2.3918,2.3918,2.5461,2.6437,2.6437,2.8367,2.9475,2.9337,2.9475,2.8645,2.6578,2.6578,2.573,2.3905,2.573,2.6718,2.6859,3.042,3.3047,3.4721,3.2894,3.2069,1.7823,1.2549,0.6886,0.3942,-0.1727,-0.3372,0.8866,1.548,2.0493,2.5433,2.8166,3.0571,3.3932,3.2314,3.1681,3.5128,3.3729,3.3265,3.6226,3.6666,3.6321,3.5498,3.5194,3.5137,3.5441,3.2532,3.0168,2.9226,2.6341,2.4192,2.3282,2.3269,2.31,2.2763,2.2399,2.1932,2.1373,2.0802,2.0652,2.0652,2.0652,2.0652,2.0652,2.0652,2.0652,2.0652,2.0652,2.0652,0.0,2.0652,2.0652,2.0652,2.0652,2.0652,2.0652,2.0652,2.0652,2.0652,2.0652,2.0652,2.0652,2.0652,2.0652,2.0652,2.0652,2.0652,2.0652,2.0652,2.0652,2.0652,2.0652,2.0652,2.0652,2.0652,2.0652,2.0705,2.0802,2.0841,2.101,2.1581,2.1685,2.1789,2.2152,2.2386,2.2659,2.3009,2.3256,2.3516,2.3866,2.3918,2.3918,2.3918,2.5603,2.7531,2.9871,3.1815,3.2509,3.1255,3.2356,3.1544,2.8506,2.9596,2.9321,2.7391,2.8089,2.906,3.0146,3.151,3.3181,3.5004,3.4304,3.3315,1.6974,1.2527,0.777,0.7152,-0.0141,-0.4467,0.5928,1.4282,2.1081,2.5346,2.8166,3.0981,3.4378,3.2444,3.1562,3.5184,3.3148,3.2299,3.5414,3.584,3.5631,3.508,3.5232,3.5289,3.5023,3.2221,3.0162,2.9612,2.6563,2.4478,2.3905,2.3918,2.3659,2.3087,2.2334,2.1763,2.1373,2.0802,2.0652,2.0652,2.0652,2.0652,2.0652,2.0652,2.0652,2.0652,2.0652,2.0652,2.0652,2.0652,2.0652,2.0652,2.0652,2.0652,2.0652,2.0652,2.0652,2.0652,2.0652,2.0652,2.0652,2.0652,2.0652,2.0652,2.0652,2.0652,2.0652,2.0652,2.0652,2.0652,2.0652,2.0652,2.0652,2.0652,2.0652,2.0652,2.0652,2.0652,2.0757,2.1023,2.1101,2.1218,2.162,2.1828,2.2075,2.2477,2.2685,2.3009,2.3581,2.3646,2.3995,2.4736,2.6422,2.8595,3.1238,3.337,3.4063,3.2802,3.4155,3.3619,3.0573,3.1645,3.1374,2.9612,3.0146,3.0966,3.2339,3.2894,3.3734,3.5004,3.5004,3.4434,1.6836,1.5464,1.3294,1.106,0.5204,0.0,0.0,0.9387,1.908,2.2718,2.6733,3.0673,3.4346,3.3415,3.2894,3.4721,3.3467,3.2894,3.4721,3.5004,3.5004,3.5004,3.5726,3.5896,3.5099,3.3315,3.151,2.975,2.7685,2.5872,2.4062,2.3905,2.3646,2.3074,2.1958,2.1373,2.136,2.0802,2.0652,2.0652,2.0652,2.0652,2.0652,2.0652,2.0652,2.0652,2.0652,2.0652,2.0652,2.0652,2.0652,2.0652,2.0652,2.0652,2.0652,2.0652,2.0652,2.0652,2.0652,2.0652,2.0652,2.0652,2.0652,2.0652,2.0652,2.0652,2.0652,2.0652,2.0652,2.0652,2.0652,2.0652,2.0652,2.0652,2.0652,2.0652,2.0652,2.0652,2.0652,2.0652,2.0652,2.0652,2.0652,2.0997,2.136,2.1373,2.1841,2.2412,2.3134,2.32,2.4104,2.6351,2.8352,2.9555,2.9795,3.2229,3.377,3.377,3.453,3.4133,3.2303,3.2303,3.1357,2.958,3.1357,3.2303,3.2321,3.4152,3.5004,3.5004,3.5004,3.5441,1.6281,1.4553,1.2459,1.2085,0.7498,0.3072,0.3612,0.866,1.5233,2.2069,2.6069,2.9516,3.4174,3.2449,3.0983,3.276,3.042,2.9459,3.2626,3.3029,3.36,3.4872,3.5213,3.4698,3.3199,3.3734,3.2912,2.975,2.6563,2.4464,2.3905,2.3529,2.288,2.1906,2.1542,2.1179,2.0776,2.0731,2.0652,2.0652,2.0652,2.0652,2.0652,2.0652,2.0652,2.0652,2.0652,2.0652,2.0652,2.0652,2.0652,2.0652,2.0652,2.0652,2.0652,2.0652,2.0652,2.0652,2.0652,2.0652,2.0652,2.0652,2.0652,2.0652,2.0652,2.0652,2.0652,2.0652,2.0652,2.0652,2.0652,2.0652,2.0652,2.0652,2.0652,2.0652,2.0652,2.0652,2.0652,2.0652,2.0652,2.0652,2.0652,2.1619,2.2237,2.1551,2.3382,2.4735,2.4254,2.5238,2.6089,2.6799,2.8521,3.0288,3.153,3.2373,3.2897,3.2897,3.3125,3.2987,3.2445,3.2464,3.2192,3.1539,3.2065,3.2742,3.3317,3.3873,3.4435,3.5004,3.5004,3.5137,1.6895,1.5435,1.3794,1.2665,1.0201,0.7956,0.7517,1.0175,1.4356,2.0091,2.3814,2.7844,3.3912,3.327,3.1712,3.1916,2.9973,2.9025,3.0527,3.1464,3.2137,3.276,3.4171,3.4304,3.2473,3.3315,3.2643,2.975,2.5999,2.3815,2.3594,2.2828,2.2178,2.1724,2.1269,2.0867,2.0652,2.0652,2.0652,2.0652,2.0652,2.0652,2.0652,2.0652,2.0652,2.0652,2.0652,2.0652,2.0652,2.0652,2.0652,2.0652,2.0652,2.0652,2.0652,2.0652,2.0652,2.0652,2.0652,2.0652,2.0652,2.0652,2.0652,2.0652,2.0652,2.0652,2.0652,2.0652,2.0652,2.0652,2.0652,2.0652,2.0652,2.0652,2.0652,2.0652,2.0652,2.0652,2.0652,2.0652,2.0652,2.0652,2.0652,2.1348,2.1946,2.1946,2.3588,2.4924,2.5245,2.6085,2.7068,2.7979,2.9117,3.024,3.1373,3.1815,3.2005,3.2005,3.2328,3.2395,3.2395,3.2395,3.2395,3.2395,3.2395,3.2783,3.3277,3.3277,3.3543,3.4036,3.4378,3.453,1.8401,1.7666,1.6476,1.3286,1.3219,1.3344,1.1215,1.304,1.5513,1.7215,2.0996,2.626,3.3633,3.4751,3.38,3.1413,3.0847,3.0161,2.8532,2.9721,3.052,2.9927,3.2643,3.4171,3.2473,3.2339,3.1374,2.9475,2.6083,2.3748,2.31,2.2036,2.1659,2.2113,2.114,2.0757,2.0685,2.0757,2.0731,2.0731,2.0731,2.0705,2.0652,2.0652,2.0652,2.0652,2.0652,2.0652,2.0652,2.0652,2.0652,2.0652,2.0652,2.0652,2.0652,2.0652,2.0652,2.0652,2.0652,2.0652,2.0652,2.0652,2.0652,2.0652,2.0652,2.0652,2.0652,2.0652,2.0652,2.0652,2.0652,2.0652,2.0652,2.0652,2.0652,2.0652,2.0762,2.0762,2.0885,2.1007,2.1007,2.1007,2.1007,2.113,2.1714,2.3003,2.3349,2.4161,2.6015,2.634,2.7322,2.9502,2.9892,2.9955,2.9955,3.0657,3.123,3.123,3.1853,3.2168,3.2168,3.2168,3.2168,3.2168,3.2168,3.2328,3.2404,3.2404,3.2319,3.2432,3.3315,3.3676,2.1444,2.0053,1.8123,1.6709,1.5638,1.4539,1.2929,1.4173,1.5259,1.3824,2.0058,2.7734,3.3825,3.3297,3.1239,2.9491,2.7442,2.6251,2.6362,2.6826,2.815,3.1289,3.2356,3.276,3.2339,3.2339,3.083,2.7546,2.6115,2.47,2.3213,2.2412,2.188,2.1555,2.1308,2.1399,2.1841,2.1412,2.1192,2.1192,2.1192,2.0958,2.0652,2.0652,2.0652,2.0652,2.0652,2.0652,2.0652,2.0652,2.0652,2.0652,2.0652,2.0652,2.0652,2.0652,2.0652,2.0652,2.0652,2.0652,2.0652,2.0652,2.0652,2.0652,2.0652,2.0652,2.0652,2.0652,2.0652,2.0652,2.0652,2.0652,2.0652,2.0652,2.0652,2.0885,2.2186,2.2414,2.2777,2.3978,2.4217,2.4217,2.4217,2.5271,2.5844,2.4916,2.6897,2.8126,2.7371,2.834,2.9339,2.9871,2.9935,2.9955,2.9955,3.0126,3.024,3.024,3.041,3.0505,3.0505,3.0505,3.0505,3.0505,3.0505,3.0828,3.1511,3.1511,3.1853,3.2395,3.2707,3.2802,2.4202,2.2522,2.0458,1.9119,1.7476,1.5783,1.4596,1.4677,1.494,1.4837,1.9564,2.5589,3.1973,3.3072,3.1892,2.8652,2.6699,2.5229,2.4169,2.4923,2.6467,2.9193,3.1102,3.2339,3.2339,3.2339,3.1102,2.8228,2.6672,2.5108,2.3213,2.2529,2.2075,2.1789,2.1503,2.1503,2.1802,2.1516,2.1503,2.1776,2.1776,2.162,2.1334,2.1334,2.1192,2.0932,2.0932,2.0776,2.0652,2.0652,2.0652,2.0652,2.0652,2.0652,2.0652,2.0652,2.0652,2.0652,2.0652,2.0652,2.0652,2.0652,2.0652,2.0652,2.0652,2.0652,2.0652,2.0652,2.0652,2.0652,2.0652,2.0652,2.0652,2.0652,2.1117,2.1943,2.2762,2.3469,2.4321,2.5168,2.5287,2.5287,2.5287,2.5995,2.6447,2.6447,2.7744,2.8779,2.8779,2.9369,2.9955,2.9955,2.9955,2.9955,2.9955,2.9955,2.9955,2.9955,2.9955,2.9955,2.9955,2.9955,2.9955,2.9955,2.9955,3.0183,3.0619,3.0619,3.0847,3.1303,3.172,3.1891,2.6843,2.5724,2.3798,2.1928,2.0142,1.8417,1.6954,1.5614,1.5277,1.7282,1.9733,2.3255,2.9145,3.2657,3.3149,2.8597,2.6997,2.5184,2.2484,2.3676,2.528,2.6494,2.9845,3.2268,3.2742,3.2204,3.1238,2.9612,2.6992,2.4783,2.2912,2.223,2.201,2.2204,2.175,2.1607,2.1802,2.1711,2.1893,2.236,2.236,2.2308,2.2204,2.2113,2.1815,2.136,2.1269,2.0958,2.0652,2.0652,2.0652,2.0652,2.0652,2.0652,2.0652,2.0652,2.0652,2.0652,2.0652,2.0652,2.0652,2.0652,2.0652,2.0652,2.0652,2.0652,2.0652,2.0652,2.0652,2.0639,2.0885,2.1007,2.1117,2.1361,2.2428,2.3364,2.3364,2.4559,2.5759,2.5995,2.6095,2.6095,2.6095,2.6095,2.6564,2.7859,2.7975,2.8435,2.9728,2.9955,2.9955,2.9955,2.9955,2.9955,2.9955,2.9955,2.9955,2.9955,2.9955,2.9955,2.9955,2.9955,2.9955,2.9955,2.9955,2.9955,2.9955,2.9955,2.9955,2.9974,3.0828,3.1268,3.0237,3.079,2.9826,2.7281,2.6429,2.5139,2.1218,1.9232,1.8273,1.8079,2.158,2.499,2.5941,2.9729,3.1889,2.8947,2.6542,2.4281,2.1997,2.3082,2.4647,2.6317,2.9325,3.2235,3.4418,3.1815,2.975,2.9612,2.6276,2.3495,2.1723,2.1062,2.1205,2.2178,2.2139,2.2568,2.3568,2.3087,2.2893,2.2957,2.2957,2.2698,2.2191,2.1711,2.1438,2.1347,2.0854,2.0718,2.0652,2.0652,2.0652,2.0652,2.0652,2.0652,2.0652,2.0652,2.0652,2.0652,2.0652,2.0652,2.0652,2.0652,2.0652,2.0652,2.0652,2.0652,2.0652,2.0652,2.0652,2.0885,2.2293,2.2642,2.3003,2.4337,2.4813,2.4931,2.4931,2.6213,2.7744,2.9026,2.9255,2.9255,2.9255,2.9255,2.9369,2.9615,2.9615,2.9728,2.9955,2.9955,2.9955,2.9955,2.9955,2.9955,2.9955,2.9955,2.9955,2.9955,2.9955,2.9955,2.9955,2.9955,2.9955,2.9955,2.9955,2.9955,2.9955,2.9955,2.9955,2.9974,3.0828,3.0828,2.9322,3.092,3.1321,3.0386,2.8959,2.7417,2.5433,2.3388,2.2034,2.2341,2.4587,2.6926,2.8178,3.0853,3.197,2.925,2.6057,2.3388,2.181,2.1837,2.2903,2.5013,2.7596,3.003,3.2121,3.0255,2.8451,2.7152,2.4295,2.2389,2.1828,2.1308,2.1373,2.2178,2.2204,2.2451,2.2957,2.2711,2.275,2.3061,2.2737,2.2451,2.2204,2.2282,2.1971,2.1373,2.1438,2.1114,2.0652,2.0652,2.0652,2.0652,2.0652,2.0652,2.0652,2.0652,2.0652,2.0652,2.0652,2.0652,2.0652,2.0652,2.0652,2.0652,2.0652,2.0652,2.0652,2.0652,2.1239,2.2051,2.2762,2.3604,2.444,2.5168,2.5995,2.6564,2.6564,2.7859,2.9141,2.9842,2.9955,2.9955,2.9955,2.9955,2.9955,2.9955,2.9955,2.9955,2.9955,2.9955,2.9955,2.9955,2.9955,2.9955,2.9955,2.9955,2.9955,2.9955,2.9955,2.9955,2.9955,2.9955,2.9955,2.9955,2.9955,2.9955,2.9955,3.0429,3.0676,3.0695,3.1549,3.1758,3.0036,3.2343,3.3204,3.3815,3.2226,3.0421,2.9822,2.7491,2.56,2.6272,2.6797,2.7716,2.9627,3.1612,3.1887,2.847,2.549,2.2908,2.1161,2.0675,2.1081,2.2343,2.5511,2.8236,2.9769,2.8432,2.6292,2.3691,2.197,2.1114,2.1542,2.1308,2.1412,2.1984,2.1997,2.2062,2.2204,2.2347,2.2646,2.3061,2.2477,2.2204,2.2217,2.2503,2.2178,2.1386,2.1659,2.1308,2.0652,2.0652,2.0652,2.0652,2.0652,2.0652,2.0652,2.0652,2.0652,2.0652,2.0652,2.0652,2.0652,2.0652,2.0652,2.0652,2.0652,2.0652,2.0652,2.0652,2.17,2.3003,2.3469,2.4678,2.5995,2.633,2.7396,2.8205,2.8205,2.9141,2.9955,2.9955,2.9955,2.9955,2.9955,2.9955,2.9955,2.9955,2.9955,2.9955,2.9955,2.9955,2.9955,2.9955,2.9955,2.9955,2.9955,2.9955,2.9955,2.9955,2.9955,2.9955,2.9955,2.9955,2.9955,2.9955,3.0164,3.0278,3.0278,3.1132,3.1549,3.1568,3.2442,3.2726,3.5091,3.8005,3.7662,3.8985,3.8166,3.6503,3.4364,3.1443,2.8874,2.8192,2.7246,2.6661,2.7295,3.0193,3.0939,2.6062,2.4831,2.3156,1.9563,1.998,1.9837,1.7697,2.3318,2.8036,2.9447,2.6388,2.2835,1.9457,1.9465,1.9763,1.9789,2.0296,2.0828,2.1399,2.1412,2.1672,2.2204,2.2763,2.3048,2.3061,2.2477,2.2204,2.2191,2.1685,2.1425,2.1347,2.0841,2.0705,2.0652,2.0652,2.0652,2.0652,2.0652,2.0652,2.0652,2.0652,2.0652,2.0652,2.0652,2.0652,2.0652,2.0652,2.0652,2.0652,2.0652,2.0652,2.0652,2.0652,2.17,2.3244,2.4797,2.633,2.7842,2.9369,2.9728,2.9842,2.9842,2.9842,2.9955,2.9955,2.9955,2.9955,2.9955,2.9955,2.9955,2.9955,2.9955,2.9955,2.9955,2.9955,2.9955,2.9955,2.9955,2.9955,2.9955,2.9955,2.9955,2.9955,2.9955,2.9955,2.9955,2.9955,2.9955,2.9955,3.0752,3.1268,3.1287,3.2043,3.2461,3.248,3.3334,3.3296,2.4351,3.0441,3.4935,3.8211,3.9617,3.9789,3.8397,3.6098,3.4022,3.3343,3.2071,3.1264,3.1437,3.0182,2.8639,2.6862,2.4092,2.1959,2.1197,1.9532,1.8694,1.9476,2.1186,2.239,2.2624,2.2711,2.1886,1.9808,2.0092,2.0,1.9127,1.9322,1.9698,2.0257,2.0633,2.1101,2.1659,2.223,2.2334,2.1971,2.1399,2.1127,2.114,2.1295,2.1179,2.0841,2.0997,2.0867,2.0652,2.0652,2.0652,2.0652,2.0652,2.0652,2.0652,2.0652,2.0652,2.0652,2.0652,2.0652,2.0652,2.0652,2.0652,2.0652,2.0652,2.0652,2.0652,2.0652,2.2428,2.4559,2.5168,2.7147,2.9255,2.9842,2.9955,2.9955,2.9955,2.9955,2.9955,2.9955,2.9955,2.9955,2.9955,2.9955,2.9955,2.9955,2.9955,2.9955,2.9955,2.9955,2.9955,2.9955,2.9955,2.9955,2.9955,2.9955,2.9955,2.9955,2.9955,2.9955,2.9955,2.9955,2.9955,2.9955,3.079,3.1345,3.1345,3.265,3.3334,3.3353,3.4188,3.4416,1.5938,2.6188,3.5105,3.7799,4.0244,4.1937,4.1541,3.9668,3.7922,3.7496,3.588,3.4336,3.3768,3.0988,2.8649,2.8302,2.5594,2.3131,2.2061,1.987,1.9178,2.1192,2.0577,1.9968,2.0045,2.1403,2.1939,2.0846,2.1056,2.066,1.9291,1.9356,1.9425,1.9374,1.9945,2.0412,2.0789,2.1555,2.1646,2.1075,2.0906,2.0835,2.0665,2.0906,2.088,2.0665,2.0919,2.0867,2.0652,2.0652,2.0652,2.0652,2.0652,2.0652,2.0652,2.0652,2.0652,2.0652,2.0652,2.0652,2.0652,2.0652,2.0652,2.0652,2.0652,2.0652,2.0762,2.1239,2.3259,2.5405,2.586,2.7975,2.9955,2.9955,2.9955,2.9955,2.9955,2.9955,2.9955,2.9955,2.9955,2.9955,2.9955,2.9955,2.9955,2.9955,2.9955,2.9955,2.9955,2.9955,2.9955,2.9955,2.9955,2.9955,2.9955,2.9955,2.9955,2.9955,2.9955,2.9955,2.9955,2.9955,2.9955,2.9955,3.1075,3.1663,3.1663,3.3372,3.4055,3.3808,3.4625,3.4871,1.1557,2.6199,3.8393,3.7978,4.031,4.3003,4.3729,4.1976,4.0304,4.0304,3.8065,3.5578,3.3933,3.2464,3.1186,3.0172,2.9396,2.7097,2.1967,2.1108,2.15,2.235,2.1657,2.1411,2.2381,2.2797,2.2791,2.2441,2.2165,2.1337,2.0112,2.0493,2.019,1.8902,1.9335,1.962,1.9633,2.0763,2.1049,2.0626,2.1075,2.1049,2.0652,2.0652,2.0652,2.0652,2.0529,2.0529,2.0529,2.0529,2.0529,2.0529,2.0529,2.0652,2.0652,2.0652,2.0529,2.0529,2.0529,2.0652,2.0652,2.0652,2.0652,2.0652,2.0652,2.0652,2.0885,2.2521,2.4083,2.5641,2.7147,2.8779,2.9955,2.9955,2.9955,2.9955,2.9955,2.9955,2.9955,2.9955,2.9955,2.9955,2.9955,2.9955,2.9955,2.9955,2.9955,2.9955,2.9955,2.9955,2.9955,2.9955,2.9955,2.9955,2.9955,2.9955,2.9955,2.9955,2.9955,2.9955,2.9955,2.9955,2.9936,2.9917,3.1606,3.248,3.2442,3.415,3.4679,3.3898,3.4717,3.4679,0.7316,1.8444,2.6446,3.1117,3.5551,3.9301,4.1578,4.2032,4.1953,4.2147,4.0794,3.914,3.7683,3.7126,3.6054,3.3466,3.4539,3.3611,2.731,2.4824,2.4218,2.5779,2.4452,2.3894,2.5316,2.4821,2.4263,2.3818,2.2234,2.1124,2.0723,1.9115,1.8599,1.9668,1.8883,1.8633,1.9049,1.9776,2.0062,1.9906,2.049,2.0796,2.0652,2.0652,2.0652,2.0529,1.9282,1.8773,1.8773,1.8773,1.8773,1.8898,2.0147,2.0652,2.0652,2.0652,1.9777,1.8898,2.0147,2.0652,2.0652,2.0652,2.0652,2.0652,2.0652,2.0652,2.0885,2.2521,2.4083,2.5641,2.7147,2.8779,2.9955,2.9955,2.9955,2.9955,2.9955,2.9955,2.9955,2.9955,2.9955,2.9955,2.9955,2.9955,2.9955,2.9955,2.9955,2.9955,2.9955,2.9955,2.9955,2.9955,2.9955,2.9955,2.9955,2.9955,2.9955,2.9955,2.9955,2.9955,2.9955,2.9955,2.967,2.9082,3.0733,3.1854,3.2131,3.4642,3.5818,3.5908,3.5879,3.5681,-0.0799,1.0594,2.0445,2.5036,2.9786,3.4181,3.7314,3.8981,4.0161,4.1384,4.1001,4.045,4.074,3.9584,3.8223,3.7115,3.716,3.5582,3.0562,2.7851,2.6572,2.7367,2.5741,2.5191,2.6785,2.638,2.584,2.5319,2.367,2.242,2.1802,1.9847,1.9048,1.9628,1.8455,1.8114,1.8452,1.9036,1.9309,1.9309,1.9646,1.9932,2.0166,2.0166,1.993,1.9393,1.7754,1.7005,1.713,1.7766,1.8027,1.8276,1.99,2.0147,1.9591,1.9744,1.9207,1.8491,1.9577,1.9815,1.9854,2.0088,2.0166,2.0218,2.0574,2.0652,2.113,2.3244,2.4559,2.5759,2.7975,2.9255,2.9955,2.9955,2.9955,2.9955,2.9955,2.9955,2.9955,2.9955,2.9955,2.9955,2.9955,2.9955,2.9955,2.9955,2.9955,2.9955,2.9955,2.9955,2.9709,2.9026,2.8912,2.8665,2.809,2.855,2.8912,2.8912,2.9596,2.9803,2.9461,2.9442,2.9234,2.874,3.0031,3.1291,3.2608,3.4539,3.5726,3.622,3.6863,3.7144,-0.8854,0.3803,1.7481,1.935,2.3303,2.7745,0.0,3.3644,3.5617,3.8125,3.87,3.9506,4.1863,4.0054,3.8731,4.0186,3.799,3.5172,3.2532,3.0243,2.8622,2.7965,2.6284,2.5774,2.7542,2.7396,2.7054,2.6608,2.5513,2.4336,2.3395,2.1852,2.0474,1.9481,1.8554,1.7974,1.776,1.8439,1.8724,1.8724,1.8789,1.9088,1.9568,1.9568,1.9006,1.7855,1.6335,1.5454,1.5329,1.6843,1.7349,1.7597,1.9467,1.9087,1.7741,1.8603,1.8702,1.859,1.8828,1.8828,1.8906,1.94,1.9568,1.9659,2.042,2.0739,2.1374,2.4584,2.5458,2.6213,2.9141,2.9955,2.9955,2.9955,2.9955,2.9955,2.9955,2.9955,2.9955,2.9955,2.9955,2.9955,2.9955,2.9955,2.9993,3.0088,3.0107,3.0107,3.0107,3.0012,2.9369,2.7744,2.7628,2.6914,2.5405,2.6564,2.7379,2.7611,2.882,2.9276,2.8778,2.8645,2.8696,2.8804,2.9515,3.0958,3.3457,3.4326,3.5025,3.5715,3.7506,3.8718,0.0,0.0,0.0,0.0,0.0,0.0,0.0,2.6784,2.8806,3.0722,3.3051,3.4939,3.5577,3.8197,3.975,3.8105,3.8061,3.7489,3.5274,3.2539,3.0823,3.1117,2.7612,2.6225,2.915,2.706,2.5878,2.6589,2.4318,2.3695,2.5538,2.2629,2.1192,2.1664,1.9863,1.8274,1.7283,1.7841,1.8127,1.8018,1.8595,1.888,1.8984,1.8984,1.8235,1.6921,1.6677,1.5022,1.2774,1.3138,1.3256,1.3492,1.6317,1.6434,1.5225,1.7846,1.7999,1.7055,1.8351,1.8828,1.8841,1.8945,1.8984,1.9225,2.044,2.1262,2.2346,2.5347,2.6699,2.7628,2.9482,2.9955,2.9955,2.9955,2.9955,2.9955,2.9955,2.9955,2.9955,2.9955,2.9955,2.9955,2.9955,2.9955,3.0183,3.0885,3.098,3.098,3.098,3.0373,2.9369,2.7744,2.7628,2.6914,2.5405,2.5523,2.6229,2.7512,2.7276,2.7665,2.874,2.8095,2.8218,2.9395,2.9156,3.0311,3.3135,3.4861,3.5848,3.6283,3.7517,3.8762,0.0,0.0,0.0,0.0,0.0,0.0,0.0,0.0,0.0,0.0,0.0,3.0246,3.2874,0.0,3.7555,3.8751,3.8605,3.8157,3.7485,3.4071,3.169,3.1854,2.8885,2.6959,2.743,2.6046,2.53,2.5839,2.4509,2.4227,2.561,2.2945,2.1796,2.2634,2.0581,1.8954,1.8095,1.8294,1.8145,1.7543,1.7828,1.8114,1.8387,1.7711,1.6718,1.5456,1.464,1.3031,1.0828,1.0828,1.1289,1.229,1.4052,1.465,1.4859,1.719,1.7406,1.6733,1.6865,1.7419,1.7902,1.7514,1.7835,1.866,2.0355,2.1086,2.2008,2.4911,2.6081,2.671,2.8267,2.8721,2.8721,2.8721,2.8721,2.8721,2.8721,2.9044,2.9347,2.9347,2.967,2.9955,2.9955,3.0867,3.1638,3.1386,3.1587,3.172,3.1402,3.0847,2.9455,2.6338,2.6024,2.5104,2.2654,2.2432,2.3259,2.5105,2.5416,2.5479,2.5561,2.5711,2.6194,2.6867,2.7639,2.9747,3.3087,3.4426,3.5936,3.7451,3.7247,3.8335,0.0,0.0,0.0,0.0,0.0,0.0,0.0,0.0,0.0,0.0,0.0,0.0,0.0,0.0,0.0,3.9143,3.9074,3.8668,3.9211,3.5308,3.2384,3.2336,3.0127,2.7706,2.5339,2.5119,2.512,2.5061,2.5041,2.5159,2.5414,2.3431,2.2561,2.2948,2.1198,1.979,1.8802,1.8802,1.8287,1.7114,1.7114,0.0,1.7683,1.6384,1.5055,1.382,1.2524,1.0963,0.948,0.954,1.0329,1.1578,1.1912,1.3062,1.4647,1.6322,1.7023,1.6909,1.575,1.6237,1.7153,1.6504,1.7156,1.8397,2.0471,2.1098,0.0,2.4505,2.542,2.5861,2.7052,2.7364,2.7364,2.7364,2.7364,2.7364,2.7364,2.8019,2.855,2.8702,2.9473,3.0083,2.9936,3.2131,3.3462,3.2126,3.2661,3.2789,3.1707,3.1459,2.9744,2.5812,2.4877,2.3418,2.0513,1.9738,2.0314,2.2187,2.315,2.3076,2.1826,2.2668,2.3165,2.3351,2.5068,2.7966,3.1827,3.2885,3.4869,3.7607,3.5476,3.5909,0.0,0.0,0.0,0.0,0.0,0.0,0.0,0.0,0.0,0.0,0.0,0.0,0.0,0.0,0.0,0.0,3.8764,4.042,4.015,3.678,3.4445,3.4761,3.1092,2.7673,2.5303,2.5123,2.5081,2.5106,2.5086,2.5438,2.6351,2.5381,0.0,0.0,0.0,2.0398,1.807,1.8056,1.767,1.7114,1.7114,1.7153,1.7115,1.573,1.4276,1.2962,1.1802,1.0498,0.919,0.9454,0.9524,0.9463,0.9236,1.0488,1.2703,1.5451,1.6686,1.7114,1.6909,0.0,0.0,1.7717,1.8199,1.9177,2.1224,2.2321,2.3315,2.5547,2.6593,2.7156,2.7364,2.7364,2.7364,2.7364,2.7364,2.7364,2.7364,2.744,2.7848,2.8588,2.9839,3.0654,3.0047,3.2883,3.5115,3.4694,3.521,3.4858,3.2602,3.1701,3.0542,2.8677,2.6496,0.0,2.2781,2.0279,1.9268,1.9947,2.059,2.0468,1.9632,1.91,1.9157,1.9924,2.0649,2.3208,2.7533,2.9382,3.1766,3.4569,3.0037,2.924,0.0,0.0,0.0,0.0,0.0,0.0,0.0,0.0,0.0,0.0,0.0,0.0,0.0,0.0,0.0,0.0,3.5458,3.6722,3.6924,3.5702,3.4917,3.5184,3.1313,2.766,2.5289,2.7523,3.0129,3.2608,2.7955,2.5892,2.7687,2.6261,2.5627,2.6083,2.4716,2.2936,2.0874,2.0778,1.9781,1.7769,1.7769,1.7388,1.6634,1.5195,1.4061,1.3069,1.182,1.0445,0.9131,0.925,0.9131,0.9196,0.0,0.0,0.0,0.0,1.6919,1.6909,1.522,1.5359,1.6073,1.5215,1.5683,1.7268,2.1009,2.1998,2.2445,2.5382,2.6158,2.6063,2.6063,2.6063,2.6063,2.6063,2.6424,2.6766,2.6766,2.7145,2.779,2.8868,2.9551,0.0,3.3205,3.5902,3.7882,3.8285,3.7524,3.6385,3.4774,3.3517,3.1266,2.7427,2.6884,2.5329,2.1323,2.0825,0.0,0.0,0.0,1.9234,1.8437,1.7005,0.0,0.0,0.0,2.1437,2.4904,2.5017,0.0,0.0,2.5801,2.6266,0.0,0.0,0.0,0.0,0.0,0.0,0.0,0.0,0.0,0.0,0.0,0.0,0.0,0.0,0.0,0.0,3.152,3.2535,3.2149,3.2258,3.2471,3.2686,2.8353,2.4717,2.3102,2.9468,3.5393,3.9393,3.3731,2.9892,2.9456,2.8054,2.7804,2.8838,2.688,2.5024,2.3087,2.2744,2.1241,1.849,1.849,1.7839,1.6504,1.4676,1.3615,1.3156,1.1632,1.0356,0.9363,0.9223,0.9078,0.9141,1.1682,1.2517,1.2792,1.5926,1.7668,1.8019,1.5013,1.4559,1.5007,1.3514,1.4129,1.6193,2.0383,2.1633,2.2283,2.5408,2.5987,2.5665,2.5437,2.5242,2.5044,2.484,2.4963,2.5326,2.5326,2.6089,2.7137,2.844,2.8829,3.0653,3.5684,3.846,4.0126,4.0509,3.9496,3.8116,3.6393,3.4747,3.2204,2.7991,2.7595,2.5844,2.1567,2.0917,2.0479,1.9426,1.8608,1.7781,1.7086,1.5242,1.3311,1.1582,1.5333,1.8532,0.0,0.0,0.0,0.0,0.0,0.0,0.0,0.0,0.0,0.0,0.0,0.0,0.0,0.0,0.0,0.0,0.0,0.0,0.0,0.0,0.0,0.0,0.0,0.0,2.6195,2.5893,2.6063,2.6313,2.109,1.741,1.7391,2.9903,3.9509,4.2941,4.2963,3.9499,3.2014,3.1524,3.107,3.0074,2.8045,2.5814,2.3506,2.239,2.0914,1.9047,1.9047,1.8371,1.6986,1.4147,1.2902,1.275,1.0806,0.9964,0.9879,0.9611,0.9428,0.9098,0.7396,0.8641,1.1973,1.5596,1.9041,2.1292,1.7936,1.6433,1.5634,1.4201,1.5049,1.7026,1.923,2.1407,2.3447,2.5621,2.6804,2.7118,2.6424,2.5646,2.4858,2.4146,2.3345,2.2872,2.2872,2.4107,2.5508,2.6658,2.7647,3.0101,3.5911,3.9762,4.157,3.9955,4.1038,0.0,3.6621,3.4747,3.3448,3.2414,2.8821,2.6131,2.52,2.0736,1.8244,1.8815,1.7283,1.5984,1.5117,1.3187,1.0752,0.7766,1.038,1.298,1.5452,0.0,0.0,0.0,0.0,0.0,0.0,0.0,0.0,0.0,0.0,0.0,0.0,0.0,0.0,0.0,0.0,0.0,0.0,0.0,0.0,0.0,0.0,0.0,0.0,2.1472,2.134,1.9649,1.3439,1.1335,1.6573,2.9962,4.0396,4.5397,4.5819,4.3468,3.8026,3.6436,3.517,3.4189,3.2159,2.9732,2.6733,2.5672,2.3764,2.1087,2.025,1.9115,1.7797,1.6021,1.4452,1.3117,1.1828,0.952,0.648,0.5868,0.3159,-0.0542,0.0,0.5449,1.3679,1.9645,2.2551,2.3228,2.1178,1.8158,1.488,1.2933,1.3599,1.5991,2.0159,2.2166,2.3416,2.5877,2.6815,2.6955,2.6676,2.5145,2.3602,2.334,2.2853,2.2536,2.2536,2.2866,2.4079,2.6902,2.7179,2.8855,3.442,3.8505,4.1022,4.0924,4.0921,4.0401,3.8965,3.634,3.3262,2.9704,2.9056,2.6822,2.1931,2.099,1.9925,1.8283,1.6847,1.572,1.5024,1.1654,0.9977,1.0128,0.9877,0.9098,0.7812,0.0,0.0,0.0,0.0,0.0,0.0,0.0,0.0,0.0,0.0,0.0,0.0,0.0,0.0,0.0,0.0,0.0,0.0,0.0,0.0,0.0,0.0,0.0,0.0,0.0,0.0,1.2933,0.8934,0.0,1.2494,2.3276,3.054,3.2047,4.0603,4.4537,4.184,3.9866,3.8399,3.7459,3.5378,3.3113,3.0619,2.888,2.6536,2.3684,2.2455,2.0725,1.8481,1.711,1.5492,1.368,1.27,0.8202,0.1438,-0.0876,-0.4591,-0.8267,-0.3359,0.4642,1.4227,2.0796,2.3939,2.4747,2.3689,2.0115,1.5804,1.3294,1.2591,1.35,1.7797,1.9806,2.1247,2.408,2.5479,2.6159,2.6159,2.465,2.2803,2.2003,2.1063,2.0204,1.964,1.9814,2.1239,2.5099,2.5316,2.6453,3.0949,3.5332,3.844,3.9265,3.891,3.8797,3.9385,3.6817,3.3389,2.9296,2.9179,2.6975,2.1259,2.0347,1.9233,1.7348,1.6061,1.4545,1.2779,1.0151,0.9133,0.9875,0.9288,0.7823,0.0,0.0,0.0,0.0,0.0,0.0,0.0,0.0,0.0,0.0,0.0,0.0,0.0,0.0,0.0,0.0,0.0,0.0,0.0,0.0,0.0,0.0,0.0,0.0,0.0,0.0,0.0,0.6834,0.7553,0.0,0.0,0.0,0.0,0.594,2.7982,4.2216,4.33,4.1837,4.0524,3.9625,3.7246,3.5589,3.4599,3.1685,2.9075,2.6577,2.5459,2.2973,1.9118,1.7681,1.6011,1.4244,1.3049,0.6229,-0.4595,-0.9472,-1.2472,-1.3002,-0.2702,0.601,1.3351,1.9041,2.3087,2.5644,2.4904,2.1914,1.8035,1.5279,1.2171,0.9962,1.2395,1.4865,0.0,0.0,2.2929,2.4773,2.4923,2.3846,2.2294,2.0248,1.807,1.6201,1.4705,1.5293,1.7188,2.1112,2.1853,2.2802,2.5797,0.0,3.3947,3.4857,3.5312,3.6291,3.7881,3.6268,3.3855,3.1117,2.8921,2.6371,2.3062,1.9038,1.6505,1.5875,1.4727,1.2471,0.8722,0.8621,0.8161,0.7043,0.8599,0.0,0.0,0.0,0.0,0.0,0.0,0.0,0.0,0.0,0.0,0.0,0.0,0.0,0.0,0.0,0.0,0.0,0.0,0.0,0.0,0.0,0.0,0.0,0.0,0.0,0.0,0.8747,0.8938,1.0343,0.7888,0.5887,0.0,0.0,0.0,0.0,0.0,0.0,4.2486,4.2965,4.1541,3.8985,3.5721,3.4009,3.416,3.3116,3.1418,2.9184,2.6999,2.4317,2.1124,1.9294,1.6386,1.2541,1.0488,0.4994,-0.3178,-0.9741,-1.097,-0.791,0.0257,0.6452,1.1397,1.7711,2.0537,2.1321,2.1584,1.9247,1.5928,1.4137,1.1958,1.0188,1.0887,0.0,0.0,0.0,0.0,2.028,2.2154,2.0752,1.8668,1.8311,1.6602,1.4524,1.2649,1.359,1.5468,1.7459,1.6718,1.7038,2.0756,2.543,0.0,2.9243,3.2135,3.4715,3.5901,3.5401,3.3441,2.9541,2.7946,2.5277,2.0898,1.8013,1.6008,1.4841,1.2164,0.9032,0.5529,0.673,0.73,0.6999,0.0,0.0,0.0,0.0,0.0,0.0,0.0,0.0,0.0,0.0,0.0,0.0,0.0,0.0,0.0,0.0,0.0,0.0,0.0,0.0,0.0,0.0,0.0,0.0,0.0,0.0,0.0,0.7742,0.8596,0.9231,0.7905,0.651,0.0,0.0,0.0,0.0,0.0,0.0,0.0,0.0,0.0,3.5442,3.2116,3.0651,3.1312,3.1549,3.05,2.815,2.7244,2.4816,2.0964,1.9899,1.7105,1.2885,0.9838,0.2703,-0.6942,-0.8858,-0.8454,-0.5839,0.0,0.0,0.0,0.0,1.7023,1.7467,1.8609,1.6903,1.3968,1.2558,0.0,0.0,0.0,0.0,0.0,0.0,0.0,1.7035,1.8801,1.83,1.7121,1.6232,1.4312,1.1958,0.9532,0.9556,1.0798,1.3003,1.323,1.4042,1.721,2.0483,0.0,0.0,0.0,3.136,3.4168,3.4082,3.2475,2.8879,2.7051,2.4115,1.9389,1.7136,1.4923,1.2579,0.7937,0.5327,0.5511,0.4457,0.4624,0.0,0.0,0.0,0.0,0.0,0.0,0.0,0.0,0.0,0.0,0.0,0.0,0.0,0.0,0.0,0.0,0.0,0.0,0.0,0.0,0.0,0.0,0.0,0.0,0.0,0.0,0.0,0.0,0.0,0.8867,0.6301,0.0,0.0,0.0,0.0,0.0,0.0,0.0,0.0,0.0,0.0,0.0,0.0,0.0,2.5892,2.707,2.8122,2.7626,2.5449,2.6276,2.4233,1.9505,1.9344,1.7351,1.3779,0.9252,0.0,-1.0517,-0.6604,0.0,0.0,0.0,0.0,0.0,0.0,0.0,0.0,0.0,0.0,0.0,0.0,0.0,0.0,0.0,0.0,0.0,0.0,0.0,0.0,0.0,0.0,1.5989,1.4031,1.2003,0.968,0.6751,0.5448,0.5701,0.8754,1.0653,1.2444,0.0,0.0,0.0,0.0,0.0,0.0,3.2397,3.2374,3.099,2.8733,2.6024,2.2801,1.8365,1.5962,1.3174,0.9374,0.3382,0.1816,0.5923,0.2566,0.0,0.0,0.0,0.0,0.0,0.0,0.0,0.0,0.0,0.0,0.0,0.0,0.0,0.0,0.0,0.0,0.0,0.0,0.0,0.0,0.0,0.0,0.0,0.0,0.0,0.0,0.0,0.0,0.0,0.0,0.0,0.0,0.0,0.0,0.0,0.0,0.0,0.0,0.0,0.0,0.0,0.0,0.0,0.0,0.0,0.0,0.0,0.0,0.0,0.0,2.3458,2.1333,1.7991,1.6944,1.4971,1.2047,0.4045,0.0176,-0.0351,-0.1262,0.0,0.0,0.0,0.0,0.0,0.0,0.0,0.0,0.0,0.0,0.0,0.0,0.0,0.0,0.0,0.0,0.0,0.0,0.0,0.0,0.0,0.0,1.2246,1.145,1.1521,1.0966,0.8187,0.0,0.0,0.0,0.0,0.0,0.0,0.0,0.0,0.0,0.0,0.0,2.9445,2.9708,2.906,2.7774,2.3982,2.0425,1.7794,1.3775,0.9573,0.5552,0.196,0.0412,0.0,0.0,0.0,0.0,0.0,0.0,0.0,0.0,0.0,0.0,0.0,0.0,0.0,0.0,0.0,0.0,0.0,0.0,0.0,0.0,0.0,0.0,0.0,0.0,0.0,0.0,0.0,0.0,0.0,0.0,0.0,0.0,0.0,0.0,0.0,0.0,0.0,0.0,0.0,0.0,0.0,0.0,0.0,0.0,0.0,0.0,0.0,0.0,0.0,0.0,0.0,0.0,0.0,0.0,0.0,0.0,0.0,0.0,0.3519,0.1382,0.0,0.0,0.0,0.0,0.0,0.0,0.0,0.0,0.0,0.0,0.0,0.0,0.0,0.0,0.0,0.0,0.0,0.0,0.0,0.0,0.0,0.0,0.0,0.0,0.0,0.0,0.0,0.0,0.0,0.0,0.0,0.0,0.0,0.0,0.0,0.0,0.0,0.0,0.0,0.0,2.7357,2.7337,2.6878,2.6372,2.2098,1.8366,1.5802,1.2123,0.7711,0.2432,0.0739,0.0,0.0,0.0,0.0,0.0,0.0,0.0,0.0,0.0,0.0,0.0,0.0,0.0,0.0,0.0,0.0,0.0,0.0,0.0,0.0,0.0,0.0,0.0,0.0,0.0,0.0,0.0,0.0,0.0,0.0,0.0,0.0,0.0,0.0,0.0,0.0,0.0,0.0,0.0,0.0,0.0,0.0,0.0,0.0,0.0,0.0,0.0,0.0,0.0,0.0,0.0,0.0,0.0,0.0,0.0,0.0,0.0,0.0,0.0,0.4688,0.3061,0.0,0.0,0.0,0.0,0.0,0.0,0.0,0.0,0.0,0.0,0.0,0.0,0.0,0.0,0.0,0.0,0.0,0.0,0.0,0.0,0.0,0.0,0.0,0.0,0.0,0.0,0.0,0.0,0.0,0.0,0.0,0.0,0.0,0.0,0.0,0.0,0.0,0.0,0.0,0.0,2.5439,2.5033,2.461,2.4545,2.0244,1.6312,1.3841,1.0521,0.6133,0.0415,0.0,0.0,0.0,0.0,0.0,0.0,0.0,0.0,0.0,0.0,0.0,0.0,0.0,0.0,0.0,0.0,0.0,0.0,0.0,0.0,0.0,0.0,0.0,0.0,0.0,0.0,0.0,0.0,0.0,0.0,0.0,0.0,0.0,0.0,0.0,0.0,0.0,0.0,0.0,0.0,0.0,0.0,0.0,0.0,0.0,0.0,0.0,0.0,0.0,0.0,0.0,0.0,0.0,0.0,0.0,0.0,0.0,0.0,0.0,0.0,0.0,0.0,0.0,0.0,0.0,0.0,0.0,0.0,0.0,0.0,0.0,0.0,0.0,0.0,0.0,0.0,0.0,0.0,0.0,0.0,0.0,0.0,0.0,0.0,0.0,0.0,0.0,0.0,0.0,0.0,0.0,0.0,0.0,0.0,0.0,0.0,0.0,0.0,0.0,0.0,0.0,0.0,2.3191,2.2779,2.2236,2.2341,1.7858,1.4504,1.3348,0.8552,0.4023,0.0208,0.0,0.0,0.0,0.0,0.0,0.0,0.0,0.0,0.0,0.0,0.0,0.0,0.0,0.0,0.0,0.0,0.0,0.0,0.0,0.0,0.0,0.0,0.0,0.0,0.0,0.0,0.0,0.0,0.0,0.0,0.0,0.0,0.0,0.0,0.0,0.0,0.0,0.0,0.0,0.0,0.0,0.0,0.0,0.0,0.0,0.0,0.0,0.0,0.0,0.0,0.0,0.0,0.0,0.0,0.0,0.0,0.0,0.0,0.0,0.0,0.0,0.0,0.0,0.0,0.0,0.0,0.0,0.0,0.0,0.0,0.0,0.0,0.0,0.0,0.0,0.0,0.0,0.0,0.0,0.0,0.0,0.0,0.0,0.0,0.0,0.0,0.0,0.0,0.0,0.0,0.0,0.0,0.0,0.0,0.0,0.0,0.0,0.0,0.0,0.0,0.0,0.0,2.2561,2.2002,2.1191,2.0696,1.6771,1.3274,1.1164,0.7429,0.3744,0.0189,0.0,0.0,0.0,0.0,0.0,0.0,0.0,0.0,0.0,0.0,0.0,0.0,0.0,0.0,0.0,0.0,0.0,0.0,0.0,0.0,0.0,0.0,0.0,0.0,0.0,0.0,0.0,0.0,0.0,0.0,0.0,0.0,0.0,0.0,0.0,0.0,0.0,0.0,0.0,0.0,0.0,0.0,0.0,0.0,0.0,0.0,0.0,0.0,0.0,0.0,0.0,0.0,0.0,0.0,0.0,0.0,0.0,0.0,0.0,0.0,0.0,0.0,0.0,0.0,0.0,0.0,0.0,0.0,0.0,0.0,0.0,0.0,0.0,0.0,0.0,0.0,0.0,0.0,0.0,0.0,0.0,0.0,0.0,0.0,0.0,0.0,0.0,0.0,0.0,0.0,0.0,0.0,0.0,0.0,0.0,0.0,0.0,0.0,0.0,0.0,0.0,0.0,2.1808,2.137,2.0561,1.9413,1.5872,1.2541,0.9772,0.6524,0.3389,0.018,0.0,0.0,0.0,0.0,0.0,0.0,0.0,0.0,0.0,0.0,0.0,0.0,0.0,0.0,0.0,0.0,0.0,0.0,0.0,0.0,0.0,0.0,0.0,0.0,0.0,0.0,0.0,0.0,0.0,0.0,0.0,0.0,0.0,0.0,0.0,0.0,0.0,0.0,0.0,0.0,0.0,0.0,0.0,0.0,0.0,0.0,0.0,0.0,0.0,0.0,0.0,0.0,0.0,0.0,0.0,0.0,0.0,0.0,0.0,0.0,0.0,0.0,0.0,0.0,0.0,0.0,0.0,0.0,0.0,0.0,0.0,0.0,0.0,0.0,0.0,0.0,0.0,0.0,0.0,0.0,0.0,0.0,0.0,0.0,0.0,0.0,0.0,0.0,0.0,0.0,0.0,0.0,0.0,0.0,0.0,0.0,0.0,0.0,0.0,0.0,0.0,0.0,2.0597,2.0827,2.0159,1.8096,1.5263,1.2355,0.9701,0.5881,0.2472,0.0,0.0,0.0,0.0,0.0,0.0,0.0,0.0,0.0,0.0,0.0,0.0,0.0,0.0,0.0,0.0,0.0,0.0,0.0,0.0,0.0,0.0,0.0,0.0,0.0,0.0,0.0,0.0,0.0,0.0,0.0,0.0,0.0,0.0,0.0,0.0,0.0,0.0,0.0,0.0,0.0,0.0,0.0,0.0,0.0,0.0,0.0,0.0,0.0,0.0,0.0,0.0,0.0,0.0,0.0,0.0,0.0,0.0,0.0,0.0,0.0,0.0,0.0,0.0,0.0,0.0,0.0,0.0,0.0,0.0,0.0,0.0,0.0,0.0,0.0,0.0,0.0,0.0,0.0,0.0,0.0,0.0,0.0,0.0,0.0,0.0,0.0,0.0,0.0,0.0,0.0,0.0,0.0,0.0,0.0,0.0,0.0,0.0,0.0,0.0,0.0,0.0,0.0,2.2614,2.187,2.0074,1.7511,1.4363,1.1479,0.9208,0.4513,-0.0213,-0.4505,0.0,0.0,0.0,0.0,0.0,0.0,0.0,0.0,0.0,0.0,0.0,0.0,0.0,0.0,0.0,0.0,0.0,0.0,0.0,0.0,0.0,0.0,0.0,0.0,0.0,0.0,0.0,0.0,0.0,0.0,0.0,0.0,0.0,0.0,0.0,0.0,0.0,0.0,0.0,0.0,0.0,0.0,0.0,0.0,0.0,0.0,0.0,0.0,0.0,0.0,0.0,0.0,0.0,0.0,0.0,0.0,0.0,0.0,0.0,0.0,0.0,0.0,0.0,0.0,0.0,0.0,0.0,0.0,0.0,0.0,0.0,0.0,0.0,0.0,0.0,0.0,0.0,0.0,0.0,0.0,0.0,0.0,0.0,0.0,0.0,0.0,0.0,0.0,0.0,0.0,0.0,0.0,0.0,0.0,0.0,0.0,0.0,0.0,0.0,0.0,0.0,0.0,0.0,2.2327,2.0088,1.7192,1.3876,1.0453,0.6851,0.2203,-0.2519,-0.697,0.0,0.0,0.0,0.0,0.0,0.0,0.0,0.0,0.0,0.0,0.0,0.0,0.0,0.0,0.0,0.0,0.0,0.0,0.0,0.0,0.0,0.0,0.0,0.0,0.0,0.0,0.0,0.0,0.0,0.0,0.0,0.0,0.0,0.0,0.0,0.0,0.0,0.0,0.0,0.0,0.0,0.0,0.0,0.0,0.0,0.0,0.0,0.0,0.0,0.0,0.0,0.0,0.0,0.0,0.0,0.0,0.0,0.0,0.0,0.0,0.0,0.0,0.0,0.0,0.0,0.0,0.0,0.0,0.0,0.0,0.0,0.0,0.0,0.0,0.0,0.0,0.0,0.0,0.0,0.0,0.0,0.0,0.0,0.0,0.0,0.0,0.0,0.0,0.0,0.0,0.0,0.0,0.0,0.0,0.0,0.0,0.0,0.0,0.0,0.0,0.0,0.0,0.0,2.2391,2.0163,1.7158,1.3644,0.9185,0.3328,-0.0966,-0.4538,-0.7364,-0.7412,0.0,0.0,0.0,0.0,0.0,0.0,0.0,0.0,0.0,0.0,0.0,0.0,0.0,0.0,0.0,0.0,0.0,0.0,0.0,0.0,0.0,0.0,0.0,0.0,0.0,0.0,0.0,0.0,0.0,0.0,0.0,0.0,0.0,0.0,0.0,0.0,0.0,0.0,0.0,0.0,0.0,0.0,0.0,0.0,0.0,0.0,0.0,0.0,0.0,0.0,0.0,0.0,0.0,0.0,0.0,0.0,0.0,0.0,0.0,0.0,0.0,0.0,0.0,0.0,0.0,0.0,0.0,0.0,0.0,0.0,0.0,0.0,0.0,0.0,0.0,0.0,0.0,0.0,0.0,0.0,0.0,0.0,0.0,0.0,0.0,0.0,0.0,0.0,0.0,0.0,0.0,0.0,0.0,0.0,0.0,0.0,0.0,0.0,0.0,0.0,0.0,0.0,2.346,2.0753,1.7064,1.4111,0.9749,0.301,-0.3626,-0.7457,-0.7542,-0.9661,0.0,0.0,0.0,0.0,0.0,0.0,0.0,0.0,0.0,0.0,0.0,0.0,0.0,0.0,0.0,0.0,0.0,0.0,0.0,0.0,0.0,0.0,0.0,0.0,0.0,0.0,0.0,0.0,0.0,0.0,0.0,0.0,0.0,0.0,0.0,0.0,0.0,0.0,0.0,0.0,0.0,0.0,0.0,0.0,0.0,0.0,0.0,0.0,0.0,0.0,0.0,0.0,0.0,0.0,0.0,0.0,0.0,0.0,0.0,0.0,0.0,0.0,0.0,0.0,0.0,0.0,0.0,0.0,0.0,0.0,0.0,0.0,0.0,0.0,0.0,0.0,0.0,0.0,0.0,0.0,0.0,0.0,0.0,0.0,0.0,0.0,0.0,0.0,0.0,0.0,0.0,0.0,0.0,0.0,0.0,0.0,0.0,0.0,0.0,0.0,0.0,0.0,2.2273,2.046,1.6338,1.3382,0.8886,0.1897,-0.4893,-0.8635,-0.8325,-1.0177,0.0,0.0,0.0,0.0,0.0,0.0,0.0,0.0,0.0,0.0,0.0,0.0,0.0,0.0,0.0,0.0,0.0,0.0,0.0,0.0,0.0,0.0,0.0,0.0,0.0,0.0,0.0,0.0,0.0,0.0,0.0,0.0,0.0,0.0,0.0,0.0,0.0,0.0,0.0,0.0,0.0,0.0,0.0,0.0,0.0,0.0,0.0,0.0,0.0,0.0,0.0,0.0,0.0,0.0,0.0,0.0,0.0,0.0,0.0,0.0,0.0,0.0,0.0,0.0,0.0,0.0,0.0,0.0,0.0,0.0,0.0,0.0,0.0,0.0,0.0,0.0,0.0,0.0,0.0,0.0,0.0,0.0,0.0,0.0,0.0,0.0,0.0,0.0,0.0,0.0,0.0,0.0,0.0,0.0,0.0,0.0,0.0,0.0,0.0,0.0,0.0,0.0,0.0,1.9948,1.6487,1.2741,0.7618,0.0287,-0.5768,-0.925,-0.9105,0.0,0.0,0.0,0.0,0.0,0.0,0.0,0.0,0.0,0.0,0.0,0.0,0.0,0.0,0.0,0.0,0.0,0.0,0.0,0.0,0.0,0.0,0.0,0.0,0.0,0.0,0.0,0.0,0.0,0.0,0.0,0.0,0.0,0.0,0.0,0.0,0.0,0.0,0.0,0.0,0.0,0.0,0.0,0.0,0.0,0.0,0.0,0.0,0.0,0.0,0.0,0.0,0.0,0.0,0.0,0.0,0.0,0.0,0.0,0.0,0.0,0.0,0.0,0.0,0.0,0.0,0.0,0.0,0.0,0.0,0.0,0.0,0.0,0.0,0.0,0.0,0.0,0.0,0.0,0.0,0.0,0.0,0.0,0.0,0.0,0.0,0.0,0.0,0.0,0.0,0.0,0.0,0.0,0.0,0.0,0.0,0.0,0.0,0.0,0.0,0.0,0.0,0.0,0.0,2.0472,2.0307,1.5192,0.8085,-0.1007,-0.777,-1.0818,-0.9277,0.0,0.0,0.0,0.0,0.0,0.0,0.0,0.0,0.0,0.0,0.0,0.0,0.0,0.0]}]]]